[[{"header":{"parameterUnit":"m.s-1","parameterCategory":1,"la1":30.6,"la2":29.2853,"lo1":-89.7004,"lo2":-87.6739,"dy":0.0162,"dx":0.0183,"nx":112,"ny":82,"refTime":"2024-04-01T18:00:00:Z","depth":0,"parameterNumber":2,"parameterNumberName":"U-component_of_WINDS"},"data":[0.0,0.0,0.0,0.0,0.0,0.0,0.0,0.0,0.0,0.0,0.0,0.0,0.0,0.0,0.0,0.0,0.0,0.0,0.0,0.0,0.0,0.0,0.0,0.0,0.0,0.0,0.0,0.0,0.0,0.0,0.0,0.0,0.0,0.0,0.0,0.0,0.0,0.0,0.0,0.0,0.0,0.0,0.0,0.0,0.0,0.0,0.0,0.0,0.0,0.0,0.0,0.0,0.0,0.0,0.0,0.0,0.0,0.0,0.0,0.0,0.0,0.0,0.0,0.0,0.0,0.0,0.0,0.0,0.0,0.0,0.0,0.0,0.0,0.0,0.0,0.0,0.0,0.0,0.0,0.0,0.0,0.0,0.0,0.0,0.0,0.0,0.0,0.0,0.0,0.0,0.0,3.2055,3.1869,3.1608,3.1508,3.1404,3.1452,3.1541,0.0,0.0,0.0,0.0,0.0,0.0,0.0,0.0,0.0,0.0,0.0,0.0,0.0,0.0,0.0,0.0,0.0,0.0,0.0,0.0,0.0,0.0,0.0,0.0,0.0,0.0,0.0,0.0,0.0,0.0,0.0,0.0,0.0,0.0,0.0,0.0,0.0,0.0,0.0,0.0,0.0,0.0,0.0,0.0,0.0,0.0,0.0,0.0,0.0,0.0,0.0,0.0,0.0,0.0,0.0,0.0,0.0,0.0,0.0,0.0,0.0,0.0,0.0,0.0,0.0,0.0,0.0,0.0,0.0,0.0,0.0,0.0,0.0,0.0,0.0,0.0,0.0,0.0,0.0,0.0,0.0,0.0,0.0,0.0,0.0,0.0,0.0,0.0,0.0,0.0,0.0,0.0,0.0,0.0,0.0,0.0,0.0,0.0,0.0,0.0,0.0,0.0,0.0,0.0,3.0928,3.0495,3.0411,3.0411,3.0326,3.0008,3.008,3.0999,0.0,0.0,0.0,0.0,0.0,0.0,0.0,0.0,0.0,0.0,0.0,0.0,0.0,0.0,0.0,0.0,0.0,0.0,0.0,0.0,0.0,0.0,0.0,0.0,0.0,0.0,0.0,0.0,0.0,0.0,0.0,0.0,0.0,0.0,0.0,0.0,0.0,0.0,0.0,0.0,0.0,0.0,0.0,0.0,0.0,0.0,0.0,0.0,0.0,0.0,0.0,0.0,0.0,0.0,0.0,0.0,0.0,0.0,0.0,0.0,0.0,0.0,0.0,0.0,0.0,0.0,0.0,0.0,0.0,0.0,0.0,0.0,0.0,0.0,0.0,0.0,0.0,0.0,0.0,0.0,0.0,0.0,0.0,0.0,0.0,0.0,0.0,0.0,0.0,0.0,0.0,0.0,0.0,0.0,0.0,0.0,0.0,0.0,0.0,0.0,0.0,0.0,0.0,3.0905,3.0349,3.0086,3.0086,3.0086,3.0086,2.9511,2.9283,2.9715,2.9758,0.0,0.0,0.0,0.0,0.0,0.0,0.0,0.0,0.0,0.0,0.0,0.0,0.0,0.0,0.0,0.0,0.0,0.0,0.0,0.0,0.0,0.0,0.0,0.0,0.0,0.0,0.0,0.0,0.0,0.0,0.0,0.0,0.0,0.0,0.0,0.0,0.0,0.0,0.0,0.0,0.0,0.0,0.0,0.0,0.0,0.0,0.0,0.0,0.0,0.0,0.0,0.0,0.0,0.0,0.0,0.0,0.0,0.0,0.0,0.0,0.0,0.0,0.0,0.0,0.0,0.0,0.0,0.0,0.0,0.0,0.0,0.0,0.0,0.0,0.0,0.0,0.0,0.0,0.0,0.0,0.0,0.0,0.0,0.0,0.0,0.0,0.0,0.0,0.0,0.0,0.0,0.0,0.0,0.0,0.0,0.0,0.0,0.0,0.0,0.0,0.0,0.0,3.0082,2.9845,2.9737,2.9713,2.963,2.9356,2.8595,2.8139,2.8128,2.7711,0.0,0.0,0.0,0.0,0.0,0.0,0.0,0.0,0.0,0.0,0.0,0.0,0.0,0.0,0.0,0.0,0.0,0.0,0.0,0.0,0.0,0.0,0.0,0.0,0.0,0.0,0.0,0.0,0.0,0.0,0.0,0.0,0.0,0.0,0.0,0.0,0.0,0.0,0.0,0.0,0.0,0.0,0.0,0.0,0.0,0.0,0.0,0.0,0.0,0.0,0.0,0.0,0.0,0.0,0.0,0.0,0.0,0.0,0.0,0.0,0.0,0.0,0.0,0.0,0.0,0.0,0.0,0.0,0.0,0.0,0.0,0.0,0.0,0.0,0.0,0.0,0.0,0.0,0.0,0.0,0.0,0.0,0.0,0.0,0.0,0.0,0.0,0.0,0.0,0.0,0.0,0.0,0.0,0.0,0.0,0.0,0.0,0.0,0.0,0.0,0.0,0.0,2.9201,2.9172,2.8679,2.8619,2.8194,2.709,2.6576,2.6314,2.6497,2.6072,0.0,0.0,0.0,0.0,0.0,0.0,0.0,0.0,0.0,0.0,0.0,0.0,0.0,0.0,0.0,0.0,0.0,0.0,0.0,0.0,0.0,0.0,0.0,0.0,0.0,0.0,0.0,0.0,0.0,0.0,0.0,0.0,0.0,0.0,0.0,0.0,0.0,0.0,0.0,0.0,0.0,0.0,0.0,0.0,0.0,0.0,0.0,0.0,0.0,0.0,0.0,0.0,0.0,0.0,0.0,0.0,0.0,0.0,0.0,0.0,0.0,0.0,0.0,0.0,0.0,0.0,0.0,0.0,0.0,0.0,0.0,0.0,0.0,0.0,0.0,0.0,0.0,0.0,0.0,0.0,0.0,0.0,0.0,0.0,0.0,0.0,0.0,0.0,0.0,0.0,0.0,0.0,0.0,0.0,0.0,0.0,0.0,0.0,0.0,0.0,0.0,0.0,2.7124,2.659,0.0,2.6389,2.6224,2.5797,2.504,2.4726,2.4726,0.0,0.0,0.0,0.0,0.0,0.0,0.0,0.0,0.0,0.0,0.0,0.0,0.0,0.0,0.0,0.0,0.0,0.0,0.0,0.0,0.0,0.0,0.0,0.0,0.0,0.0,0.0,0.0,0.0,0.0,0.0,0.0,0.0,0.0,0.0,0.0,0.0,0.0,0.0,0.0,0.0,0.0,0.0,0.0,0.0,0.0,0.0,0.0,0.0,0.0,0.0,0.0,0.0,0.0,0.0,0.0,0.0,0.0,0.0,0.0,0.0,0.0,0.0,0.0,0.0,0.0,0.0,0.0,0.0,0.0,0.0,0.0,0.0,0.0,0.0,0.0,0.0,0.0,0.0,0.0,0.0,0.0,0.0,0.0,0.0,0.0,0.0,0.0,0.0,0.0,0.0,0.0,0.0,0.0,0.0,0.0,0.0,0.0,0.0,0.0,0.0,0.0,2.6438,2.5703,2.5126,0.0,2.5126,2.4957,2.4532,2.3953,2.3454,2.3105,0.0,0.0,0.0,0.0,0.0,0.0,0.0,0.0,0.0,0.0,0.0,0.0,0.0,0.0,0.0,0.0,0.0,0.0,0.0,0.0,0.0,0.0,0.0,0.0,0.0,0.0,0.0,0.0,0.0,0.0,0.0,0.0,0.0,0.0,0.0,0.0,0.0,0.0,0.0,0.0,0.0,0.0,0.0,0.0,0.0,0.0,0.0,0.0,0.0,0.0,0.0,0.0,0.0,0.0,0.0,0.0,0.0,0.0,0.0,0.0,0.0,0.0,0.0,0.0,0.0,0.0,0.0,0.0,0.0,0.0,0.0,0.0,0.0,0.0,0.0,0.0,0.0,0.0,0.0,0.0,0.0,0.0,0.0,0.0,0.0,0.0,0.0,0.0,0.0,0.0,0.0,0.0,0.0,0.0,0.0,0.0,0.0,0.0,0.0,0.0,0.0,0.0,2.502,2.502,2.502,2.502,2.502,2.4511,2.3163,2.3086,2.2658,0.0,0.0,0.0,0.0,0.0,0.0,0.0,0.0,0.0,0.0,0.0,0.0,0.0,0.0,0.0,0.0,0.0,0.0,0.0,0.0,0.0,0.0,0.0,0.0,0.0,0.0,0.0,0.0,0.0,0.0,0.0,0.0,0.0,0.0,0.0,0.0,0.0,0.0,0.0,0.0,0.0,0.0,0.0,0.0,0.0,0.0,0.0,0.0,0.0,0.0,0.0,0.0,0.0,0.0,0.0,0.0,0.0,0.0,0.0,0.0,0.0,0.0,0.0,0.0,0.0,0.0,0.0,0.0,0.0,0.0,0.0,0.0,0.0,0.0,0.0,0.0,0.0,0.0,0.0,0.0,0.0,0.0,0.0,0.0,0.0,0.0,0.0,0.0,0.0,0.0,0.0,0.0,0.0,0.0,0.0,0.0,0.0,0.0,0.0,0.0,0.0,0.0,0.0,2.2875,2.2,2.1419,2.1419,2.1419,2.1259,2.0851,2.1126,2.0998,2.0458,0.0,0.0,0.0,0.0,0.0,0.0,0.0,0.0,0.0,0.0,0.0,0.0,0.0,0.0,0.0,0.0,0.0,0.0,0.0,0.0,0.0,0.0,0.0,0.0,0.0,0.0,0.0,0.0,0.0,0.0,0.0,0.0,0.0,0.0,0.0,0.0,0.0,0.0,0.0,0.0,0.0,0.0,0.0,0.0,0.0,0.0,0.0,0.0,0.0,0.0,0.0,0.0,0.0,0.0,0.0,0.0,0.0,0.0,0.0,0.0,0.0,0.0,0.0,0.0,0.0,0.0,0.0,0.0,0.0,0.0,0.0,0.0,0.0,0.0,0.0,0.0,0.0,0.0,0.0,0.0,0.0,0.0,0.0,0.0,0.0,0.0,0.0,0.0,0.0,0.0,0.0,0.0,0.0,0.0,0.0,0.0,0.0,0.0,0.0,0.0,0.0,0.0,2.1099,2.0409,1.975,1.9401,1.9307,1.9127,1.8956,1.8812,1.8758,1.8801,0.0,0.0,0.0,0.0,0.0,0.0,0.0,0.0,0.0,0.0,0.0,0.0,0.0,0.0,0.0,0.0,0.0,0.0,0.0,0.0,0.0,0.0,0.0,0.0,0.0,0.0,0.0,0.0,0.0,0.0,0.0,0.0,0.0,0.0,0.0,0.0,0.0,0.0,0.0,0.0,0.0,0.0,0.0,0.0,0.0,0.0,0.0,0.0,0.0,0.0,0.0,0.0,0.0,0.0,0.0,0.0,0.0,0.0,0.0,0.0,0.0,0.0,0.0,0.0,0.0,0.0,0.0,0.0,0.0,0.0,0.0,0.0,0.0,0.0,0.0,0.0,0.0,0.0,0.0,0.0,0.0,0.0,0.0,0.0,0.0,0.0,0.0,0.0,0.0,0.0,0.0,0.0,0.0,0.0,0.0,0.0,0.0,0.0,0.0,0.0,0.0,0.0,1.9466,1.9458,1.9118,1.8341,1.7981,1.7706,1.7282,1.6513,1.6345,1.6957,0.0,0.0,0.0,0.0,0.0,0.0,0.0,0.0,0.0,0.0,0.0,0.0,0.0,0.0,0.0,0.0,0.0,0.0,0.0,0.0,0.0,0.0,0.0,0.0,0.0,0.0,0.0,0.0,0.0,0.0,0.0,0.0,0.0,0.0,0.0,0.0,0.0,0.0,0.0,0.0,0.0,0.0,0.0,0.0,0.0,0.0,0.0,0.0,0.0,0.0,0.0,0.0,0.0,0.0,0.0,0.0,0.0,0.0,0.0,0.0,1.5994,0.0,0.0,0.0,0.0,0.0,0.0,0.0,0.0,0.0,0.0,0.0,0.0,0.0,0.0,0.0,0.0,0.0,0.0,0.0,0.0,0.0,0.0,0.0,0.0,0.0,0.0,0.0,0.0,0.0,0.0,0.0,0.0,0.0,0.0,0.0,0.0,0.0,0.0,0.0,0.0,0.0,1.6521,1.6065,1.5738,1.557,1.5485,1.5401,1.5317,1.5455,1.5405,1.5247,1.5604,0.0,0.0,0.0,0.0,0.0,0.0,0.0,0.0,0.0,0.0,0.0,0.0,0.0,0.0,0.0,0.0,0.0,0.0,0.0,0.0,0.0,0.0,0.0,0.0,0.0,0.0,0.0,0.0,0.0,0.0,0.0,0.0,0.0,0.0,0.0,0.0,0.0,0.0,0.0,0.0,0.0,0.0,0.0,0.0,0.0,0.0,0.0,0.0,0.0,0.0,0.0,0.0,0.0,0.0,0.0,0.0,0.0,0.0,0.0,0.0,1.3987,0.0,0.0,0.0,0.0,0.0,0.0,0.0,0.0,0.0,0.0,0.0,0.0,0.0,0.0,0.0,0.0,0.0,0.0,0.0,0.0,0.0,0.0,0.0,0.0,0.0,0.0,0.0,0.0,0.0,0.0,0.0,0.0,0.0,0.0,0.0,0.0,0.0,0.0,0.0,0.0,1.5137,1.4866,1.4531,1.4119,1.3944,1.386,1.3789,1.3493,1.3433,1.3626,1.3639,0.0,0.0,0.0,0.0,0.0,0.0,0.0,0.0,0.0,0.0,0.0,0.0,0.0,0.0,0.0,0.0,0.0,0.0,0.0,0.0,0.0,0.0,0.0,0.0,0.0,0.0,0.0,0.0,0.0,0.0,0.0,0.0,0.0,0.0,0.0,0.0,0.0,0.0,0.0,0.0,0.0,0.0,0.0,0.0,0.0,0.0,0.0,0.0,0.0,0.0,0.0,0.0,0.0,0.9405,0.9088,0.8784,0.821,0.7916,0.7818,0.83,0.9295,1.0697,0.0,0.0,0.0,0.0,0.0,0.0,0.0,0.0,0.0,0.0,0.0,0.0,0.0,0.0,0.0,0.0,0.0,0.0,0.0,0.0,0.0,0.0,0.0,0.0,0.0,1.5041,1.5267,0.0,0.0,0.0,0.0,0.0,0.0,0.0,0.0,0.0,0.0,0.0,0.0,1.4203,1.4028,1.3691,1.3021,1.2681,1.2425,1.2272,1.151,1.1343,1.1935,1.1429,1.1429,0.0,0.0,0.0,0.0,0.0,0.0,0.0,0.0,0.0,0.0,0.0,0.0,0.0,0.0,0.0,0.0,0.0,0.0,0.0,0.0,0.0,0.0,0.0,0.0,0.0,0.0,0.0,0.0,0.0,0.0,0.0,0.0,2.5316,2.4211,0.0,0.0,0.0,0.0,0.0,0.0,0.0,0.0,0.0,0.0,0.0,0.0,0.0,1.0649,1.0164,0.9908,0.9444,0.8875,0.7003,0.5997,0.5708,0.3912,0.277,0.2387,0.2483,0.0,0.9091,0.9091,0.0,0.0,0.0,0.0,0.0,0.0,0.0,0.0,0.0,0.0,0.0,0.0,0.0,0.0,0.0,0.0,0.0,0.0,0.0,0.0,0.0,0.0,1.0232,1.0508,1.06,1.0557,0.0,1.3665,1.6271,1.6058,1.5741,0.0,0.0,0.0,0.0,0.0,0.0,0.0,1.2203,1.1499,1.1058,1.0977,1.0636,1.0381,1.0381,1.0212,1.0212,1.0299,1.0212,1.0222,1.0338,1.0425,0.0,0.0,0.0,0.0,0.0,0.0,0.0,0.0,0.0,0.0,0.0,0.0,0.0,0.0,0.0,0.0,0.0,0.0,0.0,0.0,0.0,0.0,0.0,0.0,0.0,0.0,0.0,0.0,0.0,2.4221,2.3347,2.2277,2.1542,2.0648,0.0,0.0,0.0,0.0,0.0,0.0,0.0,0.0,0.0,1.0692,0.9719,0.8512,0.7161,0.7006,0.6119,0.4596,0.361,0.3031,0.2843,0.1899,0.1331,0.1141,0.1141,0.2395,0.4371,0.4415,0.4362,0.4305,0.0,0.0,0.0,0.0,0.575,0.5892,0.6184,0.662,0.0,0.0,0.0,0.0,0.0,0.0,0.0,0.0,0.0,0.0,0.0,0.0,0.0,0.8563,0.8653,0.8637,0.8561,1.0088,1.1641,0.0,1.175,1.1592,1.1847,0.0,0.0,0.0,0.0,1.088,1.0733,1.0472,1.0294,1.0294,0.9767,0.9419,0.9419,0.9419,0.9419,0.9419,0.9772,1.0038,1.0038,1.0124,1.0401,0.0,0.0,0.0,0.0,0.0,0.0,0.0,0.0,0.0,0.0,0.0,0.0,0.0,0.0,0.0,0.0,0.0,0.0,0.0,0.0,0.0,0.0,0.0,0.0,0.0,0.0,0.0,0.0,2.2482,2.1418,1.9926,1.948,1.8748,0.0,0.0,0.0,0.0,0.0,0.0,0.982,0.8638,0.8094,0.7988,0.7221,0.5949,0.4254,0.4141,0.3101,0.1225,0.1032,0.0749,0.0468,0.0187,0.0094,-0.0,-0.0,-0.0,-0.0,0.0674,0.0881,0.0893,0.1091,0.119,0.1289,0.2272,0.2639,0.2799,0.3184,0.3529,0.3858,0.3488,0.0,0.4045,0.508,0.0,0.0,0.0,0.0,0.6409,0.6376,0.6204,0.6219,0.6574,0.6665,0.6665,0.7024,0.7115,0.7464,0.0,0.8515,0.8432,0.8773,0.0,0.0,0.0,0.0,0.8969,0.9414,0.9327,0.9244,0.9244,0.8627,0.8277,0.8277,0.8277,0.8364,0.854,0.9069,0.9423,0.9607,0.9607,0.9763,1.0084,0.0,0.0,0.0,0.0,0.0,0.0,0.0,0.0,0.0,0.0,0.0,0.0,0.0,0.0,0.0,0.0,0.0,0.0,0.0,0.0,0.0,0.0,0.0,0.0,0.0,0.0,0.0,0.0,0.0,1.7649,1.7159,0.0,0.0,0.0,0.0,1.1262,0.9336,0.8108,0.7927,0.5586,0.4078,0.3964,0.2746,0.1898,0.1614,0.1212,0.0924,0.0832,-0.0181,-0.0718,-0.0987,-0.1889,-0.2432,-0.2703,-0.2703,-0.2731,-0.2595,-0.0094,0.0954,0.0954,0.105,0.105,0.1049,0.1049,0.1144,0.1143,0.1143,0.1142,0.1236,0.1141,0.1141,0.1236,0.1614,0.1708,0.0,0.0,0.1658,0.1649,0.153,0.1431,0.1787,0.3127,0.3395,0.3753,0.4917,0.5097,0.5714,0.0,0.7815,0.7815,0.7903,0.0,0.7815,0.7903,0.7903,0.7903,0.7903,0.7559,0.721,0.721,0.6776,0.6517,0.6517,0.6517,0.6782,0.7489,0.7577,0.7937,0.8652,0.8656,0.892,0.9362,0.9535,0.0,0.0,0.0,0.0,0.0,0.0,0.0,0.0,0.0,0.0,0.0,0.0,0.0,0.0,0.0,0.0,0.0,0.0,0.0,0.0,0.0,0.0,0.0,0.0,0.0,0.0,0.0,0.0,1.6784,1.5756,0.0,1.2724,1.1786,1.0341,0.8182,0.7243,0.6183,0.4444,0.3183,0.2418,0.2321,0.147,0.064,-0.0183,-0.0906,-0.1804,-0.2709,-0.3671,-0.4279,-0.4545,-0.4819,-0.5087,-0.509,-0.4739,-0.4491,-0.4433,-0.2645,-0.186,-0.1618,-0.1618,-0.1618,-0.1618,-0.1618,-0.1605,-0.1587,-0.1587,-0.1574,-0.1466,-0.1466,-0.1007,-0.0366,-0.0274,0.0366,0.0913,0.0906,0.0904,0.0902,0.0896,0.0805,0.0984,0.1431,0.1609,0.1699,0.2145,0.2593,0.3218,0.4192,0.5174,0.5802,0.5977,0.5708,0.5708,0.6331,0.6334,0.6422,0.6861,0.6776,0.6691,0.6691,0.6077,0.5725,0.5725,0.6166,0.6517,0.6782,0.7672,0.8296,0.8568,0.8568,0.8656,0.8828,0.889,0.9242,0.0,0.0,0.0,0.0,0.0,0.0,0.0,0.0,0.0,0.0,0.0,0.0,0.0,0.0,0.0,0.0,0.0,0.0,0.0,0.0,0.0,0.0,0.0,0.0,0.0,0.0,1.7606,1.5035,1.4087,1.2911,1.1022,0.9692,0.8077,0.5895,0.5048,0.3826,0.1769,0.0826,0.0182,-0.0273,-0.1078,-0.1874,-0.2768,-0.3476,-0.4277,-0.5179,-0.5888,-0.6239,-0.6413,-0.6413,-0.6413,-0.6413,-0.5885,-0.5625,-0.5359,-0.4563,-0.3915,-0.3454,-0.3176,-0.2991,-0.2991,-0.2991,-0.2965,-0.2931,-0.2931,-0.2906,-0.2875,-0.2875,-0.2332,-0.1702,-0.1702,-0.1164,-0.0537,-0.0537,-0.0537,-0.0537,-0.0448,-0.0358,-0.0269,0.0089,0.0268,0.0358,0.0626,0.1074,0.1611,0.2149,0.3403,0.4391,0.4743,0.4476,0.4476,0.5097,0.5102,0.5191,0.563,0.5719,0.5719,0.5719,0.5277,0.5013,0.5013,0.5633,0.6166,0.6428,0.7584,0.8296,0.8568,0.8568,0.8568,0.8568,0.8568,0.8827,0.9358,0.0,0.0,0.0,0.0,0.0,0.0,0.0,0.0,0.0,0.0,0.0,0.0,0.0,0.0,0.0,0.0,0.0,0.0,0.0,0.0,0.0,0.0,0.0,1.7476,1.6453,1.4827,1.2301,1.2016,1.0997,0.8505,0.6976,0.5707,0.4426,0.2577,0.1095,-0.0,-0.1427,-0.2676,-0.3848,-0.5087,-0.5797,-0.6068,-0.6328,-0.6413,-0.6413,-0.6505,-0.6502,-0.6502,-0.6502,-0.6502,-0.6502,-0.6505,-0.6151,-0.5536,-0.5447,-0.5006,-0.4297,-0.332,-0.2964,-0.2964,-0.2875,-0.2875,-0.2875,-0.2875,-0.2875,-0.2875,-0.2875,-0.2875,-0.2875,-0.2875,-0.2875,-0.2875,-0.2875,-0.2875,-0.2873,-0.2603,-0.2513,-0.2242,-0.1074,-0.0805,-0.0537,0.0358,0.0626,0.0805,0.1611,0.2688,0.3676,0.421,0.43,0.43,0.43,0.43,0.0,0.43,0.43,0.43,0.43,0.43,0.43,0.43,0.5013,0.5725,0.6428,0.7136,0.7848,0.8564,0.8568,0.8568,0.8568,0.8568,0.8649,0.8812,0.0,0.0,0.0,0.0,0.0,0.0,0.0,0.0,0.0,0.0,0.0,0.0,0.0,0.0,0.0,0.0,0.0,0.0,0.0,0.0,0.0,0.0,1.4356,1.4656,1.4977,1.4199,1.161,1.0685,0.9255,0.6693,0.5433,0.3891,0.1713,0.0811,-0.009,-0.1255,-0.2684,-0.3576,-0.3849,-0.5267,-0.6065,-0.6068,-0.6949,-0.7474,-0.7738,-0.836,-0.8803,-0.8973,-0.8973,-0.8973,-0.8973,-0.8448,-0.8093,-0.783,-0.6508,-0.5802,-0.545,-0.3942,-0.3409,-0.3409,-0.3053,-0.2875,-0.2875,-0.2875,-0.2875,-0.2875,-0.2875,-0.2875,-0.2875,-0.2875,-0.2875,-0.2875,-0.2875,-0.2875,-0.2873,-0.2784,-0.2784,-0.2694,-0.2333,-0.2332,-0.2242,-0.1973,-0.1524,-0.0986,-0.0447,0.0806,0.2241,0.3585,0.4032,0.43,0.43,0.43,0.0,0.43,0.43,0.43,0.43,0.43,0.4478,0.5013,0.5722,0.6432,0.7136,0.7848,0.8388,0.8568,0.8568,0.8568,0.8568,0.8568,0.8593,0.0,0.0,0.0,0.0,0.0,0.0,0.0,0.0,0.0,0.0,0.0,0.0,0.0,0.0,0.0,0.0,0.0,0.0,0.0,0.0,0.0,0.0,1.3436,1.2102,1.2176,1.2786,1.2539,1.0926,0.9114,0.7368,0.5692,0.3831,0.1966,0.0358,-0.0448,-0.1433,-0.2598,-0.3582,-0.4385,-0.5184,-0.6242,-0.7041,-0.7397,-0.8277,-0.8798,-0.8973,-0.951,-0.9864,-1.0038,-1.0038,-1.0038,0.0,-0.951,-0.9157,-0.8803,-0.739,-0.6688,0.0,0.0,0.0,0.0,0.0,-0.3232,-0.3142,-0.2963,-0.2875,-0.2875,-0.2875,-0.2875,-0.2875,-0.2875,-0.2875,-0.2875,-0.2875,-0.2875,-0.2875,-0.2875,-0.2875,-0.2875,-0.2875,-0.2875,-0.2875,-0.2875,-0.2334,-0.1614,-0.1075,0.0179,0.0,0.2781,0.3406,0.3673,0.3673,0.3853,0.4032,0.4032,0.421,0.43,0.43,0.4567,0.4924,0.5371,0.6254,0.0,0.0,0.0,0.8568,0.8568,0.8568,0.0,0.0,0.0,0.8568,0.8568,0.0,0.0,0.0,1.0548,1.1429,0.0,0.0,0.0,0.0,0.0,0.0,0.0,0.0,0.0,0.0,0.0,0.0,0.0,0.0,0.0,0.0,1.1456,1.0448,1.0202,1.0188,1.0096,0.9937,0.7362,0.5419,0.4989,0.2141,0.0268,-0.0179,-0.1434,-0.269,-0.3671,0.0,0.0,0.0,0.0,-0.8189,-0.9082,-0.9689,-1.0038,-1.0038,-1.0038,-0.9951,-0.9864,-0.9864,-0.9859,-0.9772,-0.9772,-0.9419,-0.8715,-0.8009,-0.7305,-0.6514,-0.5008,-0.43,-0.421,-0.3765,-0.3587,-0.3499,-0.3053,0.0,0.0,-0.2875,-0.2875,-0.2875,-0.2875,-0.2875,-0.2873,-0.2784,-0.2784,-0.2784,-0.2694,-0.2694,-0.2694,-0.2694,-0.2694,-0.2694,-0.2694,-0.2154,-0.1525,-0.0807,0.0269,0.1256,0.1885,0.251,0.2867,0.2867,0.3227,0.3497,0.3587,0.3942,0.43,0.4389,0.0,0.0,0.5638,0.6782,0.7577,0.7577,0.8208,0.8568,0.8568,0.8568,0.8568,0.8568,0.8568,0.8568,0.8568,0.9087,0.9345,0.9437,1.0046,1.0975,0.0,0.0,0.0,0.0,0.0,0.0,0.0,0.0,0.0,0.0,0.0,0.0,0.0,0.0,0.0,1.1207,1.0656,1.0115,0.924,0.8269,0.7478,0.7482,0.6231,0.4632,0.2681,0.1252,-0.0089,-0.1345,-0.1884,-0.2333,-0.2781,-0.3764,-0.4478,-0.4832,-0.6773,-0.7921,-0.8097,-0.9331,-1.0038,-1.0038,0.0,0.0,-0.9152,-0.9152,-0.8803,-0.8185,-0.8185,-0.8185,-0.7921,-0.7305,-0.6605,-0.5819,-0.5099,-0.4389,-0.3765,-0.3676,-0.332,-0.3053,-0.2964,-0.2875,-0.2875,-0.2875,-0.2875,-0.2875,-0.2875,-0.2875,0.0,-0.2154,-0.1974,-0.1885,-0.1256,-0.1166,-0.1166,-0.1166,-0.1166,-0.1166,-0.1166,-0.0987,-0.0897,-0.0718,-0.0,0.0538,0.0718,0.1972,0.2867,0.2867,0.2957,0.3136,0.3587,0.3676,0.4123,0.5104,0.5282,0.5902,0.6959,0.7312,0.7757,0.8384,0.8476,0.8568,0.8568,0.8568,0.8568,0.8568,0.8568,0.8568,0.8568,0.9087,0.9519,0.9868,1.0333,1.0919,0.0,0.0,0.0,0.0,0.0,0.0,0.0,0.0,0.0,0.0,0.0,1.3741,1.3071,0.0,1.0987,1.0539,0.9497,0.854,0.7921,0.6868,0.6071,0.6062,0.4548,0.2946,0.1253,-0.0,-0.1075,-0.1974,-0.2243,-0.2679,-0.3354,-0.3442,-0.4035,-0.5196,-0.6046,-0.6731,-0.7425,-0.8276,-0.8789,-0.8789,-0.8803,-0.8673,-0.8328,-0.8325,-0.8185,-0.7834,-0.7834,-0.7834,-0.7746,-0.7041,-0.6343,-0.5644,-0.5466,-0.5109,-0.4569,-0.4123,-0.3585,-0.2957,-0.2512,-0.2064,-0.1884,-0.2243,-0.2064,-0.1884,-0.2243,-0.2064,-0.1705,-0.1345,-0.1256,-0.1166,-0.0807,-0.0718,-0.0718,-0.0718,-0.0718,-0.0718,-0.0718,-0.0448,-0.0179,-0.0179,0.0448,0.0897,0.0897,0.1613,0.2152,0.2152,0.2598,0.2957,0.3227,0.3942,0.4748,0.5371,0.5991,0.6697,0.7401,0.7848,0.8208,0.8568,0.8568,0.8568,0.8568,0.8568,0.8568,0.8568,0.8568,0.8744,0.8915,0.9437,0.9864,1.0299,1.0845,1.129,0.0,0.0,0.0,0.0,0.0,0.0,0.0,0.0,1.4041,1.2534,1.2699,1.2784,1.2037,1.0992,1.012,0.9941,0.8277,0.6959,0.6602,0.5811,0.5097,0.4636,0.2948,0.1432,0.0358,-0.0982,-0.1873,-0.2231,-0.24,-0.2903,-0.3882,-0.3194,-0.3679,-0.561,-0.5269,-0.5687,-0.6778,-0.727,-0.7518,-0.7522,-0.7575,-0.7554,-0.7473,-0.7512,-0.748,-0.7306,-0.7309,-0.7327,-0.7358,-0.6835,-0.6239,-0.5738,-0.5657,-0.5382,-0.4832,-0.4659,-0.3941,-0.2953,-0.1882,-0.1076,-0.0718,-0.1345,-0.1166,-0.0807,-0.1436,-0.1166,-0.0628,-0.0538,-0.0448,-0.0448,-0.0359,-0.0269,-0.0269,-0.0269,-0.0269,-0.0269,-0.0269,0.0179,0.0628,0.0628,0.0987,0.1436,0.1614,0.1698,0.1696,0.1613,0.233,0.3045,0.3224,0.4563,0.5547,0.5813,0.6782,0.7577,0.7669,0.8296,0.8568,0.8568,0.8568,0.8656,0.8823,0.8652,0.874,0.9087,0.8828,0.8999,0.9519,0.9951,1.0294,1.0641,1.1321,1.1725,1.7595,1.7233,0.0,1.6862,1.553,1.421,0.0,0.0,1.2534,1.1866,1.1866,1.178,1.1435,1.0559,0.9685,0.8807,0.7661,0.6514,0.5636,0.5104,0.4119,0.2415,0.1969,0.1253,-0.0179,-0.1146,-0.1919,-0.2356,-0.2313,-0.2455,-0.287,-0.2786,-0.295,-0.361,-0.4603,-0.5352,-0.5862,-0.6936,-0.7518,-0.7518,-0.7537,-0.7217,-0.6552,-0.6566,-0.6241,-0.5658,-0.5754,-0.5829,-0.5944,-0.5857,-0.5747,-0.5668,-0.567,-0.4123,-0.2144,-0.4667,-0.4403,-0.2693,-0.0807,-0.0179,-0.0179,-0.0628,-0.0807,-0.0718,-0.0807,-0.0807,-0.0538,0.009,0.0269,0.0448,0.0987,0.1166,0.1166,0.1166,0.1166,0.1166,0.1166,0.1256,0.1256,0.1256,0.1345,0.1704,0.2598,0.2735,0.263,0.2148,0.2686,0.3487,0.4291,0.5179,0.6065,0.7136,0.7401,0.7757,0.8388,0.8564,0.8568,0.8568,0.8568,0.8911,0.9685,0.8999,0.9345,1.0982,0.9864,0.9607,1.0463,1.0549,1.0549,1.0641,1.1321,1.1811,1.7406,0.0,0.0,0.0,1.5711,1.4636,1.3873,1.2869,1.2123,1.1785,1.1613,1.144,1.1348,1.012,0.8982,0.0,0.7048,0.5811,0.528,0.4926,0.4121,0.2597,0.1948,0.0879,-0.0968,-0.1659,-0.2075,-0.2304,-0.2452,-0.2592,-0.2642,-0.2639,-0.2786,-0.3152,-0.3951,-0.4511,-0.4914,-0.5636,-0.6039,-0.6039,-0.6124,-0.6084,-0.5761,-0.5761,-0.5633,-0.5385,-0.4369,-0.4055,-0.4093,-0.4093,-0.377,-0.3285,-0.3507,-0.2728,-0.1584,-0.2765,-0.2419,-0.1254,-0.0179,0.0448,0.0718,0.009,0.0179,0.0448,0.009,0.0179,0.0628,0.0897,0.0987,0.1076,0.1345,0.1436,0.1436,0.1436,0.1436,0.1524,0.2152,0.224,0.2419,0.2953,0.3014,0.3164,0.3689,0.3707,0.375,0.3957,0.4218,0.4473,0.4903,0.5846,0.6786,0.7724,0.7812,0.8066,0.8915,0.8497,0.8662,0.9573,0.9247,0.9331,1.0153,0.9824,1.007,1.0896,1.0403,1.0548,1.1522,1.1522,1.177,1.2198,1.2431,1.2587,1.7338,0.0,0.0,1.6838,1.5876,1.4803,1.3873,1.279,1.1957,1.1699,1.1527,1.1262,1.1262,0.9946,0.8894,0.8894,0.7224,0.5811,0.545,0.5102,0.4378,0.3021,0.2275,0.1035,-0.0939,-0.1706,-0.2034,-0.2168,-0.2486,-0.2623,-0.2579,-0.2576,-0.2636,-0.2827,-0.3374,-0.3763,-0.3992,-0.4626,-0.5021,-0.5023,-0.5113,-0.4991,-0.4506,-0.4589,-0.4879,-0.5216,-0.4047,-0.2398,-0.0748,-0.0748,-0.0834,-0.1092,-0.1112,-0.0688,-0.0,-0.0175,-0.0089,0.0179,0.0538,0.0987,0.1345,0.0807,0.1166,0.1704,0.1255,0.1613,0.2239,0.2239,0.2239,0.2239,0.2239,0.2239,0.2239,0.2239,0.2239,0.2418,0.3133,0.3298,0.3462,0.4078,0.4181,0.4291,0.4633,0.4713,0.4971,0.5717,0.5849,0.577,0.5676,0.6602,0.7518,0.8254,0.8341,0.8664,0.9476,0.8987,0.9141,1.0353,0.9872,0.9877,1.0761,1.0595,1.075,1.1478,1.1152,1.1491,1.2425,1.2416,1.2767,1.3404,1.3432,1.3362,0.0,0.0,1.6205,1.6611,1.5372,1.3957,1.3789,1.279,1.1957,1.1699,1.1527,1.1262,1.1262,1.0472,0.9859,0.9859,0.8452,0.7217,0.6416,0.5808,0.4709,0.2959,0.269,0.2047,0.0,-0.1058,-0.1872,-0.1708,-0.223,-0.2515,-0.2514,-0.2514,-0.2434,-0.2196,-0.2904,-0.3215,-0.2974,-0.4316,-0.5031,-0.5031,-0.5034,-0.4162,-0.2585,-0.2586,-0.3458,-0.4977,-0.4977,-0.1273,0.4737,0.4737,0.2886,-0.0,0.0841,0.2186,0.3617,0.3028,0.2248,0.1345,0.1345,0.1346,0.1436,0.1345,0.2062,0.2867,0.2867,0.3489,0.42,0.42,0.42,0.42,0.42,0.42,0.42,0.42,0.42,0.42,0.4289,0.4136,0.4078,0.4078,0.4172,0.4522,0.5446,0.5752,0.6227,0.7209,0.7379,0.7309,0.6983,0.7518,0.8258,0.9073,0.9155,0.9476,1.0272,1.0353,1.0353,1.0433,1.0353,1.0761,1.1754,1.1083,1.1558,1.3416,1.2282,1.2129,1.3055,1.292,1.3035,1.3411,1.3964,1.4006,0.0,0.0,1.6934,1.6413,1.6036,1.5621,1.4789,1.4048,1.3385,1.2693,1.2277,1.1854,1.1348,1.0559,0.9767,0.9501,0.8364,0.7309,0.6776,0.634,0.5764,0.5117,0.444,0.0,0.0,0.0,0.0,-0.0954,-0.1104,-0.1256,-0.1256,-0.1256,-0.1178,-0.1178,-0.204,-0.2431,-0.2352,-0.3054,-0.2815,-0.1716,-0.2817,-0.1876,0.086,0.2585,0.2271,0.0391,0.0078,0.1257,0.3412,0.4854,0.4393,0.2813,0.3345,0.3609,0.3781,0.3586,0.3303,0.3002,0.3002,0.3002,0.3002,0.3002,0.3293,0.3682,0.3682,0.398,0.4289,0.4289,0.4289,0.4289,0.4289,0.4289,0.4289,0.4289,0.4289,0.445,0.5,0.5045,0.5256,0.5855,0.5985,0.6137,0.6711,0.6821,0.7102,0.8112,0.8286,0.8291,0.8108,0.8819,0.9359,0.9668,0.9674,0.9983,1.0829,1.0363,1.0511,1.1593,1.1136,1.1294,1.2296,1.2056,1.2359,1.3283,1.2893,1.2996,1.3676,1.3916,1.4251,1.4769,1.4838,1.4903,0.0,1.7299,1.7286,1.6764,1.6517,1.6296,1.5756,1.513,1.4384,1.362,1.3203,1.2699,1.186,1.116,1.0636,1.0024,0.9065,0.8189,0.7658,0.7132,0.6624,0.6178,0.5569,0.5205,0.0,0.0,0.0,0.0784,0.047,0.0313,0.0313,0.0313,0.0392,0.0627,-0.0235,-0.0704,-0.0626,-0.0703,0.0234,0.1952,0.0781,0.1016,0.2582,0.48,0.5277,0.4238,0.3999,0.3761,0.3756,0.5101,0.5341,0.4789,0.4698,0.4644,0.4651,0.4313,0.4582,0.5007,0.4085,0.3773,0.3773,0.3773,0.4147,0.454,0.4565,0.4875,0.52,0.5252,0.5267,0.5267,0.5267,0.5267,0.5267,0.5267,0.5267,0.5414,0.5912,0.5996,0.6241,0.72,0.7369,0.7572,0.8125,0.8172,0.8394,0.8998,0.9377,0.9453,0.915,0.9599,1.0045,1.0276,1.0346,1.0651,1.1484,1.1025,1.1174,1.2224,1.1781,1.1855,1.2599,1.2673,1.2893,1.3193,1.3273,1.3505,1.3982,1.4428,1.497,1.5621,1.5708,1.5791,1.7438,1.7279,1.7251,1.7466,1.6868,1.6254,1.6676,1.5928,1.4942,1.4552,1.4216,1.3704,0.0,0.0,1.2174,1.1413,1.0534,0.9744,0.9052,0.8089,0.7191,0.0,0.0,0.0,0.0,0.0,0.0,0.3511,0.0,0.2027,0.2027,0.2027,0.2261,0.281,0.2183,0.2029,0.2345,0.2581,0.3759,0.5665,0.5344,0.4314,0.2815,0.447,0.5665,0.6386,0.6386,0.621,0.5951,0.5951,0.5951,0.5873,0.5157,0.5556,0.6355,0.5479,0.619,0.7192,0.4856,0.401,0.401,0.3926,0.4589,0.5349,0.5347,0.6144,0.6963,0.6991,0.7051,0.7231,0.7231,0.7231,0.7231,0.7231,0.7139,0.7011,0.7039,0.6982,0.7185,0.7899,0.828,0.8685,0.9518,0.982,0.997,0.9976,1.0657,1.0881,1.0045,0.997,1.0346,1.1111,1.1186,1.1484,1.2224,1.2305,1.2305,1.2305,1.2305,1.2378,1.2599,1.2826,1.3046,1.32,1.3419,1.366,1.3982,1.4633,1.5277,1.5935,1.6565,1.665,1.8436,1.8091,1.7685,1.7396,1.7283,1.7277,1.7274,1.6795,1.6147,1.5493,1.5047,1.4468,0.0,0.0,0.0,1.1058,1.0491,0.0,0.9597,0.8691,0.0,0.0,0.0,0.8421,0.8637,0.8443,0.0,0.0,0.4977,0.3281,0.3281,0.3281,0.3359,0.3517,0.3752,0.4297,0.5148,0.5854,0.6486,0.7045,0.6887,0.6791,0.6685,0.7804,0.82,0.7868,0.7868,0.7787,0.7774,0.7774,0.771,0.7731,0.7727,0.7837,0.8039,0.7876,0.8035,0.8285,0.7672,0.707,0.6465,0.5896,0.5893,0.6218,0.6165,0.6901,0.7663,0.761,0.8059,0.8609,0.8609,0.8609,0.8609,0.8609,0.8701,0.8707,0.8657,0.8695,0.8878,0.9106,0.9387,0.9593,0.982,1.0363,1.0761,1.079,1.1509,1.1706,1.0881,1.1329,1.1774,1.2003,1.2003,1.2077,1.2305,1.2305,1.2305,1.2305,1.2452,1.2599,1.2826,1.3046,1.3193,1.3419,1.3492,1.366,1.3982,1.4633,1.5277,1.5935,1.6565,1.6934,1.9166,1.8816,1.8438,1.7868,1.794,1.8036,1.7879,1.7614,1.7246,1.6308,1.5974,0.0,0.0,0.0,0.0,0.0,0.0,0.0,1.0465,0.9908,0.9687,0.0,1.0064,0.0,0.9862,0.9669,0.9406,0.0,0.7255,0.6069,0.5915,0.5915,0.5915,0.5915,0.6234,0.6623,0.7157,0.7629,0.7868,0.7868,0.7868,0.8016,0.8232,0.8722,0.8718,0.838,0.0,0.8466,0.856,0.856,0.856,0.8565,0.8646,0.8674,0.8707,0.8672,0.8932,0.9159,0.8836,0.8661,0.8403,0.7602,0.7386,0.7463,0.7463,0.7853,0.8375,0.8332,0.8712,0.9077,0.9056,0.91,0.907,0.9114,0.9217,0.9323,0.9225,0.9361,0.9708,1.0155,1.064,1.0944,1.0944,1.1335,1.1658,1.1608,1.2029,1.215,1.1706,1.2003,1.2305,1.2305,1.2305,1.2305,1.2305,1.2305,1.2305,1.2305,1.2526,1.2673,1.29,1.3119,1.3273,1.3492,1.3638,1.3938,1.4406,1.5057,1.5701,1.6338,1.6835,1.7157,2.0009,1.9617,1.9459,1.8834,1.8655,1.8589,1.8366,1.8357,1.8115,1.7146,0.0,0.0,1.5054,0.0,1.4082,1.3078,0.0,1.1603,1.1449,1.1078,1.0795,1.0651,1.07,1.0634,1.0358,1.0016,0.9712,0.944,0.9469,0.921,0.8618,0.8689,0.8764,0.8764,0.884,0.8844,0.8708,0.8566,0.8656,0.8756,0.8685,0.8685,0.8761,0.8613,0.8609,0.8761,0.0,0.0,0.9047,0.9047,0.9027,0.9003,0.9003,0.9084,0.9175,0.9024,0.955,1.01,0.9311,0.9484,0.9921,0.899,0.8726,0.8726,0.8726,0.8889,0.9014,0.9055,0.9165,0.9387,0.9381,0.9377,0.9438,0.9442,0.9485,0.9577,0.9609,0.976,1.0211,1.1073,1.1819,1.2305,1.2305,1.2305,1.2305,1.2305,1.2305,1.2305,1.2305,1.2305,1.2305,1.2305,1.2305,1.2305,1.2305,1.2372,1.2439,1.2505,1.2666,1.2893,1.3112,1.3236,1.3411,1.3558,1.3923,1.4406,1.5006,1.5657,1.6279,1.6956,1.7135,1.7267,2.1655,2.1416,2.0985,1.9998,1.9515,1.9204,1.8569,1.854,0.0,0.0,0.0,1.8381,1.6838,1.6861,0.0,1.3426,0.0,0.0,0.0,0.0,1.0895,0.0,0.0,0.0,0.0,0.0,0.0,0.0,0.0,1.0842,0.8174,0.8588,0.8862,0.8862,0.9504,0.9953,1.0136,0.9588,0.9769,1.0628,0.9976,0.9986,1.0657,1.0582,1.0582,1.0657,1.0657,0.0,1.0669,1.0669,1.0663,1.0657,1.0657,1.1073,1.1571,1.0929,1.119,1.1765,1.0962,1.0783,1.0628,0.921,0.8665,0.8665,0.8665,0.9145,0.9702,0.9734,1.0215,1.0755,1.0735,1.0877,1.1011,1.098,1.1292,1.1502,1.1546,1.1658,1.189,1.209,1.2238,1.2305,1.2305,1.2305,1.2305,1.2305,1.2305,1.2305,1.2305,1.2305,1.2305,1.2305,1.2305,1.2305,1.2305,1.2938,1.3353,1.3476,1.3665,1.3912,1.4057,1.3963,1.3894,1.3894,1.4479,1.4962,1.535,1.5979,1.6484,1.6857,1.6908,1.6938,2.247,2.2224,2.1966,2.1255,2.0939,2.0691,2.0037,0.0,0.0,0.0,0.0,1.9273,1.8602,0.0,0.0,0.0,0.0,0.0,0.0,0.0,0.0,0.0,0.0,0.0,0.0,0.0,0.0,0.0,0.0,1.2725,1.0341,1.0479,1.0685,1.0685,1.1041,1.1312,1.1438,1.1102,1.1327,1.2051,1.1623,1.1773,1.2358,1.2358,1.2358,1.2358,1.2358,0.0,1.2338,1.2338,1.2378,1.2364,1.2364,1.2614,1.2845,1.2517,1.2586,1.2872,1.2452,1.2364,1.2195,1.1446,1.0622,0.9969,0.9969,1.0215,1.0536,1.0536,1.0783,1.1111,1.1198,1.136,1.1428,1.1552,1.1787,1.2116,1.2654,1.2889,1.3058,1.3402,1.3483,1.3483,1.3483,1.3483,1.3483,1.3483,1.3483,1.3483,1.3483,1.3483,1.3321,1.2977,1.2896,1.3065,1.3483,1.3932,1.4244,1.4314,1.4617,1.4936,1.5259,1.5209,1.5383,1.5581,1.6023,1.646,1.6719,1.7282,1.7453,1.7313,1.7313,1.7037,2.342,2.3122,2.2895,2.2531,2.2347,2.2073,2.1495,2.1327,0.0,0.0,0.0,0.0,0.0,0.0,0.0,0.0,0.0,0.0,0.0,0.0,0.0,0.0,0.0,0.0,0.0,0.0,0.0,0.0,0.0,0.0,1.2717,1.2674,1.2674,1.2674,1.2674,1.2704,1.2846,1.2513,1.2616,1.3023,1.2958,1.3055,1.336,1.3433,1.3528,1.3513,1.3513,0.0,0.0,1.3477,1.347,1.3491,1.3491,1.3579,1.3704,1.3566,1.3584,1.3741,1.3572,1.3491,1.3491,1.3491,1.2628,1.1608,1.1608,1.1613,1.1678,1.1678,1.1681,1.1695,1.1695,1.1851,1.2061,1.2238,1.2432,1.2746,1.3557,1.3733,1.3908,1.4509,1.4598,1.4598,1.4598,1.4598,1.4598,1.4598,1.4598,1.4598,1.4598,1.4598,1.4429,1.4076,1.3827,1.3988,1.4517,1.4952,1.5266,1.533,1.57,1.613,1.656,1.659,1.6788,1.7115,1.7492,1.7869,1.8095,1.8415,1.8305,1.7674,1.7849,1.7281,2.5329,2.4838,2.4221,2.3741,2.3182,2.2592,2.2099,0.0,0.0,0.0,2.2172,2.208,0.0,0.0,0.0,0.0,0.0,0.0,0.0,0.0,0.0,0.0,0.0,0.0,0.0,0.0,0.0,0.0,0.0,0.0,1.3813,1.3752,1.3752,1.3752,1.3752,1.3996,1.4559,1.326,1.286,1.3416,1.3056,1.2938,1.2975,1.3331,1.3498,1.3512,1.3512,0.0,0.0,1.3469,1.3476,1.3491,1.3491,1.3907,1.4411,1.3767,1.3947,1.4411,1.3742,1.3491,1.3491,1.3491,1.3375,1.3294,1.3294,1.3324,1.3429,1.3429,1.3613,1.3561,1.2954,1.34,1.4096,1.4266,1.4325,1.4377,1.4471,1.453,1.4493,1.4579,1.4579,1.4579,1.4579,1.4579,1.4579,1.4579,1.4579,1.4579,1.4579,1.4579,1.4829,1.5513,1.4915,1.4493,1.4579,1.56,1.6383,1.6766,1.7189,1.7577,1.7968,1.7633,1.738,1.745,1.8075,1.8388,1.8458,1.8828,1.8518,1.7746,1.8194,1.7559,2.604,2.5755,2.5481,2.5301,2.4995,2.4644,2.4416,0.0,0.0,2.4438,2.364,2.2941,2.319,0.0,0.0,0.0,0.0,0.0,0.0,0.0,0.0,0.0,0.0,0.0,0.0,0.0,0.0,0.0,0.0,0.0,1.5918,1.5021,1.451,1.451,1.451,1.4602,1.4828,1.4266,1.4206,1.4718,1.4556,1.4624,1.4863,1.5308,1.5463,1.5515,1.5731,0.0,0.0,1.5739,1.5469,1.4931,1.5271,1.5367,1.528,1.5018,1.5105,1.528,1.5018,1.4852,1.4931,1.5026,1.5086,1.4913,1.389,1.3693,1.3715,1.3855,1.394,1.3984,1.3818,1.4126,1.4514,1.4593,1.4592,1.4709,1.5251,1.5345,1.5428,1.593,1.62,1.6374,1.6374,1.6549,1.6724,1.6724,1.6724,1.6724,1.6724,1.6821,1.6996,1.7348,1.6462,1.6035,1.6471,1.7436,1.8019,1.8174,1.8499,1.8805,1.9242,1.9033,1.9086,1.9382,1.9634,1.9724,1.9724,1.9864,1.9507,1.8698,1.8877,1.8482,2.682,2.6558,2.6347,2.6347,2.6187,2.6011,0.0,0.0,0.0,2.5894,2.4833,2.3974,2.48,2.4393,0.0,0.0,0.0,0.0,0.0,0.0,0.0,0.0,0.0,0.0,0.0,0.0,0.0,0.0,0.0,0.0,0.0,1.6461,1.569,1.5371,1.5362,1.5313,1.5137,1.5137,1.5212,1.5317,1.544,1.5656,1.5905,1.6524,1.6769,1.6798,0.0,0.0,0.0,1.7235,1.6987,1.6325,1.6669,1.6599,1.6325,1.6422,1.6422,1.6431,1.659,1.6599,1.6599,1.6776,1.6678,1.6316,1.5213,1.4763,1.4574,1.4702,1.4661,1.4653,1.4997,1.4997,1.4997,1.5247,1.5255,1.5428,1.6026,1.6209,1.6462,1.6996,1.7366,1.7684,1.7712,1.7977,1.8178,1.8178,1.826,1.8269,1.8269,1.837,1.8514,1.8457,1.7965,1.7694,1.8056,1.8711,1.9139,1.9215,1.9431,1.9733,2.0052,2.013,2.0246,2.0566,2.0566,2.0566,2.0566,2.0566,2.0139,1.9338,1.9703,1.9697,2.8076,2.7399,2.6678,2.6678,2.6453,2.6172,0.0,0.0,0.0,2.5673,2.5577,2.5522,2.5245,2.5203,2.5077,2.4754,2.4697,0.0,0.0,0.0,0.0,0.0,0.0,0.0,0.0,0.0,0.0,0.0,0.0,0.0,0.0,1.8135,1.7556,1.6431,1.6374,1.6144,1.5672,1.5672,1.5439,1.4902,1.5308,1.5496,1.5534,1.6383,1.6769,0.0,0.0,0.0,0.0,1.7373,1.7361,1.7385,1.7413,1.7407,1.7417,1.7854,1.7963,1.8043,1.8341,1.8431,1.8431,1.8431,1.7963,1.745,1.7609,1.7172,1.6558,1.6558,1.62,1.5939,1.6655,1.6296,1.5948,1.6724,1.6899,1.6899,1.6908,1.7181,1.7455,1.7455,1.7808,1.8071,1.8108,1.8268,1.8373,1.8373,1.8567,1.8673,1.8673,1.8673,1.8689,1.8725,1.9301,1.9406,1.8715,1.9099,1.9416,1.9646,2.0042,2.0353,2.0557,2.0566,2.0566,2.0566,2.0566,2.0566,2.0566,2.0566,2.0139,1.9329,2.0576,2.1163,2.895,2.8779,2.8481,2.8369,2.8176,2.7932,2.7565,0.0,0.0,0.0,2.6322,2.5673,2.6014,2.5673,2.5481,2.6062,2.5727,0.0,0.0,0.0,0.0,0.0,0.0,0.0,0.0,0.0,0.0,0.0,0.0,0.0,0.0,1.8898,1.8483,1.7611,1.7168,1.6888,1.6719,1.6353,1.6087,1.5904,1.6045,1.6266,1.6568,1.7161,0.0,0.0,0.0,0.0,0.0,1.8667,1.8504,1.786,1.8486,1.8449,1.8174,1.8311,1.8352,1.8375,1.8471,1.8481,1.8547,1.8654,1.8557,1.841,1.8537,1.7631,1.6636,1.6742,1.6655,1.6636,1.6821,1.6733,1.6636,1.6821,1.7093,1.7278,1.7278,1.7631,1.7882,1.7938,1.8352,1.8705,1.8716,1.9097,1.9441,1.9468,1.9459,1.9547,1.9547,1.9662,1.9818,1.9752,2.013,2.0042,1.9434,1.9849,2.0236,2.0333,2.045,2.0547,2.0566,2.0566,2.0566,2.0566,2.0566,2.0566,2.0566,2.0566,2.0566,2.0596,2.1656,2.1722,0.0,2.9701,2.9569,2.9406,2.9332,0.0,0.0,0.0,0.0,0.0,0.0,2.6983,2.7108,2.6872,2.6894,2.7425,2.71,0.0,0.0,0.0,0.0,0.0,0.0,0.0,0.0,0.0,0.0,0.0,0.0,0.0,0.0,1.9927,1.9579,1.8898,1.8027,1.7534,1.7534,1.7234,1.7119,1.7348,1.7073,1.7191,1.7645,1.7853,0.0,0.0,0.0,0.0,0.0,1.9498,1.9406,1.8846,1.9404,1.94,1.9121,1.9267,1.9308,1.9338,1.9456,1.953,1.9541,1.9637,1.9673,1.9552,1.9332,1.8468,1.7533,1.7631,1.7533,1.7357,1.7631,1.7631,1.7631,1.7906,1.8369,1.8734,1.872,1.8864,1.9077,1.9409,1.9613,1.9888,2.0194,2.0605,2.0948,2.0898,2.0976,2.1073,2.1073,2.1191,2.1298,2.1298,2.1171,2.0878,2.0547,2.0557,2.0566,2.0566,2.0566,2.0566,2.0566,2.0566,2.0566,2.0566,2.0566,2.0664,2.0858,2.0976,2.1313,2.1673,2.2312,2.2446,0.0,3.0318,3.0005,2.9946,2.9892,2.9837,0.0,0.0,0.0,0.0,0.0,2.9011,2.8304,2.8606,2.8889,2.8779,2.8654,0.0,0.0,0.0,0.0,0.0,0.0,0.0,0.0,0.0,0.0,0.0,0.0,0.0,0.0,2.114,2.0795,2.0271,1.8951,1.8255,1.8201,1.8182,1.8435,1.8884,1.8302,1.8357,1.8852,1.8594,0.0,0.0,0.0,0.0,0.0,2.0028,2.0126,2.0105,2.0172,2.0169,2.0195,2.0549,2.0692,2.076,2.114,2.1261,2.1337,2.1337,2.1194,2.0877,2.0228,1.9576,1.9091,1.9091,1.8626,1.835,1.8983,1.8963,1.9022,1.9712,2.0418,2.0892,2.0867,2.0703,2.083,2.156,2.148,2.1449,2.2159,2.252,2.264,2.264,2.2857,2.2977,2.2977,2.2977,2.2977,2.2977,2.2324,2.1902,2.1855,2.1063,2.0566,2.0566,2.0566,2.0566,2.0566,2.0566,2.0586,2.0644,2.0654,2.0889,2.1262,2.1774,2.2199,2.2553,2.2804,2.3144,3.1504,0.0,3.0861,3.0625,3.0502,3.0318,0.0,0.0,0.0,0.0,0.0,2.9255,2.9011,2.9057,2.918,2.9348,0.0,0.0,0.0,0.0,0.0,0.0,0.0,0.0,0.0,0.0,0.0,0.0,0.0,0.0,0.0,2.1417,2.1091,2.0993,2.0144,1.9488,1.8963,1.8901,1.8867,1.8911,1.9321,1.9746,2.0216,1.9929,0.0,0.0,0.0,0.0,2.0009,2.0333,2.0504,2.0504,2.0816,2.0933,2.0951,2.1037,2.1255,2.161,2.1699,2.2002,2.2329,2.2329,2.2353,2.2207,2.2105,2.1155,2.015,2.015,2.0041,1.9976,2.0123,2.0253,2.0336,2.055,2.1009,2.1456,2.149,2.1731,2.1945,2.2139,2.2242,2.2328,2.2484,2.2767,2.2895,2.2895,2.2989,2.3,2.3,2.3,2.3,2.3,2.28,2.2703,2.2713,2.1425,2.0566,2.0566,2.0566,2.0566,2.0566,2.0566,2.0761,2.1029,2.1452,2.1661,2.175,2.2327,2.2693,2.2853,2.3329,2.362,3.1929,3.1671,3.1368,3.1218,3.1044,3.0868,0.0,0.0,0.0,0.0,0.0,0.0,2.9913,0.0,0.0,0.0,0.0,0.0,0.0,0.0,0.0,0.0,0.0,0.0,0.0,0.0,0.0,0.0,0.0,0.0,0.0,2.217,2.1882,2.1622,2.1322,2.0822,2.0103,2.0064,2.0249,2.0693,2.0795,2.1064,2.1584,2.1093,2.1009,0.0,0.0,0.0,2.0711,2.1307,2.1572,2.1608,2.1847,2.2045,2.2224,2.1974,2.2053,2.2298,2.2268,2.2441,2.2697,2.2697,2.2857,2.3029,2.316,2.274,2.2229,2.1789,2.1487,2.1351,2.1717,2.1796,2.1845,2.2171,2.28,2.3281,2.3265,2.3208,2.3247,2.362,2.3458,2.3429,2.3768,2.3967,2.4073,2.4073,2.4073,2.4073,2.4073,2.4073,2.4073,2.4073,2.3745,2.3492,2.3486,2.2435,2.1638,2.1161,2.1171,2.1053,2.0722,2.0948,2.1271,2.186,2.2251,2.2537,2.2456,2.3063,2.3335,2.3285,2.3734,2.4003,3.2214,3.2002,3.1804,3.1711,3.1562,3.1449,0.0,0.0,0.0,0.0,0.0,0.0,0.0,0.0,0.0,0.0,0.0,0.0,0.0,0.0,0.0,0.0,0.0,0.0,0.0,0.0,0.0,0.0,0.0,0.0,0.0,2.3317,2.3043,2.2521,2.2448,2.2177,2.1678,2.1509,2.1851,2.2799,2.236,2.2331,2.277,2.2189,2.188,0.0,0.0,0.0,2.1635,2.2395,2.2821,2.2929,2.2929,2.3155,2.3403,2.2995,2.284,2.2823,2.2977,2.2943,2.2981,2.2981,2.3292,2.3628,2.3816,2.4178,2.4385,2.3561,2.2988,2.2755,2.3398,2.3398,2.3376,2.4025,2.4649,2.5098,2.5098,2.4649,2.4508,2.5193,2.4755,2.4519,2.5193,2.5312,2.5312,2.5312,2.5312,2.5312,2.5312,2.5312,2.5312,2.5312,2.4732,2.4354,2.4357,2.3861,2.3261,2.2436,2.2237,2.1953,2.1366,2.1789,2.223,2.2644,2.3079,2.3261,2.3271,2.3705,2.3877,2.3872,2.4104,2.4211,3.2603,3.2681,3.2695,3.23,3.2144,3.2073,0.0,0.0,0.0,0.0,0.0,0.0,0.0,0.0,0.0,0.0,0.0,0.0,0.0,0.0,0.0,0.0,0.0,0.0,0.0,0.0,0.0,0.0,0.0,0.0,0.0,2.5188,2.4656,2.4489,2.354,2.3478,2.4385,2.3285,2.2735,2.2779,2.3347,2.3605,2.3664,2.328,2.3124,0.0,0.0,2.2499,2.2469,2.3121,2.3354,2.3462,2.3928,2.3886,2.3482,2.3423,2.3314,2.3408,2.4008,2.4218,2.4244,2.4387,2.4565,2.4601,2.4601,2.4779,2.4957,2.4826,2.4625,2.446,2.4567,2.4685,2.4791,2.4885,2.5087,2.53,2.53,2.5193,2.5181,2.53,2.5205,2.5181,2.53,2.5312,2.5312,2.5312,2.5312,2.5312,2.5312,2.5312,2.5312,2.5312,2.5346,2.5346,2.5407,2.5441,2.5338,2.4946,2.4273,2.3766,2.3451,2.3847,2.3732,2.3096,2.3509,2.372,2.372,2.3983,2.411,2.4176,2.4358,2.4444,3.3032,3.2996,3.3009,3.2965,3.2731,0.0,0.0,0.0,0.0,0.0,0.0,0.0,0.0,0.0,0.0,0.0,0.0,0.0,0.0,0.0,0.0,0.0,0.0,0.0,0.0,0.0,0.0,0.0,0.0,0.0,0.0,0.0,2.5561,2.5511,2.4979,2.4921,2.546,2.4531,2.4025,2.3993,2.4021,2.4021,2.4015,2.3833,2.3794,2.3735,0.0,2.3458,2.3502,2.405,2.4594,2.5179,2.5382,2.5398,2.5167,2.4453,2.4214,2.4176,2.4564,2.4646,2.4646,2.479,2.479,2.479,2.4921,2.5052,2.5111,2.5182,2.5134,2.5075,2.5075,2.511,2.5205,2.5205,2.5288,2.5312,2.5312,2.5312,2.5312,2.5312,2.5312,2.5312,2.5312,2.5312,2.5312,2.5312,2.5636,2.5888,2.5888,2.6274,2.6517,2.6517,2.6602,2.6602,2.6602,2.683,2.6505,2.5557,2.513,2.5047,2.517,2.5392,2.5473,2.5337,2.5051,2.4914,2.4914,2.4529,2.4368,2.4368,2.4454,2.454,3.3437,3.3354,3.3335,3.3597,0.0,0.0,0.0,0.0,0.0,0.0,0.0,0.0,0.0,0.0,0.0,0.0,0.0,0.0,0.0,0.0,0.0,0.0,0.0,0.0,0.0,0.0,0.0,0.0,0.0,0.0,0.0,0.0,2.6617,2.6462,2.6288,2.6242,2.6365,2.564,2.519,2.5118,2.4469,2.4203,2.4287,2.4287,2.4287,2.4287,2.4477,2.4543,2.4632,2.5358,2.6113,2.6776,2.6856,2.6907,2.6799,2.5734,2.5324,2.5253,2.5123,2.5123,2.5064,2.4921,2.4921,2.4921,2.5123,2.5182,2.5182,2.5241,2.5312,2.5312,2.5312,2.5312,2.5312,2.5312,2.5312,2.5312,2.5312,2.5312,2.5312,2.5312,2.5312,2.5312,2.5382,2.5479,2.5563,2.5646,2.6238,2.6651,2.6651,2.7152,2.7471,2.7471,2.7545,2.7619,2.7631,2.7903,2.757,2.6392,2.6299,2.6438,2.6724,2.6906,2.7001,2.7058,2.64,2.5986,2.5819,2.5105,2.47,2.454,2.454,2.454,3.3868,3.3979,3.4105,0.0,0.0,0.0,0.0,0.0,0.0,0.0,0.0,0.0,0.0,0.0,0.0,0.0,0.0,0.0,0.0,0.0,0.0,0.0,0.0,0.0,0.0,0.0,0.0,0.0,0.0,0.0,0.0,0.0,0.0,2.7856,2.7318,2.7276,2.7855,2.6663,2.5847,2.5356,2.477,2.461,2.4948,2.4948,2.4948,2.4989,2.553,2.5788,2.5851,2.702,2.7583,2.7656,2.8224,2.813,2.7537,2.6963,2.6748,2.6693,2.6171,2.5988,2.5918,2.5441,2.5241,2.5241,2.5312,2.5312,2.5312,2.5312,2.5312,2.5312,2.5312,2.5312,2.5312,2.5312,2.5312,2.5312,2.5312,2.5312,2.5312,2.5312,2.5312,2.5382,2.5535,2.6019,2.6347,2.6576,2.709,2.741,2.741,2.7447,2.7471,2.7471,2.7705,2.7865,2.8024,2.8499,2.8775,2.865,2.8687,2.8568,2.8299,2.8323,2.7936,2.7151,2.7069,2.6565,2.5819,2.5746,2.5263,2.454,2.454,2.454,3.4099,3.4148,0.0,0.0,0.0,0.0,0.0,0.0,0.0,0.0,0.0,0.0,0.0,0.0,0.0,0.0,0.0,0.0,0.0,0.0,0.0,0.0,0.0,0.0,0.0,0.0,0.0,0.0,0.0,0.0,0.0,0.0,0.0,2.7026,2.7091,2.727,2.7527,2.7018,2.6768,2.6791,2.5943,2.5481,2.5356,2.5356,2.5258,2.5032,2.5629,2.609,2.6497,2.7387,2.807,2.8565,2.8579,2.839,2.8103,2.7511,2.7245,2.7258,2.7069,2.7002,2.6934,2.6731,2.6333,2.607,2.6526,2.6389,2.6102,2.6183,2.6252,2.6114,2.5441,2.5312,2.5312,2.5312,2.5382,2.5465,2.5465,2.5606,2.5676,2.5676,2.5956,2.6176,2.6259,2.676,2.7103,2.7189,2.7804,2.8238,2.8238,2.8623,2.8911,2.8911,2.8987,2.9075,2.9151,2.9352,2.9465,2.9465,2.9465,2.9399,2.9287,2.93,2.9131,2.8803,2.8223,2.7799,2.7476,2.6894,2.6163,2.5348,2.5348,2.502,3.4316,3.4363,0.0,0.0,0.0,0.0,0.0,0.0,0.0,0.0,0.0,0.0,0.0,0.0,0.0,0.0,0.0,0.0,0.0,0.0,0.0,0.0,0.0,0.0,0.0,0.0,0.0,0.0,0.0,0.0,0.0,0.0,0.0,0.0,2.6947,2.7088,2.7057,2.6998,2.7079,2.7206,2.676,2.6318,2.5892,2.5892,2.5744,2.5601,2.6219,2.6809,2.7473,2.8078,2.8712,2.9226,2.898,2.8839,2.8776,2.8338,2.8208,2.8195,2.7999,2.7934,2.792,2.7736,2.7338,2.7002,2.7471,2.7391,2.6976,2.6799,2.6799,2.6663,2.5721,2.5453,2.5453,2.5453,2.5606,2.5688,2.5688,2.5828,2.5959,2.6131,2.6463,2.6771,2.7003,2.7545,2.7891,2.7965,2.8612,2.9062,2.9062,2.9476,2.9792,2.9792,2.9792,2.9792,2.9792,2.9792,2.9792,2.9792,2.9792,2.9792,2.9792,2.9792,2.9792,2.9792,2.9209,2.8791,2.8462,2.7891,2.7069,2.6235,2.6235,2.5746,3.4602,3.4691,0.0,0.0,0.0,0.0,0.0,0.0,0.0,0.0,0.0,0.0,0.0,0.0,0.0,0.0,0.0,0.0,0.0,0.0,0.0,0.0,0.0,0.0,0.0,0.0,0.0,0.0,0.0,0.0,0.0,0.0,0.0,0.0,2.6993,2.6922,2.6691,2.6691,2.6603,2.6395,2.7072,2.7063,2.6496,2.651,2.6654,2.6835,2.7495,2.8127,2.8731,2.935,2.9602,2.9602,2.9602,2.9602,2.9602,2.9602,2.9713,2.9685,2.9044,2.8903,2.8876,2.8247,2.7986,2.7986,2.8051,2.8051,2.7855,2.7124,2.6921,2.6731,2.6094,2.591,2.591,2.591,2.591,2.591,2.591,2.591,2.607,2.6611,2.6721,2.6966,2.7704,2.8338,2.8724,2.8863,2.9428,2.9792,2.9792,2.9792,2.9792,2.9792,2.9792,2.9792,2.9792,2.9792,2.9792,2.9792,2.9792,2.9792,2.9792,2.9792,2.9792,2.9792,2.9792,2.9378,2.8542,2.8542,2.8051,2.7151,2.7151,2.6648,3.4711,0.0,0.0,0.0,0.0,0.0,0.0,0.0,0.0,0.0,0.0,0.0,0.0,0.0,0.0,0.0,0.0,0.0,0.0,0.0,0.0,0.0,0.0,0.0,0.0,0.0,0.0,0.0,0.0,0.0,0.0,0.0,0.0,0.0,2.6229,2.6443,2.6199,2.6686,2.6879,2.6835,2.7039,2.7072,2.6939,2.7405,2.7771,2.8003,2.8332,2.8713,2.9197,2.9567,2.9837,2.9927,2.9927,2.9927,2.9927,2.9927,2.9988,2.9974,2.9789,2.9713,2.9761,2.9512,2.9107,2.8826,2.931,2.9233,2.8776,2.8078,2.792,2.7789,2.6645,2.6327,2.6258,2.598,2.5992,2.6131,2.6131,2.6499,2.6939,2.7114,2.7763,2.835,2.85,2.9075,2.9464,2.9541,2.9679,2.9792,2.9792,2.9792,2.9792,2.9792,2.9792,2.9792,2.9792,2.9792,2.9792,2.9792,2.9792,2.9792,2.9792,2.9792,2.9792,2.9792,2.9792,2.9779,2.9599,2.9443,2.904,2.8303,2.8303,2.781,3.4889,0.0,0.0,0.0,0.0,0.0,0.0,0.0,0.0,0.0,0.0,0.0,0.0,0.0,0.0,0.0,0.0,0.0,0.0,0.0,0.0,0.0,0.0,0.0,0.0,0.0,0.0,0.0,0.0,0.0,0.0,0.0,0.0,0.0,2.5994,2.6066,2.5719,2.6132,2.6297,2.623,2.6498,2.68,2.7252,2.7936,2.853,2.9094,2.9463,2.9653,2.9674,2.9864,2.9974,3.0111,3.0111,3.0111,3.0111,3.0111,3.0111,3.0158,3.0158,3.0219,3.028,3.028,3.0007,2.9732,3.0144,3.0083,2.9623,2.8661,2.8441,2.8182,2.685,2.6533,2.6465,2.6188,2.642,2.6664,2.6664,2.716,2.767,2.7896,2.8473,2.9001,2.9239,2.9566,2.9792,2.9792,2.9792,2.9792,2.9792,2.9792,2.9869,2.9934,2.9934,2.9934,3.0011,3.0011,3.0011,3.0011,3.0011,3.0011,3.0011,2.9934,2.9934,2.9934,3.0011,3.0075,3.0228,3.0075,2.9844,2.9419,2.9419,2.8937,0.0,0.0,0.0,0.0,0.0,0.0,0.0,0.0,0.0,0.0,0.0,0.0,0.0,0.0,0.0,0.0,0.0,0.0,0.0,0.0,0.0,0.0,0.0,0.0,0.0,0.0,0.0,0.0,0.0,0.0,0.0,0.0,0.0,2.6229,2.612,2.5828,2.5371,2.5371,2.5256,0.0,2.5679,2.6459,2.7448,2.8215,2.9138,3.0054,3.0768,3.0703,3.0111,3.0111,3.0111,3.0172,3.0172,3.0172,3.0172,3.0172,3.0219,3.0312,3.0312,3.0447,3.0568,3.0568,3.0568,3.0568,3.0568,3.0568,3.0312,2.9016,2.8556,2.826,2.7037,2.6734,2.6746,2.6797,2.7024,2.7293,2.7344,2.7795,2.8335,2.8837,2.8976,2.9176,2.9704,2.9869,2.9869,2.9869,2.9869,2.9869,2.9869,2.9869,2.9934,3.0075,3.0152,3.0228,3.0368,3.0368,3.0368,3.0368,3.0368,3.0368,3.0368,3.0228,3.0152,3.0152,3.0292,3.0444,3.0444,3.0444,3.0444,3.0444,3.0444,2.996,0.0,0.0,0.0,0.0,0.0,0.0,0.0,0.0,0.0,0.0,0.0,0.0,0.0,0.0,0.0,0.0,0.0,0.0,0.0,0.0,0.0,0.0,0.0,0.0,0.0,0.0,0.0,0.0,0.0,0.0,0.0,0.0,0.0,2.6367,2.6539,2.6349,2.5787,2.577,2.5696,0.0,2.5713,2.6419,2.7671,2.877,2.9828,3.0799,3.1317,3.1058,3.0266,3.0266,3.0326,3.0522,3.0522,3.0522,3.0522,3.0522,3.0507,3.0507,3.0507,3.0568,3.0568,3.0568,3.0568,3.0568,3.0568,3.0568,3.0447,2.9732,2.917,2.8706,2.8464,2.8449,2.8567,2.8878,2.8132,2.7406,2.7833,2.836,2.8787,2.89,2.9289,2.9718,2.9985,3.0011,3.0011,3.0011,3.0011,3.0011,3.0011,3.0152,3.0292,3.0292,3.0368,3.0368,3.0368,3.0368,3.0368,3.0368,3.0368,3.0368,3.0368,3.0368,3.0368,3.0368,3.0368,3.0444,3.0622,3.0444,3.0444,3.0622,3.0622,3.0533,0.0,0.0,0.0,0.0,0.0,0.0,0.0,0.0,0.0,0.0,0.0,0.0,0.0,0.0,0.0,0.0,0.0,0.0,0.0,0.0,0.0,0.0,0.0,0.0,0.0,0.0,0.0,0.0,0.0,0.0,0.0,2.7876,2.7535,2.6757,2.6757,2.6521,2.5897,2.5897,2.5844,2.5791,2.615,2.7401,2.9447,3.0287,3.1229,3.2157,3.2423,3.2084,3.1319,3.1058,3.0999,3.1073,3.0807,3.0762,3.0821,3.0821,3.0821,3.0821,3.0821,3.0821,3.0821,3.0821,3.0821,3.0821,3.0821,3.0821,3.076,3.0473,3.0094,2.9853,2.9873,2.9956,3.0106,3.0568,2.9804,2.899,2.9143,2.9448,2.9618,2.9618,2.9872,3.0152,3.0228,3.0228,3.0228,3.0228,3.0228,3.0228,3.0228,3.0368,3.0444,3.0533,3.0533,3.0609,3.0672,3.0672,3.0672,3.0672,3.0672,3.0672,3.0672,3.0672,3.0609,3.0533,3.0609,3.0761,3.0849,3.0761,3.0748,3.0849,3.0849,3.0849,0.0,0.0,0.0,0.0,0.0,0.0,0.0,0.0,0.0,0.0,0.0,0.0,0.0,0.0,0.0,0.0,0.0,0.0,0.0,0.0,0.0,0.0,0.0,0.0,0.0,0.0,0.0,0.0,0.0,0.0,2.8398,2.8237,2.7829,2.7172,2.7002,2.6607,2.6007,2.599,2.5954,2.595,2.6787,2.8551,3.1122,3.1762,3.2595,3.3443,3.3443,3.3061,3.2376,3.189,3.1694,3.1537,3.1043,3.0955,3.1087,3.1087,3.1087,3.1087,3.1087,3.1087,3.1087,3.1087,3.1087,3.1102,3.1205,3.125,3.1308,3.1406,3.13,3.1254,3.1411,3.1433,3.1587,3.2067,3.1736,3.1199,3.0724,3.0459,3.0368,3.0368,3.0444,3.0444,3.0444,3.0444,3.0444,3.0444,3.0444,3.0444,3.0444,3.0444,3.0596,3.0698,3.0773,3.0849,3.0986,3.0986,3.0986,3.0986,3.0986,3.0986,3.0986,3.0986,3.0911,3.0773,3.0911,3.0986,3.0986,3.0986,3.0986,3.0986,3.0986,3.1039,0.0,0.0,0.0,0.0,0.0,0.0,0.0,0.0,0.0,0.0,0.0,0.0,0.0,0.0,0.0,0.0,0.0,0.0,0.0,0.0,0.0,0.0,0.0,0.0,0.0,0.0,0.0,0.0,0.0,0.0,2.8424,2.8353,2.8045,2.7378,2.7317,2.7036,2.6415,2.6312,2.6206,2.6184,2.7317,2.8731,3.0385,3.1761,3.2789,3.3582,3.3582,3.2955,3.1987,3.189,3.158,3.119,3.1073,3.1087,3.1087,3.1087,3.1087,3.1087,3.1087,3.1087,3.1087,3.1087,3.1087,3.1191,3.1707,3.1869,3.2016,3.2756,3.2591,3.2277,3.2912,3.3136,3.3295,3.3715,3.379,3.335,3.1748,3.082,3.0368,3.0368,3.0533,3.0698,3.0698,3.0698,3.0698,3.0698,3.0698,3.0698,3.0698,3.0836,3.0911,3.0986,3.0986,3.0986,3.0986,3.0986,3.0986,3.0986,3.0986,3.0986,3.0986,3.0986,3.0986,3.0986,3.0986,3.0986,3.0986,3.0986,3.0986,3.0986,3.0986,3.1248,0.0,0.0,0.0,0.0,0.0,0.0,0.0,0.0,0.0,0.0,0.0,0.0,0.0,0.0,0.0,0.0,0.0,0.0,0.0,0.0,0.0,0.0,0.0,0.0,0.0,0.0,0.0,0.0,0.0,2.8637,2.8587,2.851,2.8138,2.7482,2.7409,2.71,2.6485,2.6434,2.6816,2.7614,2.855,2.9772,3.1231,3.2309,3.3093,3.3616,3.4023,3.3783,3.3002,3.2664,3.2201,3.1697,3.1351,3.1249,3.1307,3.1307,3.1307,3.1307,3.1307,3.1307,3.1367,3.1738,3.1857,3.2035,3.2675,3.2868,3.3002,3.3749,3.3787,3.3667,3.441,3.4587,3.4661,3.4861,3.4624,3.4095,3.3255,3.2492,3.1869,3.1442,3.1455,3.132,3.0911,3.0836,3.0836,3.0836,3.0836,3.0836,3.0836,3.0911,3.0986,3.0986,3.0986,3.0986,3.0986,3.0986,3.0986,3.0986,3.0986,3.0986,3.0986,3.0986,3.0986,3.0986,3.0986,3.0986,3.0986,3.0986,3.0986,3.0999,3.1313,3.1601,0.0,0.0,0.0,0.0,0.0,0.0,0.0,0.0,0.0,0.0,0.0,0.0,0.0,0.0,0.0,0.0,0.0,0.0,0.0,0.0,0.0,0.0,0.0,0.0,0.0,0.0,0.0,0.0,0.0,2.8986,2.8737,2.8569,2.8192,2.7601,2.7439,2.71,2.6572,2.6739,2.7442,2.8695,2.9448,3.047,3.1725,3.2679,3.3251,3.3528,3.4391,3.4497,3.3933,3.3319,3.2734,3.2231,3.164,3.1467,3.1539,3.1539,3.1597,3.1554,3.1719,3.1779,3.1884,3.2542,3.2766,3.2886,3.3544,3.3739,3.3888,3.4547,3.479,3.491,3.537,3.5504,3.5554,3.5504,3.5052,3.4476,3.4109,3.3561,3.3003,3.2218,3.2074,3.1882,3.1123,3.0986,3.0986,3.0986,3.0986,3.0986,3.0986,3.0986,3.0986,3.0986,3.0986,3.0986,3.0986,3.0986,3.0986,3.0986,3.0986,3.0986,3.0986,3.0986,3.0986,3.0986,3.0986,3.0986,3.0986,3.0986,3.0986,3.0999,3.1575,3.1914,0.0,0.0,0.0,0.0,0.0,0.0,0.0,0.0,0.0,0.0,0.0,0.0,0.0,0.0,0.0,0.0,0.0,0.0,0.0,0.0,0.0,0.0,0.0,0.0,0.0,0.0,0.0,0.0,0.0,2.9734,2.8822,2.8543,2.8219,2.7811,2.747,2.7115,2.6691,2.7314,2.8,2.8695,2.9448,3.0202,3.1029,3.2428,3.3131,3.3205,3.4518,3.4723,3.4136,3.3443,3.2949,3.2547,3.1981,3.167,3.1539,3.1727,3.1784,3.1817,3.2317,3.2511,3.272,3.3276,3.344,3.3559,3.4218,3.4427,3.4562,3.525,3.5544,3.5593,3.5554,3.5589,3.5638,3.5554,3.5439,3.5001,3.3575,3.3213,3.3003,3.2218,3.2074,3.1882,3.1123,3.0986,3.0986,3.0986,3.0986,3.0986,3.0986,3.0986,3.0986,3.0986,3.0986,3.0986,3.0986,3.0986,3.0986,3.0986,3.0986,3.0986,3.0986,3.0986,3.0986,3.0986,3.0986,3.0986,3.0986,3.0986,3.0986,3.0999,3.1575,3.2136,0.0,0.0,0.0,0.0,0.0,0.0,0.0,0.0,0.0,0.0,0.0,0.0,0.0,0.0,0.0,0.0,0.0,0.0,0.0,0.0,0.0,0.0,0.0,0.0,0.0,0.0,0.0,0.0,0.0,0.0,2.9752,2.9557,2.9083,2.8156,2.7851,2.7639,2.7538,2.825,2.8958,2.9606,3.033,3.0819,3.1122,3.2622,3.3253,3.3235,3.47,3.4977,3.4268,3.37,3.3198,3.2695,3.215,3.1883,3.1826,3.1883,3.2213,3.2622,3.2791,3.3138,3.3667,3.4273,3.4438,3.4559,3.5286,3.5483,3.5543,3.5721,3.5846,3.5894,3.5861,3.5846,3.5894,3.5861,3.5797,3.5653,3.5154,3.4447,3.3699,3.2932,3.2791,3.2448,3.1198,3.0986,3.0986,3.0986,3.0986,3.0986,3.0986,3.0986,3.0986,3.0986,3.0986,3.0986,3.0986,3.0986,3.0986,3.0986,3.0986,3.1123,3.1347,3.1123,3.1123,3.1421,3.1421,3.1272,3.0986,3.0986,3.1169,3.1548,3.2123,3.2698,0.0,0.0,0.0,0.0,0.0,0.0,0.0,0.0,0.0,0.0,0.0,0.0,0.0,0.0,0.0,0.0,0.0,0.0,0.0,0.0,0.0,0.0,0.0,0.0,0.0,0.0,0.0,0.0,0.0,0.0,3.0722,3.0528,2.9875,2.854,2.824,2.8101,2.8032,2.9019,2.9748,3.0221,3.0968,3.1308,3.1359,3.2853,3.3431,3.3474,3.4996,3.535,3.469,3.4119,3.37,3.3339,3.2602,3.2302,3.2262,3.2353,3.2646,3.3102,3.3558,3.3999,3.4486,3.5155,3.5321,3.5396,3.5837,3.5973,3.5973,3.5973,3.6037,3.6037,3.6037,3.5973,3.5973,3.5973,3.5973,3.5973,3.5973,3.5415,3.4595,3.3713,3.3506,3.3017,3.1629,3.1347,3.1347,3.1347,3.1347,3.1347,3.1347,3.1347,3.1347,3.1347,3.1347,3.1347,3.1347,3.1347,3.1347,3.1347,3.1347,3.1482,3.1776,3.1482,3.1482,3.1776,3.1978,3.1937,3.1713,3.1439,3.1563,3.2003,3.2581,3.3357,0.0,0.0,0.0,0.0,0.0,0.0,0.0,0.0,0.0,0.0,0.0,0.0,0.0,0.0,0.0,0.0,0.0,0.0,0.0,0.0,0.0,0.0,0.0,0.0,0.0,0.0,0.0,0.0,0.0,3.2562,3.1676,3.1366,3.0523,2.8999,2.8753,2.8501,2.8169,2.9638,3.0426,3.0424,3.1158,3.1517,3.1568,3.3037,3.3704,3.3789,3.5309,3.5817,3.5446,3.469,3.4512,3.4479,3.3443,3.2949,3.2843,3.3111,3.3215,3.3444,3.4577,3.5095,3.534,3.5824,3.6037,3.6037,3.6037,3.6037,3.6037,3.6037,3.6085,3.6211,3.6037,3.6037,3.6037,3.6037,3.5973,3.5973,3.5973,3.5973,3.5638,3.4341,3.407,3.3659,3.2345,3.2128,3.2128,3.2128,3.2128,3.2128,3.2128,3.2128,3.2128,3.2128,3.2128,3.2128,3.2128,3.2128,3.2128,3.2128,3.2128,3.2128,3.2155,3.2155,3.2169,3.2182,3.2779,3.3166,3.3166,3.2481,3.2273,3.2488,3.3114,3.3993,3.5028,0.0,0.0,0.0,0.0,0.0,3.5875,3.5904,0.0,0.0,0.0,0.0,0.0,0.0,0.0,0.0,0.0,0.0,0.0,0.0,0.0,0.0,0.0,0.0,0.0,0.0,0.0,0.0,3.3999,3.3557,3.2599,3.1869,3.1086,3.0154,3.0066,2.998,2.9848,3.0276,3.072,3.121,3.1414,3.1517,3.1568,3.3037,3.3704,3.3789,3.5309,3.5949,3.5817,3.5115,3.4816,3.4673,3.3969,3.3762,3.381,3.3905,3.4302,3.4908,3.5232,3.5738,3.6168,3.6305,3.6367,3.6367,3.6367,3.6367,3.6367,3.6367,3.6367,3.6429,3.6367,3.6367,3.6367,3.6367,3.61,3.5752,3.5752,3.5494,3.5023,3.4206,3.3811,3.3185,3.2273,3.2128,3.2128,3.2128,3.2128,3.2128,3.2128,3.2128,3.2128,3.2128,3.2128,3.2128,3.2128,3.2128,3.2128,3.2128,3.2128,3.2391,3.3179,3.2941,3.3159,3.3881,3.4059,3.4156,3.4156,3.3676,3.3756,3.4184,3.4792,3.5251,0.0,0.0,0.0,0.0,0.0,0.0,3.576,3.5833,3.5899,0.0,0.0,0.0,0.0,0.0,0.0,0.0,0.0,0.0,0.0,0.0,0.0,0.0,0.0,0.0,0.0,0.0,0.0,3.5019,3.4682,3.4203,3.3576,3.2659,3.1887,3.1297,3.1211,3.1036,3.0663,3.1062,3.1388,3.1631,3.1726,3.1688,3.1682,3.3174,3.3859,3.3928,3.5479,3.6105,3.6062,3.565,3.5407,3.5253,3.4704,3.4642,3.4844,3.4883,3.5241,3.5687,3.5997,3.6353,3.6693,3.6554,3.6616,3.6677,3.6554,3.6492,3.6492,3.6492,3.6492,3.6492,3.6492,3.6492,3.6492,3.6492,3.6289,3.5958,3.5752,3.5285,3.4743,3.4206,3.3879,3.3395,3.2717,3.2574,3.2574,3.2574,3.2574,3.2574,3.2574,3.2574,3.2574,3.2574,3.2574,3.2574,3.2574,3.2808,3.2959,3.2959,3.3266,3.3629,3.4269,3.409,3.427,3.4841,3.5105,3.5356,3.5607,3.4865,3.4706,3.5155,3.5518,3.5804,0.0,0.0,0.0,0.0,0.0,0.0,3.5621,3.5757,3.5872,0.0,0.0,0.0,0.0,0.0,0.0,0.0,0.0,0.0,0.0,0.0,0.0,0.0,0.0,0.0,0.0,3.6706,3.605,3.5829,3.5055,3.4539,3.4404,3.3533,3.2859,3.2365,3.2224,3.1852,3.113,3.1933,3.2179,3.1893,3.2037,3.2037,3.1925,3.3425,3.4116,3.4202,3.5663,3.6276,3.6208,3.6208,3.6122,3.5975,3.5481,3.5504,3.5826,3.593,3.6031,3.6185,3.6841,3.706,3.6999,3.6677,3.68,3.6999,3.6677,3.6616,3.6616,3.6554,3.6554,3.6554,3.6492,3.6492,3.6492,3.6492,3.6429,3.6289,3.5752,3.5219,3.4677,3.4153,3.4016,3.3894,3.3382,3.3326,3.3326,3.3326,3.3326,3.3326,3.3326,3.3326,3.3326,3.3326,3.3382,3.3424,3.3424,3.3986,3.4337,3.4337,3.4857,3.5254,3.5325,3.5325,3.5367,3.5437,3.5897,3.6431,3.6978,3.5883,3.5479,3.5562,3.5785,3.6045,0.0,0.0,0.0,0.0,0.0,0.0,3.5631,3.5713,3.5767,0.0,0.0,0.0,0.0,0.0,0.0,0.0,0.0,0.0,0.0,0.0,0.0,0.0,0.0,0.0,0.0,3.7717,3.6799,3.6012,3.5117,3.4539,3.4404,3.4213,3.3864,3.3332,3.3305,3.306,3.259,3.2595,3.2603,3.2504,3.2352,3.2249,3.2232,3.3621,3.4258,3.4345,3.5711,3.6301,3.6259,3.6259,3.6191,3.5975,3.5871,3.6105,3.6516,3.6544,3.6764,3.7125,3.7251,3.7314,3.7314,3.7254,3.7238,3.7314,3.7238,3.7238,3.7194,3.6984,3.6877,3.6816,3.6554,3.6492,3.6492,3.6492,3.6148,3.5688,3.5139,3.461,3.4085,3.3577,3.3437,3.3452,3.3326,3.3326,3.3326,3.3326,3.3326,3.3326,3.3326,3.3326,3.3326,3.3326,3.3761,3.4056,3.4056,3.4618,3.4969,3.4969,3.5156,3.5451,3.5869,3.5883,3.6121,3.6613,3.674,3.6866,3.6978,3.674,3.6683,3.6654,3.6688,3.6836,0.0,0.0,0.0,3.4595,0.0,0.0,0.0,3.5415,3.5573,3.5676,0.0,0.0,0.0,0.0,0.0,0.0,0.0,0.0,0.0,0.0,0.0,0.0,0.0,0.0,0.0,3.7337,3.6423,3.5511,3.4975,3.4666,3.4583,3.4473,3.4227,3.3858,3.3778,3.3542,3.3148,3.3001,3.2862,3.2702,3.2521,3.2386,3.2336,3.3824,3.4504,3.4591,3.6011,3.6632,3.6632,3.6527,3.6461,3.6335,3.6191,3.6547,3.7019,3.7019,3.7297,3.7653,3.7653,3.7653,3.7653,3.746,3.7535,3.7653,3.7476,3.7417,3.7358,3.727,3.721,3.715,3.7013,3.6952,3.6907,3.68,3.6352,3.5752,3.5073,3.4476,3.3948,3.3382,3.3507,3.3632,3.3312,3.3326,3.3326,3.3326,3.3326,3.3326,3.3326,3.3326,3.3438,3.3747,3.4056,3.4365,3.4674,3.525,3.5691,3.5691,3.5897,3.6206,3.6515,3.6529,3.6669,3.6978,3.6978,3.6978,3.6978,3.6978,3.6978,3.6978,3.6978,3.6978,0.0,0.0,0.0,0.0,0.0,3.4641,0.0,0.0,0.0,3.5399,0.0,0.0,0.0,0.0,0.0,0.0,0.0,0.0,0.0,0.0,0.0,0.0,0.0,0.0,0.0,3.6898,3.6007,3.4984,3.5001,3.4978,3.4807,3.4583,3.4386,3.4197,3.4099,3.3876,3.356,3.3361,3.3154,3.289,3.2734,3.2643,3.2702,3.4093,3.4832,3.506,3.6412,3.6987,3.6987,3.6806,3.6783,3.6725,3.6444,3.6729,3.7402,3.7402,3.765,3.8001,3.8001,3.8001,3.7943,3.7653,3.777,3.796,3.7653,3.7594,3.7594,3.7535,3.7476,3.7476,3.7417,3.7417,3.7373,3.7105,3.6662,3.6006,3.5204,3.4543,3.4031,3.3452,3.377,3.3948,3.3382,3.3382,3.3452,3.3326,3.3424,3.3494,3.3494,3.3607,3.3859,3.4365,3.452,3.4787,3.5367,3.5897,3.6248,3.6248,3.6712,3.6978,3.6978,3.6978,3.6978,3.6978,3.6978,3.6978,3.6978,3.6978,3.6978,3.6978,3.6978,3.6978,0.0,0.0,0.0,0.0,3.3755,0.0,0.0,0.0,3.4863,3.509,0.0,0.0,0.0,0.0,0.0,0.0,0.0,0.0,0.0,0.0,0.0,0.0,0.0,0.0,0.0,0.0,3.6613,3.5022,3.5609,3.5664,3.4846,3.4768,3.4687,3.4539,3.4517,3.4495,3.4454,3.3899,3.3634,3.3579,3.3111,3.3226,3.3924,3.457,3.5278,3.5966,3.6679,3.6987,3.6987,3.6987,3.6987,3.6908,3.6468,3.6729,3.7402,3.7402,3.7771,3.8335,3.8335,3.8335,3.8335,3.8278,3.8335,3.8335,3.8278,3.8278,3.8205,3.7943,3.7828,3.777,3.7476,3.7417,3.7417,3.7358,3.686,3.6228,3.5627,3.489,3.421,3.3675,3.3839,3.3948,3.3382,3.3701,3.3825,3.3382,3.3789,3.414,3.414,3.4604,3.5043,3.5113,3.5545,3.5897,3.5953,3.6529,3.688,3.688,3.695,3.6978,3.6978,3.6978,3.6978,3.6978,3.6978,3.6978,3.6978,3.6978,3.6978,3.6978,3.6978,3.6978,0.0,0.0,0.0,0.0,0.0,0.0,3.3758,0.0,3.4236,0.0,0.0,0.0,0.0,0.0,0.0,0.0,0.0,0.0,0.0,0.0,0.0,0.0,0.0,0.0,0.0,0.0,0.0,0.0,3.5703,3.5798,3.4907,3.4829,3.4768,3.4727,3.4645,3.4602,3.4602,3.4227,3.3943,3.3688,3.3343,3.3499,3.4133,3.4762,3.5492,3.6292,3.7017,3.7354,3.7317,3.722,3.7182,3.7143,3.6851,3.7128,3.7708,3.7708,3.8066,3.852,3.852,3.8464,3.8391,3.8391,3.8391,3.8391,3.8391,3.8391,3.8391,3.8205,3.8205,3.8148,3.8033,3.7976,3.7844,3.7282,3.6646,3.6009,3.5219,3.4601,3.4142,3.4317,3.5052,3.5421,3.4701,3.4617,3.4552,3.4395,3.4604,3.4773,3.4773,3.4997,3.5367,3.5719,3.5911,3.6206,3.6571,3.6838,3.6978,3.6978,3.6978,3.6978,3.6978,3.6978,3.6978,3.6978,3.6978,3.6978,3.6978,3.6978,3.6978,3.6978,3.6978,3.6978,3.0707,0.0,0.0,0.0,0.0,0.0,0.0,0.0,0.0,0.0,0.0,0.0,0.0,0.0,0.0,0.0,0.0,0.0,0.0,0.0,0.0,0.0,0.0,0.0,0.0,0.0,0.0,3.5321,3.6024,3.6045,3.4965,3.4849,3.4829,3.4829,3.473,3.4689,3.4689,3.4454,3.4184,3.3865,3.3761,3.4021,3.4536,3.522,3.5971,3.6756,3.7327,3.7577,3.7594,3.7447,3.7372,3.7372,3.7203,3.7537,3.8052,3.7912,3.8186,3.8655,3.8655,3.856,3.8464,3.8391,3.8391,3.8391,3.8391,3.8391,3.8391,3.8391,3.8391,3.8391,3.8391,3.8391,3.8205,3.746,3.6874,3.6259,3.5623,3.4971,3.4683,3.5377,3.6175,3.6543,3.6222,3.5941,3.5706,3.5639,3.5589,3.5702,3.5894,3.5844,3.5977,3.6429,3.6395,3.6578,3.7028,3.7056,3.6978,3.6978,3.6978,3.6978,3.6978,3.6978,3.6978,3.6978,3.6978,3.6978,3.6978,3.6978,3.6978,3.6978,3.6978,3.6978,0.0,0.0,0.0,3.0654,0.0,0.0,0.0,0.0,3.2396,0.0,0.0,0.0,0.0,0.0,0.0,0.0,0.0,0.0,0.0,0.0,0.0,0.0,0.0,0.0,0.0,0.0,0.0,3.6272,3.6898,3.6632,3.4984,3.4908,3.4908,3.4908,3.4889,3.4908,3.4908,3.4551,3.4353,3.4269,3.4458,3.4896,3.557,3.6093,3.6792,3.7541,3.7577,3.7577,3.7577,3.7577,3.7577,3.7577,3.7577,3.7888,3.8339,3.8006,3.8288,3.8805,3.8805,3.8711,3.856,3.8448,3.8391,3.8391,3.8391,3.8391,3.8391,3.8391,3.8391,3.8391,3.8391,3.8391,3.8391,3.8335,3.7844,3.7342,3.7342,3.6631,3.6239,3.699,3.6869,3.6828,3.7627,3.7694,3.7345,3.6652,3.6591,3.6936,3.7592,3.744,3.7323,3.7505,3.7197,3.7042,3.7303,3.7148,3.6978,3.6978,3.6978,3.6978,3.6978,3.6978,3.6978,3.6978,3.6978,3.6978,3.6978,3.6978,3.6978,3.6978,3.6978,3.6978,0.0,0.0,3.0054,3.0074,0.0,0.0,0.0,0.0,0.0,0.0,0.0,0.0,0.0,0.0,0.0,0.0,0.0,0.0,0.0,0.0,0.0,0.0,0.0,0.0,0.0,0.0,0.0,3.7041,3.7664,3.744,3.5855,3.5761,3.5495,3.4927,3.4908,3.4908,3.4908,3.4793,3.4894,3.5236,3.5287,3.5736,3.6536,3.6775,3.7122,3.7613,3.7649,3.7649,3.7577,3.7577,3.7577,3.7577,3.7577,3.7928,3.8384,3.8248,3.8521,3.8914,3.886,3.875,3.8711,3.8711,3.86,3.8504,3.8504,3.8448,3.8391,3.8391,3.8391,3.8391,3.8391,3.8391,3.8278,3.7844,3.7535,3.7282,3.6829,3.6878,3.7201,3.7904,3.8333,3.8544,3.8659,3.9123,3.9137,3.8147,3.7575,3.7584,3.8267,3.7893,3.7534,3.7625,3.738,3.7226,3.7303,3.7226,3.7226,3.7226,3.7303,3.7303,3.7226,3.7226,3.7148,3.6978,3.6978,3.6978,3.6978,3.6978,3.6978,3.6978,3.6978,3.6978,2.8997,2.9227,0.0,2.9393,2.9722,0.0,3.036,0.0,0.0,0.0,0.0,0.0,0.0,0.0,0.0,0.0,0.0,0.0,0.0,3.82,0.0,0.0,0.0,0.0,0.0,0.0,3.9011,3.761,3.8162,3.7988,0.0,0.0,3.5931,3.5382,3.5059,3.4908,3.4908,3.5211,3.551,3.5807,3.6321,3.6812,3.7331,3.7473,3.7624,3.7792,3.7739,3.7667,3.7577,3.7577,3.7577,3.7577,3.7577,3.8064,3.8668,3.8474,3.87,3.9094,3.8914,3.886,3.886,3.8805,3.8766,3.8655,3.8655,3.86,3.8544,3.8504,3.8448,3.8448,3.8391,3.8391,3.8278,3.7844,3.7786,3.7732,3.7521,3.7885,3.8418,3.9108,3.9321,3.9373,3.9191,3.9656,3.9788,3.9275,3.8664,3.8384,3.8904,3.8251,3.7753,3.7868,3.762,3.738,3.738,3.738,3.738,3.738,3.7534,3.7534,3.738,3.738,3.738,3.7226,3.7148,3.7148,3.7148,3.7056,3.6978,3.6978,3.6978,3.6978]},{"header":{"parameterUnit":"m.s-1","parameterCategory":1,"la1":30.6,"la2":29.2853,"lo1":-89.7004,"lo2":-87.6739,"dy":0.0162,"dx":0.0183,"nx":112,"ny":82,"refTime":"2024-04-01T18:00:00:Z","depth":0,"parameterNumber":3,"parameterNumberName":"V-component_of_WINDS"},"data":[0.0,0.0,0.0,0.0,0.0,0.0,0.0,0.0,0.0,0.0,0.0,0.0,0.0,0.0,0.0,0.0,0.0,0.0,0.0,0.0,0.0,0.0,0.0,0.0,0.0,0.0,0.0,0.0,0.0,0.0,0.0,0.0,0.0,0.0,0.0,0.0,0.0,0.0,0.0,0.0,0.0,0.0,0.0,0.0,0.0,0.0,0.0,0.0,0.0,0.0,0.0,0.0,0.0,0.0,0.0,0.0,0.0,0.0,0.0,0.0,0.0,0.0,0.0,0.0,0.0,0.0,0.0,0.0,0.0,0.0,0.0,0.0,0.0,0.0,0.0,0.0,0.0,0.0,0.0,0.0,0.0,0.0,0.0,0.0,0.0,0.0,0.0,0.0,0.0,0.0,0.0,-3.9762,-3.9886,-4.0094,-4.0148,-4.0377,-4.0439,-4.037,0.0,0.0,0.0,0.0,0.0,0.0,0.0,0.0,0.0,0.0,0.0,0.0,0.0,0.0,0.0,0.0,0.0,0.0,0.0,0.0,0.0,0.0,0.0,0.0,0.0,0.0,0.0,0.0,0.0,0.0,0.0,0.0,0.0,0.0,0.0,0.0,0.0,0.0,0.0,0.0,0.0,0.0,0.0,0.0,0.0,0.0,0.0,0.0,0.0,0.0,0.0,0.0,0.0,0.0,0.0,0.0,0.0,0.0,0.0,0.0,0.0,0.0,0.0,0.0,0.0,0.0,0.0,0.0,0.0,0.0,0.0,0.0,0.0,0.0,0.0,0.0,0.0,0.0,0.0,0.0,0.0,0.0,0.0,0.0,0.0,0.0,0.0,0.0,0.0,0.0,0.0,0.0,0.0,0.0,0.0,0.0,0.0,0.0,0.0,0.0,0.0,0.0,0.0,0.0,-3.8363,-3.8683,-3.8749,-3.8749,-3.8816,-3.9822,-4.0282,-3.9677,0.0,0.0,0.0,0.0,0.0,0.0,0.0,0.0,0.0,0.0,0.0,0.0,0.0,0.0,0.0,0.0,0.0,0.0,0.0,0.0,0.0,0.0,0.0,0.0,0.0,0.0,0.0,0.0,0.0,0.0,0.0,0.0,0.0,0.0,0.0,0.0,0.0,0.0,0.0,0.0,0.0,0.0,0.0,0.0,0.0,0.0,0.0,0.0,0.0,0.0,0.0,0.0,0.0,0.0,0.0,0.0,0.0,0.0,0.0,0.0,0.0,0.0,0.0,0.0,0.0,0.0,0.0,0.0,0.0,0.0,0.0,0.0,0.0,0.0,0.0,0.0,0.0,0.0,0.0,0.0,0.0,0.0,0.0,0.0,0.0,0.0,0.0,0.0,0.0,0.0,0.0,0.0,0.0,0.0,0.0,0.0,0.0,0.0,0.0,0.0,0.0,0.0,0.0,-3.8507,-3.8325,-3.8508,-3.8508,-3.8508,-3.8508,-3.9341,-3.9754,-3.9433,-4.0399,0.0,0.0,0.0,0.0,0.0,0.0,0.0,0.0,0.0,0.0,0.0,0.0,0.0,0.0,0.0,0.0,0.0,0.0,0.0,0.0,0.0,0.0,0.0,0.0,0.0,0.0,0.0,0.0,0.0,0.0,0.0,0.0,0.0,0.0,0.0,0.0,0.0,0.0,0.0,0.0,0.0,0.0,0.0,0.0,0.0,0.0,0.0,0.0,0.0,0.0,0.0,0.0,0.0,0.0,0.0,0.0,0.0,0.0,0.0,0.0,0.0,0.0,0.0,0.0,0.0,0.0,0.0,0.0,0.0,0.0,0.0,0.0,0.0,0.0,0.0,0.0,0.0,0.0,0.0,0.0,0.0,0.0,0.0,0.0,0.0,0.0,0.0,0.0,0.0,0.0,0.0,0.0,0.0,0.0,0.0,0.0,0.0,0.0,0.0,0.0,0.0,0.0,-3.7988,-3.82,-3.8061,-3.8031,-3.8095,-3.8258,-3.8999,-3.945,-3.9434,-4.07,0.0,0.0,0.0,0.0,0.0,0.0,0.0,0.0,0.0,0.0,0.0,0.0,0.0,0.0,0.0,0.0,0.0,0.0,0.0,0.0,0.0,0.0,0.0,0.0,0.0,0.0,0.0,0.0,0.0,0.0,0.0,0.0,0.0,0.0,0.0,0.0,0.0,0.0,0.0,0.0,0.0,0.0,0.0,0.0,0.0,0.0,0.0,0.0,0.0,0.0,0.0,0.0,0.0,0.0,0.0,0.0,0.0,0.0,0.0,0.0,0.0,0.0,0.0,0.0,0.0,0.0,0.0,0.0,0.0,0.0,0.0,0.0,0.0,0.0,0.0,0.0,0.0,0.0,0.0,0.0,0.0,0.0,0.0,0.0,0.0,0.0,0.0,0.0,0.0,0.0,0.0,0.0,0.0,0.0,0.0,0.0,0.0,0.0,0.0,0.0,0.0,0.0,-3.7042,-3.7338,-3.6707,-3.663,-3.6909,-3.763,-3.885,-3.9568,-3.9469,-4.0729,0.0,0.0,0.0,0.0,0.0,0.0,0.0,0.0,0.0,0.0,0.0,0.0,0.0,0.0,0.0,0.0,0.0,0.0,0.0,0.0,0.0,0.0,0.0,0.0,0.0,0.0,0.0,0.0,0.0,0.0,0.0,0.0,0.0,0.0,0.0,0.0,0.0,0.0,0.0,0.0,0.0,0.0,0.0,0.0,0.0,0.0,0.0,0.0,0.0,0.0,0.0,0.0,0.0,0.0,0.0,0.0,0.0,0.0,0.0,0.0,0.0,0.0,0.0,0.0,0.0,0.0,0.0,0.0,0.0,0.0,0.0,0.0,0.0,0.0,0.0,0.0,0.0,0.0,0.0,0.0,0.0,0.0,0.0,0.0,0.0,0.0,0.0,0.0,0.0,0.0,0.0,0.0,0.0,0.0,0.0,0.0,0.0,0.0,0.0,0.0,0.0,0.0,-3.7678,-3.8152,0.0,-3.7863,-3.7978,-3.8246,-3.9117,-3.957,-3.957,0.0,0.0,0.0,0.0,0.0,0.0,0.0,0.0,0.0,0.0,0.0,0.0,0.0,0.0,0.0,0.0,0.0,0.0,0.0,0.0,0.0,0.0,0.0,0.0,0.0,0.0,0.0,0.0,0.0,0.0,0.0,0.0,0.0,0.0,0.0,0.0,0.0,0.0,0.0,0.0,0.0,0.0,0.0,0.0,0.0,0.0,0.0,0.0,0.0,0.0,0.0,0.0,0.0,0.0,0.0,0.0,0.0,0.0,0.0,0.0,0.0,0.0,0.0,0.0,0.0,0.0,0.0,0.0,0.0,0.0,0.0,0.0,0.0,0.0,0.0,0.0,0.0,0.0,0.0,0.0,0.0,0.0,0.0,0.0,0.0,0.0,0.0,0.0,0.0,0.0,0.0,0.0,0.0,0.0,0.0,0.0,0.0,0.0,0.0,0.0,0.0,0.0,-3.7758,-3.8286,-3.869,0.0,-3.869,-3.8799,-3.9069,-3.9473,-3.9817,-4.002,0.0,0.0,0.0,0.0,0.0,0.0,0.0,0.0,0.0,0.0,0.0,0.0,0.0,0.0,0.0,0.0,0.0,0.0,0.0,0.0,0.0,0.0,0.0,0.0,0.0,0.0,0.0,0.0,0.0,0.0,0.0,0.0,0.0,0.0,0.0,0.0,0.0,0.0,0.0,0.0,0.0,0.0,0.0,0.0,0.0,0.0,0.0,0.0,0.0,0.0,0.0,0.0,0.0,0.0,0.0,0.0,0.0,0.0,0.0,0.0,0.0,0.0,0.0,0.0,0.0,0.0,0.0,0.0,0.0,0.0,0.0,0.0,0.0,0.0,0.0,0.0,0.0,0.0,0.0,0.0,0.0,0.0,0.0,0.0,0.0,0.0,0.0,0.0,0.0,0.0,0.0,0.0,0.0,0.0,0.0,0.0,0.0,0.0,0.0,0.0,0.0,0.0,-3.8712,-3.8712,-3.8712,-3.8712,-3.8712,-3.9036,-3.9919,-3.9986,-4.0252,0.0,0.0,0.0,0.0,0.0,0.0,0.0,0.0,0.0,0.0,0.0,0.0,0.0,0.0,0.0,0.0,0.0,0.0,0.0,0.0,0.0,0.0,0.0,0.0,0.0,0.0,0.0,0.0,0.0,0.0,0.0,0.0,0.0,0.0,0.0,0.0,0.0,0.0,0.0,0.0,0.0,0.0,0.0,0.0,0.0,0.0,0.0,0.0,0.0,0.0,0.0,0.0,0.0,0.0,0.0,0.0,0.0,0.0,0.0,0.0,0.0,0.0,0.0,0.0,0.0,0.0,0.0,0.0,0.0,0.0,0.0,0.0,0.0,0.0,0.0,0.0,0.0,0.0,0.0,0.0,0.0,0.0,0.0,0.0,0.0,0.0,0.0,0.0,0.0,0.0,0.0,0.0,0.0,0.0,0.0,0.0,0.0,0.0,0.0,0.0,0.0,0.0,0.0,-3.807,-3.8492,-3.8841,-3.8841,-3.8841,-3.8951,-3.9215,-3.9733,-3.9911,-3.951,0.0,0.0,0.0,0.0,0.0,0.0,0.0,0.0,0.0,0.0,0.0,0.0,0.0,0.0,0.0,0.0,0.0,0.0,0.0,0.0,0.0,0.0,0.0,0.0,0.0,0.0,0.0,0.0,0.0,0.0,0.0,0.0,0.0,0.0,0.0,0.0,0.0,0.0,0.0,0.0,0.0,0.0,0.0,0.0,0.0,0.0,0.0,0.0,0.0,0.0,0.0,0.0,0.0,0.0,0.0,0.0,0.0,0.0,0.0,0.0,0.0,0.0,0.0,0.0,0.0,0.0,0.0,0.0,0.0,0.0,0.0,0.0,0.0,0.0,0.0,0.0,0.0,0.0,0.0,0.0,0.0,0.0,0.0,0.0,0.0,0.0,0.0,0.0,0.0,0.0,0.0,0.0,0.0,0.0,0.0,0.0,0.0,0.0,0.0,0.0,0.0,0.0,-3.8259,-3.8587,-3.8972,-3.9126,-3.9151,-3.9217,-3.93,-3.9888,-3.9999,-3.9417,0.0,0.0,0.0,0.0,0.0,0.0,0.0,0.0,0.0,0.0,0.0,0.0,0.0,0.0,0.0,0.0,0.0,0.0,0.0,0.0,0.0,0.0,0.0,0.0,0.0,0.0,0.0,0.0,0.0,0.0,0.0,0.0,0.0,0.0,0.0,0.0,0.0,0.0,0.0,0.0,0.0,0.0,0.0,0.0,0.0,0.0,0.0,0.0,0.0,0.0,0.0,0.0,0.0,0.0,0.0,0.0,0.0,0.0,0.0,0.0,0.0,0.0,0.0,0.0,0.0,0.0,0.0,0.0,0.0,0.0,0.0,0.0,0.0,0.0,0.0,0.0,0.0,0.0,0.0,0.0,0.0,0.0,0.0,0.0,0.0,0.0,0.0,0.0,0.0,0.0,0.0,0.0,0.0,0.0,0.0,0.0,0.0,0.0,0.0,0.0,0.0,0.0,-3.8831,-3.8814,-3.8982,-3.9332,-3.9455,-3.9536,-3.9745,-4.0113,-4.0203,-3.9948,0.0,0.0,0.0,0.0,0.0,0.0,0.0,0.0,0.0,0.0,0.0,0.0,0.0,0.0,0.0,0.0,0.0,0.0,0.0,0.0,0.0,0.0,0.0,0.0,0.0,0.0,0.0,0.0,0.0,0.0,0.0,0.0,0.0,0.0,0.0,0.0,0.0,0.0,0.0,0.0,0.0,0.0,0.0,0.0,0.0,0.0,0.0,0.0,0.0,0.0,0.0,0.0,0.0,0.0,0.0,0.0,0.0,0.0,0.0,0.0,-4.3646,0.0,0.0,0.0,0.0,0.0,0.0,0.0,0.0,0.0,0.0,0.0,0.0,0.0,0.0,0.0,0.0,0.0,0.0,0.0,0.0,0.0,0.0,0.0,0.0,0.0,0.0,0.0,0.0,0.0,0.0,0.0,0.0,0.0,0.0,0.0,0.0,0.0,0.0,0.0,0.0,0.0,-3.8223,-3.8311,-3.8468,-3.8536,-3.857,-3.8604,-3.8637,-3.9234,-3.9358,-3.8707,-3.9868,0.0,0.0,0.0,0.0,0.0,0.0,0.0,0.0,0.0,0.0,0.0,0.0,0.0,0.0,0.0,0.0,0.0,0.0,0.0,0.0,0.0,0.0,0.0,0.0,0.0,0.0,0.0,0.0,0.0,0.0,0.0,0.0,0.0,0.0,0.0,0.0,0.0,0.0,0.0,0.0,0.0,0.0,0.0,0.0,0.0,0.0,0.0,0.0,0.0,0.0,0.0,0.0,0.0,0.0,0.0,0.0,0.0,0.0,0.0,0.0,-4.3695,0.0,0.0,0.0,0.0,0.0,0.0,0.0,0.0,0.0,0.0,0.0,0.0,0.0,0.0,0.0,0.0,0.0,0.0,0.0,0.0,0.0,0.0,0.0,0.0,0.0,0.0,0.0,0.0,0.0,0.0,0.0,0.0,0.0,0.0,0.0,0.0,0.0,0.0,0.0,0.0,-3.8183,-3.8227,-3.8355,-3.853,-3.8573,-3.8603,-3.867,-3.9187,-3.929,-3.8748,-3.9612,0.0,0.0,0.0,0.0,0.0,0.0,0.0,0.0,0.0,0.0,0.0,0.0,0.0,0.0,0.0,0.0,0.0,0.0,0.0,0.0,0.0,0.0,0.0,0.0,0.0,0.0,0.0,0.0,0.0,0.0,0.0,0.0,0.0,0.0,0.0,0.0,0.0,0.0,0.0,0.0,0.0,0.0,0.0,0.0,0.0,0.0,0.0,0.0,0.0,0.0,0.0,0.0,0.0,-4.4725,-4.4671,-4.4672,-4.4841,-4.4893,-4.491,-4.4784,-4.4688,-4.4554,0.0,0.0,0.0,0.0,0.0,0.0,0.0,0.0,0.0,0.0,0.0,0.0,0.0,0.0,0.0,0.0,0.0,0.0,0.0,0.0,0.0,0.0,0.0,0.0,0.0,-4.0771,-4.0833,0.0,0.0,0.0,0.0,0.0,0.0,0.0,0.0,0.0,0.0,0.0,0.0,-3.8499,-3.8542,-3.8663,-3.8915,-3.9027,-3.9109,-3.9219,-3.9489,-3.9558,-3.9343,-3.9533,-3.9858,0.0,0.0,0.0,0.0,0.0,0.0,0.0,0.0,0.0,0.0,0.0,0.0,0.0,0.0,0.0,0.0,0.0,0.0,0.0,0.0,0.0,0.0,0.0,0.0,0.0,0.0,0.0,0.0,0.0,0.0,0.0,0.0,-3.8613,-3.9315,0.0,0.0,0.0,0.0,0.0,0.0,0.0,0.0,0.0,0.0,0.0,0.0,0.0,-4.4786,-4.4919,-4.4236,-4.3958,-4.4116,-4.3601,-4.3357,-4.3356,-4.3614,-4.3721,-4.3724,-4.3719,0.0,-4.5188,-4.5188,0.0,0.0,0.0,0.0,0.0,0.0,0.0,0.0,0.0,0.0,0.0,0.0,0.0,0.0,0.0,0.0,0.0,0.0,0.0,0.0,0.0,0.0,-4.2215,-4.2147,-4.2124,-4.1954,0.0,-4.0841,-4.0527,-4.0507,-3.9961,0.0,0.0,0.0,0.0,0.0,0.0,0.0,-3.9301,-3.9452,-3.9537,-3.958,-3.9693,-3.9781,-3.9781,-3.9845,-3.9845,-3.9823,-3.9845,-3.9883,-3.9974,-4.0677,0.0,0.0,0.0,0.0,0.0,0.0,0.0,0.0,0.0,0.0,0.0,0.0,0.0,0.0,0.0,0.0,0.0,0.0,0.0,0.0,0.0,0.0,0.0,0.0,0.0,0.0,0.0,0.0,0.0,-3.9332,-3.9834,-4.0397,-4.0728,-4.1188,0.0,0.0,0.0,0.0,0.0,0.0,0.0,0.0,0.0,-4.4113,-4.3838,-4.379,-4.3971,-4.362,-4.3537,-4.3724,-4.3444,-4.3351,-4.3383,-4.3494,-4.3554,-4.3559,-4.3559,-4.386,-4.4375,-4.4822,-4.5298,-4.5755,0.0,0.0,0.0,0.0,-4.5202,-4.475,-4.4711,-4.4293,0.0,0.0,0.0,0.0,0.0,0.0,0.0,0.0,0.0,0.0,0.0,0.0,0.0,-4.117,-4.1151,-4.1074,-4.0711,-4.046,-4.0265,0.0,-3.9989,-3.9771,-3.9675,0.0,0.0,0.0,0.0,-3.9566,-3.9708,-3.9777,-3.9804,-3.9804,-3.9916,-4.0,-4.0,-4.0,-4.0,-4.0,-3.9935,-3.9889,-3.9889,-4.023,-4.0583,0.0,0.0,0.0,0.0,0.0,0.0,0.0,0.0,0.0,0.0,0.0,0.0,0.0,0.0,0.0,0.0,0.0,0.0,0.0,0.0,0.0,0.0,0.0,0.0,0.0,0.0,0.0,0.0,-4.0351,-4.0926,-4.1542,-4.1775,-4.2109,0.0,0.0,0.0,0.0,0.0,0.0,-4.4296,-4.3924,-4.367,-4.363,-4.315,-4.3008,-4.3189,-4.3004,-4.2994,-4.3186,-4.2976,-4.2884,-4.2947,-4.2949,-4.2969,-4.2969,-4.2969,-4.3086,-4.332,-4.4155,-4.4874,-4.546,-4.5456,-4.5453,-4.5431,-4.5236,-4.4746,-4.4189,-4.4143,-4.3627,-4.3011,-4.3121,0.0,-4.2994,-4.2923,0.0,0.0,0.0,0.0,-4.1638,-4.1426,-4.0899,-4.0403,-4.0367,-4.0371,-4.0371,-4.035,-4.0354,-4.0271,0.0,-4.0062,-4.01,-3.9986,0.0,0.0,0.0,0.0,-4.0043,-3.9981,-4.0001,-4.004,-4.004,-4.0158,-4.0232,-4.0232,-4.0232,-4.0213,-4.0177,-4.008,-4.0019,-4.0015,-4.0015,-4.0279,-4.0824,0.0,0.0,0.0,0.0,0.0,0.0,0.0,0.0,0.0,0.0,0.0,0.0,0.0,0.0,0.0,0.0,0.0,0.0,0.0,0.0,0.0,0.0,0.0,0.0,0.0,0.0,0.0,0.0,0.0,-4.2348,-4.2739,0.0,0.0,0.0,0.0,-4.3548,-4.3921,-4.3747,-4.2768,-4.3156,-4.3344,-4.3138,-4.335,-4.3474,-4.3486,-4.2717,-4.2353,-4.2355,-4.1523,-4.1126,-4.114,-4.1207,-4.1237,-4.124,-4.124,-4.1668,-4.2421,-4.3301,-4.37,-4.3739,-4.3737,-4.3737,-4.3718,-4.3718,-4.3676,-4.3637,-4.3637,-4.3598,-4.3557,-4.3579,-4.3579,-4.3557,-4.3486,-4.3462,0.0,0.0,-4.2194,-4.1979,-4.1222,-4.0991,-4.0937,-4.0877,-4.0855,-4.0843,-4.0779,-4.0776,-4.0655,0.0,-4.0204,-4.0204,-4.0187,0.0,-4.0204,-4.0187,-4.0187,-4.0187,-4.0187,-4.0293,-4.0377,-4.0377,-4.0492,-4.0574,-4.0574,-4.0574,-4.053,-4.0406,-4.0389,-4.036,-4.0272,-4.0291,-4.0234,-4.0153,-4.0895,0.0,0.0,0.0,0.0,0.0,0.0,0.0,0.0,0.0,0.0,0.0,0.0,0.0,0.0,0.0,0.0,0.0,0.0,0.0,0.0,0.0,0.0,0.0,0.0,0.0,0.0,0.0,0.0,-4.2068,-4.2422,0.0,-4.2614,-4.2862,-4.3073,-4.3097,-4.3285,-4.3311,-4.319,-4.2831,-4.2588,-4.2515,-4.2103,-4.189,-4.1894,-4.1513,-4.1328,-4.1337,-4.0929,-4.0713,-4.0684,-4.0712,-4.0699,-4.0718,-4.08,-4.1005,-4.1306,-4.1752,-4.2596,-4.3603,-4.3603,-4.3603,-4.3603,-4.3603,-4.3251,-4.2763,-4.2763,-4.2412,-4.1986,-4.1986,-4.196,-4.1912,-4.1894,-4.1893,-4.1826,-4.1513,-4.1435,-4.1357,-4.1064,-4.1008,-4.0984,-4.0971,-4.0964,-4.0961,-4.092,-4.0933,-4.0889,-4.0742,-4.0668,-4.0642,-4.0597,-4.0616,-4.0616,-4.0544,-4.0563,-4.0549,-4.0457,-4.0492,-4.0526,-4.0526,-4.0662,-4.0732,-4.0732,-4.0648,-4.0574,-4.053,-4.0411,-4.0327,-4.031,-4.031,-4.0291,-4.0234,-4.052,-4.0842,0.0,0.0,0.0,0.0,0.0,0.0,0.0,0.0,0.0,0.0,0.0,0.0,0.0,0.0,0.0,0.0,0.0,0.0,0.0,0.0,0.0,0.0,0.0,0.0,0.0,0.0,-4.1477,-4.1875,-4.21,-4.223,-4.2238,-4.2402,-4.2541,-4.2621,-4.2651,-4.2661,-4.2659,-4.2062,-4.1738,-4.1757,-4.1177,-4.0875,-4.0863,-4.075,-4.0694,-4.0707,-4.061,-4.0538,-4.0491,-4.0491,-4.0491,-4.0491,-4.0591,-4.0667,-4.0703,-4.084,-4.1613,-4.2692,-4.2734,-4.2767,-4.2767,-4.2767,-4.2396,-4.1909,-4.1909,-4.1559,-4.111,-4.111,-4.1067,-4.1039,-4.1039,-4.1038,-4.1032,-4.1032,-4.1032,-4.1032,-4.1033,-4.1033,-4.1034,-4.1015,-4.0995,-4.0994,-4.0991,-4.1001,-4.1003,-4.0998,-4.0953,-4.0917,-4.0839,-4.0869,-4.0869,-4.0776,-4.0815,-4.0804,-4.0706,-4.0694,-4.0694,-4.0694,-4.0773,-4.0826,-4.0826,-4.0725,-4.0648,-4.0588,-4.0427,-4.0327,-4.031,-4.031,-4.031,-4.031,-4.031,-4.0654,-4.1357,0.0,0.0,0.0,0.0,0.0,0.0,0.0,0.0,0.0,0.0,0.0,0.0,0.0,0.0,0.0,0.0,0.0,0.0,0.0,0.0,0.0,0.0,0.0,-4.1171,-4.098,-4.1015,-4.1863,-4.1905,-4.2143,-4.2756,-4.2834,-4.2627,-4.2112,-4.2128,-4.1822,-4.1035,-4.0873,-4.083,-4.0894,-4.0699,-4.0604,-4.0604,-4.0524,-4.0491,-4.0491,-4.0496,-4.0477,-4.0477,-4.0477,-4.0477,-4.0477,-4.0496,-4.0552,-4.068,-4.0692,-4.0768,-4.0888,-4.1038,-4.1104,-4.1104,-4.111,-4.111,-4.111,-4.111,-4.111,-4.111,-4.111,-4.111,-4.111,-4.111,-4.111,-4.111,-4.111,-4.111,-4.1091,-4.1089,-4.1095,-4.1072,-4.1021,-4.1008,-4.0992,-4.0994,-4.0991,-4.1008,-4.1003,-4.1006,-4.0988,-4.0917,-4.0907,-4.0907,-4.0907,-4.0907,0.0,-4.0907,-4.0907,-4.0907,-4.0907,-4.0907,-4.0907,-4.0907,-4.0826,-4.0732,-4.0588,-4.0469,-4.0377,-4.0291,-4.031,-4.031,-4.031,-4.031,-4.0692,-4.1457,0.0,0.0,0.0,0.0,0.0,0.0,0.0,0.0,0.0,0.0,0.0,0.0,0.0,0.0,0.0,0.0,0.0,0.0,0.0,0.0,0.0,0.0,-4.0541,-4.1388,-4.1148,-4.0948,-4.1167,-4.1316,-4.132,-4.1099,-4.1265,-4.136,-4.1312,-4.132,-4.125,-4.1074,-4.0947,-4.0879,-4.0913,-4.0696,-4.0584,-4.0604,-4.0442,-4.0329,-4.0279,-4.0194,-4.012,-4.0062,-4.0062,-4.0062,-4.0062,-4.0176,-4.0229,-4.0281,-4.0516,-4.0642,-4.0711,-4.0943,-4.103,-4.103,-4.1078,-4.111,-4.111,-4.111,-4.111,-4.111,-4.111,-4.111,-4.111,-4.111,-4.111,-4.111,-4.111,-4.111,-4.1091,-4.1097,-4.1097,-4.1103,-4.1086,-4.1067,-4.1072,-4.1066,-4.1065,-4.1062,-4.1013,-4.1047,-4.1052,-4.0976,-4.0935,-4.0907,-4.0907,-4.0907,0.0,-4.0907,-4.0907,-4.0907,-4.0907,-4.0907,-4.0888,-4.0826,-4.0713,-4.0607,-4.0469,-4.0377,-4.0328,-4.031,-4.031,-4.031,-4.031,-4.031,-4.0425,0.0,0.0,0.0,0.0,0.0,0.0,0.0,0.0,0.0,0.0,0.0,0.0,0.0,0.0,0.0,0.0,0.0,0.0,0.0,0.0,0.0,0.0,-4.0155,-4.021,-4.0779,-4.0552,-4.0383,-4.0424,-4.0691,-4.0745,-4.05,-4.0719,-4.0929,-4.0994,-4.1033,-4.103,-4.1011,-4.0937,-4.0859,-4.0746,-4.0557,-4.0446,-4.0403,-4.0232,-4.0101,-4.0062,-3.9998,-3.9933,-3.9889,-3.9889,-3.9889,0.0,-3.9998,-4.006,-4.012,-4.0364,-4.0506,0.0,0.0,0.0,0.0,0.0,-4.1064,-4.1071,-4.1085,-4.111,-4.111,-4.111,-4.111,-4.111,-4.111,-4.111,-4.111,-4.111,-4.111,-4.111,-4.111,-4.111,-4.111,-4.111,-4.111,-4.111,-4.111,-4.1106,-4.1081,-4.1041,-4.1074,0.0,-4.1058,-4.0991,-4.0949,-4.0949,-4.0952,-4.0935,-4.0935,-4.0917,-4.0907,-4.0907,-4.0878,-4.0837,-4.08,-4.0635,0.0,0.0,0.0,-4.031,-4.031,-4.031,0.0,0.0,0.0,-4.031,-4.031,0.0,0.0,0.0,-4.1916,-4.2655,0.0,0.0,0.0,0.0,0.0,0.0,0.0,0.0,0.0,0.0,0.0,0.0,0.0,0.0,0.0,0.0,-3.9952,-3.9683,-3.9807,-3.975,-3.9754,-3.9854,-4.021,-4.0479,-4.0632,-4.0862,-4.0995,-4.1015,-4.1069,-4.1045,-4.0929,0.0,0.0,0.0,0.0,-4.025,-4.0138,-3.9975,-3.9889,-3.9889,-3.9889,-3.9911,-3.9933,-3.9933,-3.9914,-3.9935,-3.9935,-4.0,-4.0139,-4.0266,-4.0399,-4.0554,-4.0787,-4.0907,-4.0917,-4.098,-4.0996,-4.1023,-4.1078,0.0,0.0,-4.111,-4.111,-4.111,-4.111,-4.111,-4.1091,-4.1097,-4.1097,-4.1097,-4.1103,-4.1103,-4.1103,-4.1103,-4.1103,-4.1103,-4.1103,-4.1096,-4.1104,-4.1105,-4.1093,-4.1094,-4.1109,-4.1037,-4.0994,-4.0994,-4.1006,-4.1003,-4.0996,-4.0943,-4.0907,-4.0898,0.0,0.0,-4.0764,-4.053,-4.0389,-4.0389,-4.0345,-4.031,-4.031,-4.031,-4.031,-4.031,-4.031,-4.031,-4.031,-4.0157,-4.0077,-4.0076,-4.0672,-4.1321,0.0,0.0,0.0,0.0,0.0,0.0,0.0,0.0,0.0,0.0,0.0,0.0,0.0,0.0,0.0,-3.9739,-3.9769,-3.9829,-4.0021,-4.0193,-4.0348,-4.0367,-4.048,-4.0655,-4.0908,-4.0977,-4.1015,-4.1072,-4.109,-4.1086,-4.1058,-4.096,-4.0888,-4.0828,-4.0472,-4.0283,-4.0248,-4.002,-3.9889,-3.9889,0.0,0.0,-4.0041,-4.0041,-4.012,-4.023,-4.023,-4.023,-4.0283,-4.0399,-4.0559,-4.0759,-4.0796,-4.0898,-4.098,-4.0988,-4.1038,-4.1078,-4.1104,-4.111,-4.111,-4.111,-4.111,-4.111,-4.111,-4.111,0.0,-4.1096,-4.1105,-4.1109,-4.1094,-4.1097,-4.1097,-4.1097,-4.1097,-4.1097,-4.1097,-4.1101,-4.1103,-4.1107,-4.1094,-4.111,-4.1107,-4.1046,-4.0994,-4.0994,-4.1007,-4.0993,-4.0996,-4.0988,-4.0945,-4.0834,-4.0812,-4.0707,-4.05,-4.0438,-4.0375,-4.0309,-4.031,-4.031,-4.031,-4.031,-4.031,-4.031,-4.031,-4.031,-4.031,-4.0157,-4.0036,-3.9951,-3.9955,-4.075,0.0,0.0,0.0,0.0,0.0,0.0,0.0,0.0,0.0,0.0,0.0,-3.9349,-3.9639,0.0,-3.9618,-3.9679,-3.9941,-4.0177,-4.0283,-4.0496,-4.0623,-4.0565,-4.0704,-4.0851,-4.0996,-4.1035,-4.106,-4.1105,-4.1091,-4.0869,-4.0369,-4.0361,-4.0071,-3.9464,-3.9283,-3.9172,-3.9106,-3.8935,-3.8842,-3.8842,-3.93,-3.9528,-3.9603,-4.0022,-4.023,-4.03,-4.03,-4.03,-4.0317,-4.0446,-4.0621,-4.0803,-4.0827,-4.0873,-4.0898,-4.0945,-4.0976,-4.1007,-4.1075,-4.11,-4.109,-4.1091,-4.11,-4.109,-4.1091,-4.11,-4.1097,-4.1091,-4.1094,-4.1097,-4.1105,-4.1107,-4.1107,-4.1107,-4.1107,-4.1107,-4.1107,-4.1091,-4.1093,-4.1093,-4.1091,-4.1103,-4.1103,-4.1062,-4.1057,-4.1057,-4.1011,-4.1007,-4.1006,-4.0943,-4.0877,-4.08,-4.0694,-4.0564,-4.0422,-4.0377,-4.0345,-4.031,-4.031,-4.031,-4.031,-4.031,-4.031,-4.031,-4.031,-4.0273,-4.0215,-4.0076,-3.9933,-3.9823,-4.0123,-4.071,0.0,0.0,0.0,0.0,0.0,0.0,0.0,0.0,-3.8579,-3.9156,-3.9082,-3.9055,-3.9373,-3.9637,-3.9848,-3.9873,-4.0232,-4.05,-4.054,-4.07,-4.0776,-4.0694,-4.087,-4.101,-4.1014,-4.0926,-4.0855,-4.0857,-4.0691,-4.0247,-3.9419,-3.948,-3.9105,-3.8105,-3.8094,-3.8054,-3.7954,-3.7843,-3.7795,-3.7814,-3.852,-3.8862,-3.8898,-3.9567,-3.9871,-3.9903,-3.9922,-4.0018,-4.0191,-4.0303,-4.0538,-4.0829,-4.09,-4.0878,-4.0828,-4.0888,-4.0924,-4.0948,-4.1051,-4.1099,-4.1107,-4.1091,-4.1097,-4.1105,-4.1108,-4.1097,-4.1108,-4.109,-4.1091,-4.1091,-4.1092,-4.1093,-4.1093,-4.1093,-4.1093,-4.1093,-4.1093,-4.1093,-4.1108,-4.1108,-4.1101,-4.1108,-4.1081,-4.0941,-4.0883,-4.1062,-4.1028,-4.0981,-4.0967,-4.084,-4.0757,-4.072,-4.053,-4.0389,-4.0392,-4.0327,-4.031,-4.031,-4.031,-4.0291,-4.0215,-4.0272,-4.0253,-4.0157,-4.0234,-4.0176,-4.0036,-3.9911,-3.9804,-3.9712,-4.0478,-4.0891,-3.6075,-3.6746,0.0,-3.7432,-3.7962,-3.8517,0.0,0.0,-3.9156,-3.9425,-3.9425,-3.9451,-3.9552,-3.9754,-3.9956,-4.0139,-4.0353,-4.0554,-4.0745,-4.0834,-4.0906,-4.0944,-4.0988,-4.1016,-4.1074,-4.0394,-3.9954,-3.995,-3.9229,-3.875,-3.8624,-3.863,-3.8559,-3.8366,-3.818,-3.8083,-3.8087,-3.7886,-3.7795,-3.7795,-3.789,-3.8012,-3.8132,-3.8209,-3.8323,-3.8433,-3.8498,-3.9,-3.9773,-3.9786,-4.0256,-4.0977,-4.0996,-4.0945,-4.0901,-4.0965,-4.1034,-4.1084,-4.1086,-4.1093,-4.1093,-4.1108,-4.1105,-4.1107,-4.1105,-4.1105,-4.111,-4.1094,-4.1093,-4.1091,-4.1101,-4.1097,-4.1097,-4.1097,-4.1097,-4.1097,-4.1097,-4.1094,-4.1094,-4.1094,-4.1091,-4.1078,-4.1011,-4.0376,-4.0129,-4.0979,-4.0986,-4.0887,-4.083,-4.0707,-4.0584,-4.0469,-4.0422,-4.0375,-4.0328,-4.0291,-4.031,-4.031,-4.031,-4.0196,-3.9956,-4.0176,-4.0077,-3.9599,-3.9933,-4.0015,-3.9739,-3.9717,-3.9717,-3.9712,-4.0478,-4.1191,-3.5688,0.0,0.0,0.0,-3.7929,-3.8378,-3.864,-3.9027,-3.9346,-3.9469,-3.952,-3.9571,-3.9577,-3.9848,-4.01,0.0,-4.0485,-4.07,-4.0792,-4.0856,-4.0926,-4.0992,-4.0559,-4.0264,-4.034,-4.0005,-3.9594,-3.9073,-3.8711,-3.8272,-3.7779,-3.774,-3.7494,-3.6956,-3.682,-3.6736,-3.6704,-3.6619,-3.6575,-3.6575,-3.7095,-3.7359,-3.743,-3.7983,-3.8259,-3.8315,-3.8346,-3.8576,-3.8946,-3.8946,-3.9155,-3.9532,-4.0081,-4.0279,-4.032,-4.0824,-4.1022,-4.1055,-4.1093,-4.1091,-4.1107,-4.1094,-4.1093,-4.1091,-4.1094,-4.1093,-4.1108,-4.1103,-4.1101,-4.1099,-4.1091,-4.1108,-4.1108,-4.1108,-4.1108,-4.1085,-4.1057,-4.1033,-4.1022,-4.0948,-4.0552,-4.0208,-4.0143,-3.9396,-3.8941,-3.9293,-3.9305,-3.9258,-3.9226,-3.9116,-3.8984,-3.8829,-3.8831,-3.8779,-3.8613,-3.8727,-3.8671,-3.8395,-3.8515,-3.8495,-3.8225,-3.8331,-3.8247,-3.8,-3.8158,-3.8361,-3.859,-3.859,-3.8801,-3.9283,-4.0662,-4.1492,-3.5548,0.0,0.0,-3.7379,-3.7861,-3.8314,-3.864,-3.9073,-3.9418,-3.9495,-3.9546,-3.9602,-3.9602,-3.9892,-4.012,-4.012,-4.0454,-4.07,-4.0711,-4.0815,-4.0801,-4.065,-4.0072,-3.9537,-3.9129,-3.9084,-3.8814,-3.8181,-3.7926,-3.7506,-3.6883,-3.6844,-3.6546,-3.5924,-3.5857,-3.5799,-3.5735,-3.5737,-3.5723,-3.5742,-3.6381,-3.6674,-3.6697,-3.7375,-3.7693,-3.7707,-3.7713,-3.7854,-3.8079,-3.8079,-3.8213,-3.85,-3.9183,-3.9427,-3.9473,-4.0078,-4.0605,-4.1035,-4.1071,-4.1101,-4.1091,-4.1105,-4.1097,-4.1078,-4.1074,-4.1042,-4.1013,-4.1013,-4.1013,-4.1013,-4.1013,-4.1013,-4.1013,-4.1013,-4.1013,-4.1003,-4.0954,-4.0765,-4.0595,-4.0498,-3.9781,-3.918,-3.9141,-3.8384,-3.776,-3.7694,-3.7456,-3.7488,-3.7977,-3.7926,-3.7795,-3.7621,-3.7622,-3.7528,-3.7312,-3.7432,-3.7355,-3.7017,-3.7168,-3.7187,-3.6921,-3.6948,-3.6883,-3.6684,-3.6764,-3.7007,-3.7404,-3.7654,-3.8155,-3.8929,-4.0733,-4.1742,0.0,0.0,-3.6613,-3.7309,-3.8047,-3.8609,-3.867,-3.9073,-3.9418,-3.9495,-3.9546,-3.9602,-3.9602,-3.9777,-3.9914,-3.9914,-4.0195,-4.0415,-4.0511,-4.0681,-4.0548,-3.9812,-3.9714,-3.9067,0.0,-3.729,-3.7277,-3.7246,-3.6455,-3.5967,-3.5947,-3.5947,-3.5933,-3.5909,-3.5898,-3.5852,-3.5795,-3.5795,-3.58,-3.58,-3.582,-3.5833,-3.5844,-3.5864,-3.5908,-3.5985,-3.5985,-3.6462,-3.7239,-3.7239,-3.7722,-3.8496,-3.8526,-3.8493,-3.8443,-3.8475,-3.9585,-4.1091,-4.1091,-4.1111,-4.1108,-4.1091,-4.1061,-4.0994,-4.0994,-4.0906,-4.082,-4.082,-4.082,-4.082,-4.082,-4.082,-4.082,-4.082,-4.082,-4.082,-4.081,-4.0198,-3.9634,-3.9634,-3.8878,-3.821,-3.8148,-3.7372,-3.6722,-3.6661,-3.587,-3.5924,-3.7679,-3.7795,-3.764,-3.7432,-3.7412,-3.7312,-3.7039,-3.7017,-3.7017,-3.6994,-3.7017,-3.6921,-3.6719,-3.6825,-3.6658,-3.6124,-3.6443,-3.6515,-3.636,-3.7257,-3.8126,-3.8947,-4.0554,-4.186,0.0,0.0,-3.6109,-3.6649,-3.7326,-3.7946,-3.8277,-3.8597,-3.8873,-3.9064,-3.9237,-3.9388,-3.9577,-3.9754,-3.9916,-3.996,-4.0213,-4.0419,-4.0492,-4.0602,-4.0372,-3.9533,-3.8967,0.0,0.0,0.0,0.0,-3.6433,-3.6135,-3.5974,-3.5974,-3.5974,-3.5977,-3.5977,-3.5919,-3.5894,-3.588,-3.5807,-3.5768,-3.572,-3.5788,-3.5791,-3.581,-3.5844,-3.5846,-3.5838,-3.584,-3.5994,-3.6266,-3.6258,-3.6435,-3.6767,-3.7292,-3.7483,-3.7544,-3.8113,-3.8726,-3.9241,-3.9241,-3.9241,-3.9241,-3.9241,-3.9629,-4.0065,-4.0065,-4.041,-4.081,-4.081,-4.081,-4.081,-4.081,-4.081,-4.081,-4.081,-4.081,-4.0636,-4.0001,-3.9661,-3.9259,-3.8601,-3.7791,-3.7172,-3.7113,-3.6358,-3.5707,-3.5491,-3.519,-3.5209,-3.5832,-3.5704,-3.5546,-3.5463,-3.5482,-3.5396,-3.5147,-3.5267,-3.5202,-3.4902,-3.5051,-3.5021,-3.4723,-3.4766,-3.4659,-3.4379,-3.4485,-3.4759,-3.5169,-3.6018,-3.7124,-3.8474,-4.0221,-4.1507,0.0,-3.3952,-3.5052,-3.5951,-3.6666,-3.7256,-3.7805,-3.8165,-3.8473,-3.873,-3.8894,-3.9082,-3.9406,-3.957,-3.9693,-3.9832,-4.0061,-4.025,-4.0334,-4.045,-4.0121,-3.9006,-3.8407,-3.763,0.0,0.0,0.0,-3.5929,-3.5895,-3.5897,-3.5897,-3.5897,-3.5896,-3.5893,-3.5859,-3.5833,-3.5854,-3.5813,-3.578,-3.5747,-3.5773,-3.5806,-3.5805,-3.5852,-3.5844,-3.5805,-3.5793,-3.5779,-3.5741,-3.5731,-3.5736,-3.5775,-3.6299,-3.6503,-3.6561,-3.7133,-3.7317,-3.7401,-3.8063,-3.8311,-3.8311,-3.8311,-3.8645,-3.9093,-3.9306,-3.9702,-4.0173,-4.0579,-4.0696,-4.0696,-4.0696,-4.0696,-4.0696,-4.0696,-4.0696,-4.044,-3.9561,-3.8955,-3.8323,-3.7479,-3.6629,-3.6009,-3.5909,-3.5397,-3.4963,-3.4793,-3.4693,-3.4672,-3.4753,-3.4612,-3.4464,-3.4416,-3.4375,-3.4302,-3.4074,-3.4184,-3.4136,-3.3815,-3.3972,-3.3947,-3.3698,-3.3671,-3.3587,-3.3491,-3.3481,-3.3851,-3.4606,-3.5711,-3.7051,-3.8663,-4.0393,-4.1679,-3.2624,-3.3017,-3.3494,-3.5224,-3.5968,-3.6506,-3.7237,-3.7754,-3.8176,-3.841,-3.8535,-3.87,0.0,0.0,-3.9208,-3.9477,-3.966,-3.9821,-4.0004,-4.021,-3.9765,0.0,0.0,0.0,0.0,0.0,0.0,-3.5648,0.0,-3.5704,-3.5704,-3.5704,-3.569,-3.571,-3.5695,-3.5724,-3.5783,-3.5786,-3.576,-3.5765,-3.5755,-3.5776,-3.5768,-3.5757,-3.5765,-3.5762,-3.5762,-3.5674,-3.556,-3.556,-3.556,-3.5573,-3.5566,-3.5584,-3.5589,-3.5596,-3.5559,-3.5748,-3.7519,-3.8149,-3.8149,-3.8158,-3.8064,-3.8063,-3.8655,-3.8794,-3.8992,-4.0158,-4.0504,-4.0492,-4.0492,-4.0492,-4.0492,-4.0492,-4.0489,-4.0273,-3.9415,-3.8136,-3.6964,-3.6379,-3.5512,-3.4832,-3.4614,-3.4529,-3.4486,-3.4505,-3.4321,-3.425,-3.4464,-3.4486,-3.4375,-3.4197,-3.4173,-3.4074,-3.3815,-3.3807,-3.3807,-3.3807,-3.3807,-3.378,-3.3698,-3.3633,-3.3549,-3.3509,-3.3422,-3.381,-3.4606,-3.6218,-3.7812,-3.9441,-4.0999,-4.2268,-3.1143,-3.1975,-3.2913,-3.3595,-3.4289,-3.5034,-3.6013,-3.6432,-3.6916,-3.7871,-3.8198,-3.8442,0.0,0.0,0.0,-3.8563,-3.8154,0.0,-3.8852,-3.9204,0.0,0.0,0.0,-3.6843,-3.4965,-3.4831,0.0,0.0,-3.5414,-3.5709,-3.5709,-3.5709,-3.5702,-3.5706,-3.5702,-3.564,-3.5508,-3.5457,-3.5427,-3.5419,-3.5431,-3.535,-3.5211,-3.52,-3.517,-3.5126,-3.5126,-3.5124,-3.5066,-3.5066,-3.5141,-3.5236,-3.5217,-3.5353,-3.5528,-3.5524,-3.5508,-3.5531,-3.5709,-3.5952,-3.6205,-3.6203,-3.6183,-3.6188,-3.6356,-3.7237,-3.8523,-4.0085,-4.0515,-4.0501,-4.0501,-4.0501,-4.0501,-4.0501,-4.0502,-4.0101,-3.8652,-3.8042,-3.7338,-3.5854,-3.5034,-3.4593,-3.4529,-3.4431,-3.4391,-3.4484,-3.4148,-3.3998,-3.425,-3.4105,-3.3954,-3.3895,-3.3895,-3.3868,-3.3807,-3.3807,-3.3807,-3.3807,-3.3753,-3.3698,-3.3633,-3.3549,-3.3491,-3.3422,-3.3393,-3.381,-3.4606,-3.6218,-3.7812,-3.9441,-4.0999,-4.2177,-3.0377,-3.1007,-3.1776,-3.2569,-3.3041,-3.3744,-3.5279,-3.5717,-3.6156,-3.7506,-3.7862,0.0,0.0,0.0,0.0,0.0,0.0,0.0,-3.7736,-3.831,-3.8144,0.0,-3.6914,0.0,-3.468,-3.4572,-3.4502,0.0,-3.4878,-3.5322,-3.5348,-3.5348,-3.5348,-3.5348,-3.5353,-3.5302,-3.5178,-3.5138,-3.5126,-3.5126,-3.5126,-3.5072,-3.4962,-3.4984,-3.4965,-3.4906,0.0,-3.4926,-3.4983,-3.4983,-3.4983,-3.5002,-3.5003,-3.5116,-3.5249,-3.5439,-3.5495,-3.5417,-3.4794,-3.4737,-3.5001,-3.5384,-3.5509,-3.5493,-3.5493,-3.6169,-3.7013,-3.7583,-3.7738,-3.8174,-4.0023,-3.9813,-3.8898,-3.7964,-3.9144,-3.9982,-3.8058,-3.6857,-3.5918,-3.5124,-3.4531,-3.4189,-3.4189,-3.4124,-3.4097,-3.4197,-3.3968,-3.3842,-3.3998,-3.3895,-3.3807,-3.3807,-3.3807,-3.3807,-3.3807,-3.3807,-3.3807,-3.3807,-3.3726,-3.3671,-3.3605,-3.352,-3.3481,-3.3393,-3.3755,-3.4498,-3.5657,-3.7268,-3.8862,-4.0437,-4.1669,-4.2466,-2.9805,-3.0064,-3.0399,-3.1657,-3.1989,-3.2523,-3.4542,-3.5077,-3.5553,-3.698,0.0,0.0,-3.8216,0.0,-3.7168,-3.745,0.0,-3.6521,-3.659,-3.7398,-3.7338,-3.567,-3.6124,-3.5899,-3.4147,-3.4086,-3.3869,-3.3195,-3.3857,-3.4373,-3.4567,-3.4529,-3.451,-3.451,-3.4491,-3.451,-3.4605,-3.468,-3.4718,-3.4794,-3.4832,-3.4832,-3.4813,-3.487,-3.4851,-3.4813,0.0,0.0,-3.4982,-3.4982,-3.4906,-3.4812,-3.4812,-3.4811,-3.4848,-3.521,-3.5334,-3.5221,-3.4447,-3.4198,-3.4317,-3.5077,-3.5325,-3.5325,-3.5325,-3.5324,-3.5172,-3.4394,-3.4204,-3.5034,-3.8703,-3.8322,-3.6495,-3.4634,-3.7007,-3.9138,-3.7156,-3.5195,-3.3926,-3.4333,-3.4083,-3.3807,-3.3807,-3.3807,-3.3807,-3.3807,-3.3807,-3.3807,-3.3807,-3.3807,-3.3807,-3.3807,-3.3807,-3.3807,-3.3807,-3.3762,-3.3716,-3.3671,-3.3652,-3.3587,-3.3502,-3.36,-3.3615,-3.3556,-3.4461,-3.5657,-3.7142,-3.8753,-4.0293,-4.1704,-4.2411,-4.2737,-2.8607,-2.881,-2.915,-2.993,-3.034,-3.0883,-3.249,-3.3447,0.0,0.0,0.0,-3.6666,-3.7379,-3.6574,0.0,-3.6391,0.0,0.0,0.0,0.0,-3.5637,0.0,0.0,0.0,0.0,0.0,0.0,0.0,0.0,-3.194,-3.2785,-3.2619,-3.2505,-3.2505,-3.2343,-3.2555,-3.3153,-3.3438,-3.3792,-3.4228,-3.4505,-3.4542,-3.4321,-3.4344,-3.4344,-3.4321,-3.4321,0.0,-3.4358,-3.4358,-3.434,-3.4321,-3.4321,-3.4333,-3.4333,-3.4399,-3.4439,-3.4412,-3.4245,-3.42,-3.4228,-3.4373,-3.4434,-3.4434,-3.4434,-3.4431,-3.44,-3.4229,-3.4211,-3.4372,-3.5114,-3.503,-3.466,-3.4301,-3.4754,-3.5138,-3.4506,-3.4097,-3.381,-3.3905,-3.3852,-3.3807,-3.3807,-3.3807,-3.3807,-3.3807,-3.3807,-3.3807,-3.3807,-3.3807,-3.3807,-3.3807,-3.3807,-3.3807,-3.3807,-3.3486,-3.3259,-3.3146,-3.3196,-3.3178,-3.3117,-3.3918,-3.4389,-3.4389,-3.5838,-3.7033,-3.7993,-3.955,-4.08,-4.1723,-4.185,-4.1922,-2.7997,-2.8192,-2.8369,-2.8856,-2.9087,-2.955,-3.1002,0.0,0.0,0.0,0.0,-3.5496,-3.6313,0.0,0.0,0.0,0.0,0.0,0.0,0.0,0.0,0.0,0.0,0.0,0.0,0.0,0.0,0.0,0.0,-3.016,-3.1593,-3.1547,-3.1478,-3.1478,-3.1396,-3.1507,-3.1857,-3.2016,-3.2435,-3.3109,-3.3283,-3.3478,-3.3725,-3.3725,-3.3725,-3.3725,-3.3725,0.0,-3.3899,-3.3899,-3.4009,-3.4201,-3.4201,-3.4193,-3.4128,-3.3479,-3.3662,-3.4201,-3.4211,-3.4201,-3.4199,-3.421,-3.4209,-3.4202,-3.4202,-3.4211,-3.4195,-3.4195,-3.42,-3.4197,-3.421,-3.4198,-3.4154,-3.403,-3.3991,-3.3979,-3.3845,-3.3797,-3.3796,-3.3807,-3.3796,-3.3796,-3.3796,-3.3796,-3.3796,-3.3796,-3.3796,-3.3796,-3.3796,-3.3796,-3.3818,-3.3806,-3.3816,-3.3814,-3.3796,-3.3635,-3.3355,-3.2921,-3.283,-3.2965,-3.329,-3.3764,-3.4349,-3.5202,-3.5989,-3.697,-3.8222,-3.9745,-4.1117,-4.2318,-4.2318,-4.1903,-2.7181,-2.7434,-2.765,-2.7947,-2.8094,-2.8508,-2.9721,-3.0177,0.0,0.0,0.0,0.0,0.0,0.0,0.0,0.0,0.0,0.0,0.0,0.0,0.0,0.0,0.0,0.0,0.0,0.0,0.0,0.0,0.0,0.0,-3.0142,-3.0224,-3.0224,-3.0224,-3.0224,-3.0296,-3.0448,-3.0586,-3.103,-3.1833,-3.2071,-3.2516,-3.3067,-3.3248,-3.3273,-3.3237,-3.3237,0.0,0.0,-3.3357,-3.3549,-3.3814,-3.3814,-3.3821,-3.3707,-3.2751,-3.2997,-3.3798,-3.3803,-3.3814,-3.3814,-3.3814,-3.4,-3.4197,-3.4197,-3.3968,-3.3677,-3.3677,-3.3924,-3.4208,-3.4208,-3.4175,-3.406,-3.3852,-3.3698,-3.3643,-3.3767,-3.3569,-3.337,-3.3369,-3.3373,-3.3373,-3.3373,-3.3373,-3.3373,-3.3373,-3.3373,-3.3373,-3.3373,-3.3373,-3.3382,-3.3363,-3.3382,-3.3358,-3.3387,-3.3387,-3.3115,-3.2504,-3.237,-3.2529,-3.3034,-3.3456,-3.423,-3.5483,-3.5864,-3.6636,-3.7937,-3.9492,-4.0873,-4.2147,-4.2307,-4.1719,-2.5439,-2.5946,-2.6549,-2.6953,-2.7384,-2.7898,-2.8414,0.0,0.0,0.0,-3.0799,-3.1534,0.0,0.0,0.0,0.0,0.0,0.0,0.0,0.0,0.0,0.0,0.0,0.0,0.0,0.0,0.0,0.0,0.0,0.0,-2.7704,-2.7735,-2.7735,-2.7735,-2.7735,-2.8072,-2.8728,-2.9265,-2.9932,-3.0671,-3.1715,-3.2226,-3.2317,-3.2995,-3.3201,-3.3027,-3.3027,0.0,0.0,-3.2516,-3.2534,-3.257,-3.257,-3.2565,-3.2559,-3.2433,-3.2463,-3.2559,-3.2571,-3.257,-3.257,-3.257,-3.3314,-3.4186,-3.4186,-3.3187,-3.2025,-3.2025,-3.3069,-3.4207,-3.4191,-3.4018,-3.3821,-3.3813,-3.3342,-3.3064,-3.3683,-3.2827,-3.1987,-3.1991,-3.1991,-3.1991,-3.1991,-3.1991,-3.1991,-3.1991,-3.1991,-3.1991,-3.1991,-3.1991,-3.1983,-3.1983,-3.1986,-3.1987,-3.1991,-3.1984,-3.181,-3.1367,-3.1493,-3.1547,-3.1438,-3.3339,-3.4481,-3.462,-3.6055,-3.6881,-3.7021,-3.8602,-3.9487,-3.9626,-4.0388,-4.0625,-2.4711,-2.498,-2.5259,-2.5412,-2.5658,-2.5969,-2.6183,0.0,0.0,-2.7744,-2.8934,-3.0033,-3.0359,0.0,0.0,0.0,0.0,0.0,0.0,0.0,0.0,0.0,0.0,0.0,0.0,0.0,0.0,0.0,0.0,0.0,-2.6232,-2.6822,-2.7147,-2.7147,-2.7147,-2.7319,-2.7597,-2.7848,-2.8338,-2.9042,-2.9516,-2.9983,-3.0475,-3.1214,-3.1529,-3.1461,-3.1898,0.0,0.0,-3.1916,-3.207,-3.2388,-3.238,-3.24,-3.2398,-3.2391,-3.2393,-3.2398,-3.2391,-3.2403,-3.2388,-3.2409,-3.2725,-3.3105,-3.3124,-3.2655,-3.2116,-3.1864,-3.2253,-3.2745,-3.2751,-3.2683,-3.2599,-3.2585,-3.2392,-3.2275,-3.2519,-3.2172,-3.1807,-3.1777,-3.1794,-3.1793,-3.1793,-3.179,-3.1787,-3.1787,-3.1787,-3.1787,-3.1787,-3.1802,-3.1797,-3.1785,-3.1792,-3.1812,-3.1809,-3.1781,-3.2508,-3.418,-3.4071,-3.3926,-3.3837,-3.4692,-3.5153,-3.5147,-3.5788,-3.614,-3.614,-3.6775,-3.7076,-3.7097,-3.8491,-3.8531,-2.3833,-2.4124,-2.4355,-2.4355,-2.4526,-2.4684,0.0,0.0,0.0,-2.6007,-2.7101,-2.807,-2.8155,-2.8687,0.0,0.0,0.0,0.0,0.0,0.0,0.0,0.0,0.0,0.0,0.0,0.0,0.0,0.0,0.0,0.0,0.0,-2.5964,-2.6505,-2.6759,-2.6742,-2.6792,-2.6892,-2.6892,-2.7163,-2.7775,-2.7998,-2.8391,-2.899,-2.9964,-3.0409,-3.046,0.0,0.0,0.0,-3.1579,-3.178,-3.2213,-3.2366,-3.2402,-3.2388,-3.2404,-3.2404,-3.2422,-3.2385,-3.2402,-3.2402,-3.2399,-3.2383,-3.237,-3.2256,-3.2207,-3.2165,-3.1891,-3.1803,-3.1785,-3.1797,-3.1797,-3.1797,-3.1786,-3.1804,-3.1807,-3.1795,-3.1812,-3.1792,-3.1797,-3.1819,-3.2068,-3.2965,-3.311,-3.3134,-3.3134,-3.3111,-3.3128,-3.3128,-3.314,-3.3059,-3.2957,-3.2916,-3.293,-3.2911,-3.2904,-3.3828,-3.5949,-3.5788,-3.56,-3.5623,-3.5579,-3.5603,-3.5622,-3.5622,-3.5622,-3.5622,-3.5622,-3.5596,-3.5616,-3.6861,-3.7241,-2.2433,-2.3195,-2.4021,-2.4021,-2.4239,-2.4513,0.0,0.0,0.0,-2.5119,-2.5245,-2.53,-2.5577,-2.5646,-2.5742,-2.5972,-2.6026,0.0,0.0,0.0,0.0,0.0,0.0,0.0,0.0,0.0,0.0,0.0,0.0,0.0,0.0,-2.4847,-2.5307,-2.6168,-2.6203,-2.6345,-2.6606,-2.6606,-2.6742,-2.7023,-2.7758,-2.81,-2.8169,-2.9708,-3.0409,0.0,0.0,0.0,0.0,-3.1504,-3.1644,-3.1854,-3.2238,-3.2397,-3.2414,-3.2376,-3.2405,-3.2383,-3.2417,-3.2411,-3.2411,-3.2411,-3.2405,-3.2307,-3.1931,-3.1792,-3.1808,-3.1808,-3.1794,-3.1795,-3.1823,-3.1811,-3.1812,-3.1787,-3.1783,-3.1783,-3.18,-3.1809,-3.1816,-3.1816,-3.1798,-3.2769,-3.5732,-3.6242,-3.6255,-3.6255,-3.6244,-3.6255,-3.6255,-3.6255,-3.6093,-3.559,-3.5547,-3.5557,-3.5572,-3.5545,-3.5574,-3.5626,-3.5606,-3.561,-3.5605,-3.5622,-3.5622,-3.5622,-3.5622,-3.5622,-3.5622,-3.5622,-3.5596,-3.5599,-3.5639,-3.7216,-2.1227,-2.1393,-2.1756,-2.1966,-2.2212,-2.2518,-2.3027,0.0,0.0,0.0,-2.4439,-2.5119,-2.4794,-2.5119,-2.5259,-2.4517,-2.4953,0.0,0.0,0.0,0.0,0.0,0.0,0.0,0.0,0.0,0.0,0.0,0.0,0.0,0.0,-2.4297,-2.4639,-2.5269,-2.5572,-2.5758,-2.5868,-2.617,-2.638,-2.6468,-2.6703,-2.7071,-2.7573,-2.8561,0.0,0.0,0.0,0.0,0.0,-3.0914,-3.1103,-3.1567,-3.1227,-3.1635,-3.2287,-3.1398,-3.0694,-3.0132,-3.0142,-3.0159,-3.0118,-3.0144,-3.0135,-3.0339,-3.147,-3.1807,-3.1789,-3.1821,-3.1823,-3.1789,-3.1802,-3.1804,-3.1789,-3.1802,-3.1812,-3.1823,-3.1823,-3.1807,-3.2427,-3.4458,-3.4881,-3.518,-3.6145,-3.6298,-3.6182,-3.5856,-3.5839,-3.5814,-3.5814,-3.584,-3.5753,-3.5634,-3.5579,-3.5606,-3.5608,-3.5625,-3.5586,-3.5576,-3.5599,-3.5588,-3.5622,-3.5622,-3.5622,-3.5622,-3.5622,-3.5622,-3.5622,-3.5622,-3.5622,-3.5673,-3.7699,-3.9187,0.0,-2.0128,-2.0322,-2.059,-2.073,0.0,0.0,0.0,0.0,0.0,0.0,-2.3559,-2.3564,-2.3774,-2.369,-2.3012,-2.3454,0.0,0.0,0.0,0.0,0.0,0.0,0.0,0.0,0.0,0.0,0.0,0.0,0.0,0.0,-2.3435,-2.3752,-2.4297,-2.4926,-2.5275,-2.5275,-2.5551,-2.5863,-2.6086,-2.629,-2.6726,-2.7432,-2.8295,0.0,0.0,0.0,0.0,0.0,-3.0606,-3.0757,-3.1057,-3.0458,-3.0599,-3.105,-3.0243,-2.959,-2.9079,-2.9118,-2.9091,-2.9108,-2.9113,-2.9442,-3.0107,-3.124,-3.1668,-3.1794,-3.1807,-3.1794,-3.1802,-3.1807,-3.1807,-3.1807,-3.181,-3.1816,-3.2124,-3.3257,-3.3512,-3.4065,-3.5933,-3.6311,-3.6251,-3.6059,-3.6051,-3.592,-3.5655,-3.5609,-3.5597,-3.5597,-3.5618,-3.5622,-3.5622,-3.5585,-3.5621,-3.5588,-3.5605,-3.5622,-3.5622,-3.5622,-3.5622,-3.5622,-3.5622,-3.5622,-3.5622,-3.5622,-3.5611,-3.5588,-3.5609,-3.6182,-3.7351,-3.9236,-4.008,0.0,-1.9222,-1.9672,-1.9727,-1.9879,-2.0031,0.0,0.0,0.0,0.0,0.0,-2.1078,-2.2113,-2.1753,-2.1376,-2.1491,-2.169,0.0,0.0,0.0,0.0,0.0,0.0,0.0,0.0,0.0,0.0,0.0,0.0,0.0,0.0,-2.2374,-2.2694,-2.3216,-2.4256,-2.4784,-2.4823,-2.491,-2.5257,-2.5873,-2.6383,-2.6961,-2.7687,-2.8633,0.0,0.0,0.0,0.0,0.0,-3.0402,-3.0407,-3.0375,-2.9907,-2.9484,-2.9111,-2.9077,-2.9143,-2.9239,-2.9231,-2.9264,-2.9233,-2.9233,-3.0128,-3.1245,-3.1298,-3.148,-3.1617,-3.1617,-3.1621,-3.1624,-3.175,-3.1716,-3.1658,-3.1855,-3.1896,-3.2636,-3.5424,-3.6039,-3.6079,-3.6239,-3.6105,-3.5874,-3.5462,-3.535,-3.5366,-3.5366,-3.5366,-3.5381,-3.5381,-3.5381,-3.5381,-3.5381,-3.5382,-3.5393,-3.549,-3.558,-3.5622,-3.5622,-3.5622,-3.5622,-3.5622,-3.5622,-3.5656,-3.5757,-3.5774,-3.5819,-3.5917,-3.5883,-3.7314,-4.0065,-4.0102,-4.0087,-1.7373,0.0,-1.8452,-1.8767,-1.8967,-1.9222,0.0,0.0,0.0,0.0,0.0,-2.0771,-2.1078,-2.1014,-2.091,-2.0741,0.0,0.0,0.0,0.0,0.0,0.0,0.0,0.0,0.0,0.0,0.0,0.0,0.0,0.0,0.0,-2.2081,-2.242,-2.2512,-2.3275,-2.3852,-2.4271,-2.5082,-2.5497,-2.544,-2.623,-2.7178,-2.8211,-2.8462,0.0,0.0,0.0,0.0,-2.9946,-2.9585,-2.9419,-2.9419,-2.9319,-2.9212,-2.9102,-2.9088,-2.9798,-3.0719,-3.0704,-3.0704,-3.0733,-3.0733,-3.0908,-3.1421,-3.2466,-3.1364,-2.9733,-2.9733,-2.9713,-3.0038,-3.1435,-3.0745,-3.0291,-3.2413,-3.2978,-3.3039,-3.325,-3.3303,-3.3792,-3.5429,-3.4414,-3.3259,-3.3177,-3.3126,-3.3157,-3.3157,-3.3139,-3.3155,-3.3155,-3.3155,-3.3155,-3.3155,-3.3174,-3.3501,-3.4316,-3.5135,-3.5622,-3.5622,-3.5622,-3.5622,-3.5622,-3.5622,-3.6141,-3.7359,-3.7343,-3.7899,-3.9037,-3.8868,-3.9108,-3.9782,-4.0003,-3.99,-1.6621,-1.7107,-1.7657,-1.7842,-1.8104,-1.8365,0.0,0.0,0.0,0.0,0.0,0.0,-1.9705,0.0,0.0,0.0,0.0,0.0,0.0,0.0,0.0,0.0,0.0,0.0,0.0,0.0,0.0,0.0,0.0,0.0,0.0,-2.141,-2.1787,-2.2099,-2.2765,-2.3329,-2.3747,-2.4339,-2.4894,-2.544,-2.591,-2.6719,-2.7751,-2.8247,-2.8916,0.0,0.0,0.0,-2.9441,-2.8794,-2.8889,-2.947,-2.939,-2.9657,-3.0035,-2.9831,-3.0354,-3.1261,-3.1951,-3.1901,-3.1528,-3.1528,-3.1605,-3.1842,-3.2469,-3.1881,-3.0878,-3.0831,-3.0829,-3.1066,-3.2045,-3.1565,-3.1198,-3.2563,-3.2866,-3.279,-3.2466,-3.2387,-3.2743,-3.389,-3.3192,-3.2396,-3.2415,-3.239,-3.2384,-3.2384,-3.2384,-3.2384,-3.2384,-3.2384,-3.2384,-3.2384,-3.2384,-3.2784,-3.3697,-3.4219,-3.4797,-3.5568,-3.5585,-3.5564,-3.5532,-3.592,-3.6658,-3.7672,-3.7964,-3.8452,-3.9289,-3.9547,-3.9615,-3.9531,-3.9696,-3.9556,-1.6061,-1.6394,-1.6733,-1.695,-1.7226,-1.7432,0.0,0.0,0.0,0.0,0.0,0.0,0.0,0.0,0.0,0.0,0.0,0.0,0.0,0.0,0.0,0.0,0.0,0.0,0.0,0.0,0.0,0.0,0.0,0.0,0.0,-2.0629,-2.1022,-2.1749,-2.2547,-2.3166,-2.3554,-2.3576,-2.4268,-2.5544,-2.5722,-2.6262,-2.7016,-2.7896,-2.8386,0.0,0.0,0.0,-2.8842,-2.8281,-2.869,-2.9747,-2.9747,-3.0313,-3.1056,-3.0654,-3.0867,-3.1557,-3.2814,-3.2766,-3.2069,-3.2069,-3.2206,-3.2372,-3.2186,-3.2525,-3.2955,-3.2879,-3.283,-3.2802,-3.2803,-3.2803,-3.2771,-3.2468,-3.2415,-3.2415,-3.2415,-3.2415,-3.2376,-3.2391,-3.2408,-3.2391,-3.2391,-3.2398,-3.2398,-3.2398,-3.2398,-3.2398,-3.2398,-3.2398,-3.2398,-3.2398,-3.2377,-3.2613,-3.3219,-3.3144,-3.3687,-3.5218,-3.5414,-3.5476,-3.5559,-3.6444,-3.7181,-3.7685,-3.8221,-3.8522,-3.8539,-3.9257,-3.9542,-3.9339,-3.9335,-3.9315,-1.5117,-1.4807,-1.4728,-1.5754,-1.6114,-1.6254,0.0,0.0,0.0,0.0,0.0,0.0,0.0,0.0,0.0,0.0,0.0,0.0,0.0,0.0,0.0,0.0,0.0,0.0,0.0,0.0,0.0,0.0,0.0,0.0,0.0,-1.9946,-2.0325,-2.1008,-2.2436,-2.3478,-2.4173,-2.4431,-2.4811,-2.5299,-2.6389,-2.6916,-2.6865,-2.7018,-2.7075,0.0,0.0,-2.7293,-2.7871,-2.8425,-2.8839,-2.9103,-2.9681,-3.0164,-3.0603,-3.0525,-3.1221,-3.2218,-3.2893,-3.3029,-3.2914,-3.2808,-3.2748,-3.2795,-3.2795,-3.2734,-3.2672,-3.2648,-3.2531,-3.246,-3.2453,-3.2462,-3.2455,-3.2431,-3.24,-3.2382,-3.2382,-3.2391,-3.2376,-3.2382,-3.2407,-3.2376,-3.2382,-3.2398,-3.2398,-3.2398,-3.2398,-3.2398,-3.2398,-3.2398,-3.2398,-3.2398,-3.2296,-3.2296,-3.2373,-3.2272,-3.2724,-3.4022,-3.4505,-3.5234,-3.6284,-3.7075,-3.7796,-3.8439,-3.9125,-3.9476,-3.9476,-3.9523,-3.9537,-3.9451,-3.9362,-3.9309,-1.4106,-1.4091,-1.4011,-1.4163,-1.4744,0.0,0.0,0.0,0.0,0.0,0.0,0.0,0.0,0.0,0.0,0.0,0.0,0.0,0.0,0.0,0.0,0.0,0.0,0.0,0.0,0.0,0.0,0.0,0.0,0.0,0.0,0.0,-2.0977,-2.1312,-2.2492,-2.3649,-2.4694,-2.4855,-2.5317,-2.6069,-2.6678,-2.6913,-2.6788,-2.682,-2.6776,-2.6828,0.0,-2.7225,-2.8008,-2.8159,-2.8669,-2.9351,-2.9718,-3.0268,-3.094,-3.1581,-3.2133,-3.2672,-3.2895,-3.3005,-3.3005,-3.2897,-3.2897,-3.2897,-3.2773,-3.2648,-3.2578,-3.2523,-3.2461,-3.2384,-3.2384,-3.2431,-3.2407,-3.2407,-3.2367,-3.2398,-3.2398,-3.2398,-3.2398,-3.2398,-3.2398,-3.2398,-3.2398,-3.2398,-3.2398,-3.2398,-3.2665,-3.2839,-3.2839,-3.3031,-3.3188,-3.3188,-3.3145,-3.3145,-3.3145,-3.2985,-3.3172,-3.3761,-3.4589,-3.5441,-3.6451,-3.6773,-3.7238,-3.7919,-3.8575,-3.892,-3.892,-3.9255,-3.9379,-3.9379,-3.9325,-3.9272,-1.3171,-1.3222,-1.3215,-1.2645,0.0,0.0,0.0,0.0,0.0,0.0,0.0,0.0,0.0,0.0,0.0,0.0,0.0,0.0,0.0,0.0,0.0,0.0,0.0,0.0,0.0,0.0,0.0,0.0,0.0,0.0,0.0,0.0,-2.1844,-2.191,-2.2751,-2.3629,-2.4478,-2.4761,-2.5411,-2.6353,-2.6587,-2.6645,-2.6621,-2.6621,-2.6621,-2.6621,-2.6712,-2.7258,-2.7964,-2.7917,-2.8497,-2.9479,-2.9696,-3.028,-3.1102,-3.2064,-3.2413,-3.2468,-3.2594,-3.2594,-3.2664,-3.2773,-3.2773,-3.2773,-3.2594,-3.2523,-3.2523,-3.2453,-3.2398,-3.2398,-3.2398,-3.2398,-3.2398,-3.2398,-3.2398,-3.2398,-3.2398,-3.2398,-3.2398,-3.2398,-3.2398,-3.2398,-3.2342,-3.2465,-3.2573,-3.2532,-3.2986,-3.3356,-3.3356,-3.368,-3.3924,-3.3924,-3.3864,-3.3804,-3.3819,-3.3849,-3.3894,-3.3933,-3.4743,-3.5566,-3.6447,-3.6362,-3.6656,-3.7413,-3.7879,-3.8165,-3.8278,-3.8843,-3.9148,-3.9272,-3.9272,-3.9272,-1.2077,-1.17,-1.1329,0.0,0.0,0.0,0.0,0.0,0.0,0.0,0.0,0.0,0.0,0.0,0.0,0.0,0.0,0.0,0.0,0.0,0.0,0.0,0.0,0.0,0.0,0.0,0.0,0.0,0.0,0.0,0.0,0.0,0.0,-2.2457,-2.3229,-2.3399,-2.286,-2.4008,-2.4743,-2.5135,-2.5875,-2.6162,-2.5948,-2.5948,-2.5948,-2.599,-2.6553,-2.6821,-2.7004,-2.8102,-2.8563,-2.8764,-2.9355,-2.9903,-3.045,-3.0881,-3.1042,-3.1115,-3.1607,-3.1807,-3.1864,-3.2272,-3.2453,-3.2453,-3.2398,-3.2398,-3.2398,-3.2398,-3.2398,-3.2398,-3.2398,-3.2398,-3.2398,-3.2398,-3.2398,-3.2398,-3.2398,-3.2398,-3.2398,-3.2398,-3.2398,-3.2342,-3.2247,-3.271,-3.3123,-3.2965,-3.3454,-3.3848,-3.3848,-3.3894,-3.3924,-3.3924,-3.3759,-3.3653,-3.3546,-3.4115,-3.4445,-3.4448,-3.4493,-3.5122,-3.6384,-3.6415,-3.6737,-3.737,-3.7429,-3.7764,-3.8278,-3.8351,-3.8717,-3.9272,-3.9272,-3.9272,-1.1409,-1.126,0.0,0.0,0.0,0.0,0.0,0.0,0.0,0.0,0.0,0.0,0.0,0.0,0.0,0.0,0.0,0.0,0.0,0.0,0.0,0.0,0.0,0.0,0.0,0.0,0.0,0.0,0.0,0.0,0.0,0.0,0.0,-2.1305,-2.2036,-2.2281,-2.1994,-2.328,-2.3891,-2.3807,-2.4727,-2.5259,-2.5467,-2.5467,-2.5591,-2.5921,-2.654,-2.7017,-2.7439,-2.8236,-2.8689,-2.8941,-2.9338,-2.9656,-2.9875,-3.0421,-3.0659,-3.0674,-3.0866,-3.0925,-3.0984,-3.116,-3.1522,-3.1766,-3.1334,-3.145,-3.1664,-3.1622,-3.1564,-3.1679,-3.2272,-3.2398,-3.2398,-3.2398,-3.2342,-3.2302,-3.2302,-3.2191,-3.2135,-3.2135,-3.2486,-3.276,-3.2719,-3.3193,-3.3619,-3.3575,-3.4031,-3.4408,-3.4408,-3.4723,-3.4916,-3.4916,-3.4853,-3.4805,-3.4741,-3.4981,-3.5115,-3.5115,-3.5115,-3.5349,-3.5846,-3.5861,-3.5973,-3.6211,-3.6616,-3.689,-3.7131,-3.7531,-3.8067,-3.8662,-3.8662,-3.8898,-1.0738,-1.0588,0.0,0.0,0.0,0.0,0.0,0.0,0.0,0.0,0.0,0.0,0.0,0.0,0.0,0.0,0.0,0.0,0.0,0.0,0.0,0.0,0.0,0.0,0.0,0.0,0.0,0.0,0.0,0.0,0.0,0.0,0.0,0.0,-2.0771,-2.1068,-2.1139,-2.2058,-2.2421,-2.2328,-2.316,-2.401,-2.4894,-2.4894,-2.5298,-2.5939,-2.6564,-2.7162,-2.7714,-2.8324,-2.8712,-2.8972,-2.9107,-2.9219,-2.9282,-2.9732,-2.9856,-2.9842,-3.0025,-3.0086,-3.0072,-3.0269,-3.0629,-3.0925,-3.051,-3.0555,-3.0896,-3.1102,-3.1102,-3.1218,-3.2048,-3.2287,-3.2287,-3.2287,-3.2191,-3.215,-3.215,-3.2038,-3.2057,-3.227,-3.268,-3.3059,-3.3197,-3.3713,-3.4137,-3.4076,-3.4555,-3.4943,-3.4943,-3.5284,-3.5504,-3.5504,-3.5504,-3.5504,-3.5504,-3.5504,-3.5504,-3.5504,-3.5504,-3.5504,-3.5504,-3.5504,-3.5504,-3.5504,-3.591,-3.6196,-3.643,-3.6845,-3.7429,-3.7994,-3.7994,-3.8351,-0.9922,-0.9458,0.0,0.0,0.0,0.0,0.0,0.0,0.0,0.0,0.0,0.0,0.0,0.0,0.0,0.0,0.0,0.0,0.0,0.0,0.0,0.0,0.0,0.0,0.0,0.0,0.0,0.0,0.0,0.0,0.0,0.0,0.0,0.0,-1.9701,-1.9831,-2.0205,-2.0205,-2.0321,-2.0622,-2.1151,-2.2409,-2.4279,-2.4292,-2.4856,-2.5914,-2.6552,-2.7162,-2.7746,-2.8343,-2.8587,-2.8587,-2.8587,-2.8587,-2.8587,-2.8587,-2.8444,-2.8417,-2.9044,-2.9156,-2.9129,-2.9766,-3.0011,-3.0011,-2.995,-2.995,-3.0133,-3.0793,-3.097,-3.116,-3.1796,-3.1996,-3.1996,-3.1996,-3.1996,-3.1996,-3.1996,-3.1996,-3.2194,-3.2862,-3.2998,-3.3152,-3.3608,-3.4224,-3.4691,-3.455,-3.507,-3.5504,-3.5504,-3.5504,-3.5504,-3.5504,-3.5504,-3.5504,-3.5504,-3.5504,-3.5504,-3.5504,-3.5504,-3.5504,-3.5504,-3.5504,-3.5504,-3.5504,-3.5504,-3.5797,-3.6368,-3.6368,-3.6723,-3.737,-3.737,-3.7706,-0.9382,0.0,0.0,0.0,0.0,0.0,0.0,0.0,0.0,0.0,0.0,0.0,0.0,0.0,0.0,0.0,0.0,0.0,0.0,0.0,0.0,0.0,0.0,0.0,0.0,0.0,0.0,0.0,0.0,0.0,0.0,0.0,0.0,0.0,-1.8623,-1.8861,-1.9298,-1.9657,-1.9889,-1.9948,-2.0099,-2.0961,-2.2405,-2.2792,-2.351,-2.4558,-2.5511,-2.6426,-2.7227,-2.8058,-2.8314,-2.8276,-2.8276,-2.8276,-2.8276,-2.8276,-2.821,-2.8197,-2.8392,-2.8444,-2.8365,-2.8624,-2.898,-2.9205,-2.8803,-2.8853,-2.9282,-2.9979,-3.0072,-3.0194,-3.1336,-3.1655,-3.1712,-3.194,-3.1955,-3.1841,-3.1841,-3.2146,-3.239,-3.2601,-3.3381,-3.4087,-3.4267,-3.4805,-3.5269,-3.5205,-3.537,-3.5504,-3.5504,-3.5504,-3.5504,-3.5504,-3.5504,-3.5504,-3.5504,-3.5504,-3.5504,-3.5504,-3.5504,-3.5504,-3.5504,-3.5504,-3.5504,-3.5504,-3.5504,-3.5489,-3.5589,-3.5718,-3.6022,-3.6554,-3.6554,-3.6906,-0.878,0.0,0.0,0.0,0.0,0.0,0.0,0.0,0.0,0.0,0.0,0.0,0.0,0.0,0.0,0.0,0.0,0.0,0.0,0.0,0.0,0.0,0.0,0.0,0.0,0.0,0.0,0.0,0.0,0.0,0.0,0.0,0.0,0.0,-1.7451,-1.7831,-1.843,-1.8726,-1.8931,-1.9057,-1.9252,-1.9831,-2.0629,-2.1728,-2.2897,-2.409,-2.5499,-2.6583,-2.743,-2.7971,-2.8197,-2.8079,-2.8079,-2.8079,-2.8079,-2.8079,-2.8079,-2.8,-2.8,-2.7934,-2.7868,-2.7868,-2.8105,-2.8338,-2.7987,-2.8052,-2.8481,-2.9421,-2.958,-2.9827,-3.1161,-3.1482,-3.1539,-3.1769,-3.1908,-3.206,-3.206,-3.2511,-3.2976,-3.3245,-3.3933,-3.4562,-3.4846,-3.5235,-3.5504,-3.5504,-3.5504,-3.5504,-3.5504,-3.5504,-3.5439,-3.5359,-3.5359,-3.5359,-3.5294,-3.5294,-3.5294,-3.5294,-3.5294,-3.5294,-3.5294,-3.5359,-3.5359,-3.5359,-3.5294,-3.5213,-3.5082,-3.5213,-3.5409,-3.5688,-3.5688,-3.6054,0.0,0.0,0.0,0.0,0.0,0.0,0.0,0.0,0.0,0.0,0.0,0.0,0.0,0.0,0.0,0.0,0.0,0.0,0.0,0.0,0.0,0.0,0.0,0.0,0.0,0.0,0.0,0.0,0.0,0.0,0.0,0.0,0.0,-1.6073,-1.6322,-1.6853,-1.7601,-1.7601,-1.7767,0.0,-1.8486,-1.8873,-1.913,-2.0973,-2.2663,-2.4337,-2.6047,-2.7284,-2.8079,-2.8079,-2.8079,-2.8013,-2.8013,-2.8013,-2.8013,-2.8013,-2.7934,-2.7776,-2.7776,-2.7656,-2.7523,-2.7523,-2.7523,-2.7523,-2.7523,-2.7523,-2.7776,-2.9016,-2.9442,-2.978,-3.1102,-3.144,-3.1455,-3.1514,-3.2064,-3.2527,-3.2587,-3.3125,-3.3769,-3.4367,-3.4532,-3.4771,-3.54,-3.5439,-3.5439,-3.5439,-3.5439,-3.5439,-3.5439,-3.5439,-3.5359,-3.5213,-3.5148,-3.5082,-3.4935,-3.4935,-3.4935,-3.4935,-3.4935,-3.4935,-3.4935,-3.5082,-3.5148,-3.5148,-3.5001,-3.4868,-3.4868,-3.4868,-3.4868,-3.4868,-3.4868,-3.5234,0.0,0.0,0.0,0.0,0.0,0.0,0.0,0.0,0.0,0.0,0.0,0.0,0.0,0.0,0.0,0.0,0.0,0.0,0.0,0.0,0.0,0.0,0.0,0.0,0.0,0.0,0.0,0.0,0.0,0.0,0.0,0.0,0.0,-1.5921,-1.5633,-1.5989,-1.6987,-1.6976,-1.7088,0.0,-1.7344,-1.7904,-1.8841,-2.0239,-2.2274,-2.4719,-2.5816,-2.6879,-2.7855,-2.7855,-2.7789,-2.7603,-2.7603,-2.7603,-2.7603,-2.7603,-2.759,-2.759,-2.759,-2.7523,-2.7523,-2.7523,-2.7523,-2.7523,-2.7523,-2.7523,-2.7656,-2.8338,-2.8917,-2.9596,-3.0793,-3.1046,-3.1176,-3.1792,-3.222,-3.2662,-3.317,-3.3799,-3.4307,-3.4442,-3.4906,-3.526,-3.5264,-3.5294,-3.5294,-3.5294,-3.5294,-3.5294,-3.5294,-3.5148,-3.5001,-3.5001,-3.4935,-3.4935,-3.4935,-3.4935,-3.4935,-3.4935,-3.4935,-3.4935,-3.4935,-3.4935,-3.4935,-3.4935,-3.4935,-3.4868,-3.4765,-3.4868,-3.4868,-3.4765,-3.4765,-3.4817,0.0,0.0,0.0,0.0,0.0,0.0,0.0,0.0,0.0,0.0,0.0,0.0,0.0,0.0,0.0,0.0,0.0,0.0,0.0,0.0,0.0,0.0,0.0,0.0,0.0,0.0,0.0,0.0,0.0,0.0,0.0,-1.3147,-1.3803,-1.5138,-1.5216,-1.57,-1.6818,-1.6818,-1.6864,-1.6909,-1.7145,-1.8051,-1.949,-2.0621,-2.2275,-2.4343,-2.4767,-2.5521,-2.6514,-2.6879,-2.6947,-2.6892,-2.7255,-2.7335,-2.7268,-2.7268,-2.7268,-2.7268,-2.7268,-2.7268,-2.7268,-2.7268,-2.7268,-2.7268,-2.7268,-2.7268,-2.7455,-2.8292,-2.8808,-2.9337,-3.0532,-3.0751,-3.0904,-3.1654,-3.2241,-3.2767,-3.3231,-3.4026,-3.4679,-3.4679,-3.4976,-3.5148,-3.5082,-3.5082,-3.5082,-3.5082,-3.5082,-3.5082,-3.5082,-3.4935,-3.4868,-3.4817,-3.4817,-3.475,-3.4668,-3.4668,-3.4668,-3.4668,-3.4668,-3.4668,-3.4668,-3.4668,-3.475,-3.4817,-3.475,-3.4616,-3.4563,-3.4616,-3.4601,-3.4563,-3.4563,-3.4563,0.0,0.0,0.0,0.0,0.0,0.0,0.0,0.0,0.0,0.0,0.0,0.0,0.0,0.0,0.0,0.0,0.0,0.0,0.0,0.0,0.0,0.0,0.0,0.0,0.0,0.0,0.0,0.0,0.0,0.0,-1.2127,-1.2498,-1.3199,-1.4296,-1.4737,-1.5517,-1.6648,-1.6637,-1.6694,-1.6772,-1.7313,-1.8541,-2.0211,-2.1123,-2.2298,-2.3745,-2.3745,-2.4241,-2.5181,-2.5824,-2.6126,-2.6346,-2.6985,-2.7146,-2.7024,-2.7024,-2.7024,-2.7024,-2.7024,-2.7024,-2.7024,-2.7024,-2.7024,-2.7037,-2.7126,-2.7165,-2.7336,-2.8402,-2.8807,-2.9145,-3.0201,-3.0487,-3.0637,-3.1375,-3.2014,-3.2591,-3.3092,-3.4126,-3.4935,-3.4935,-3.4868,-3.4868,-3.4868,-3.4868,-3.4868,-3.4868,-3.4868,-3.4868,-3.4868,-3.4868,-3.4735,-3.4698,-3.4631,-3.4563,-3.4414,-3.4414,-3.4414,-3.4414,-3.4414,-3.4414,-3.4414,-3.4414,-3.4481,-3.4631,-3.4481,-3.4414,-3.4414,-3.4414,-3.4414,-3.4414,-3.4414,-3.4472,0.0,0.0,0.0,0.0,0.0,0.0,0.0,0.0,0.0,0.0,0.0,0.0,0.0,0.0,0.0,0.0,0.0,0.0,0.0,0.0,0.0,0.0,0.0,0.0,0.0,0.0,0.0,0.0,0.0,0.0,-1.2065,-1.2182,-1.2781,-1.4025,-1.4145,-1.4756,-1.6029,-1.6124,-1.6296,-1.6441,-1.7571,-1.8658,-1.9732,-2.0626,-2.2012,-2.3514,-2.3514,-2.4385,-2.5673,-2.5824,-2.6264,-2.6875,-2.7011,-2.7024,-2.7024,-2.7024,-2.7024,-2.7024,-2.7024,-2.7024,-2.7024,-2.7024,-2.7024,-2.7114,-2.7562,-2.7703,-2.7831,-2.8349,-2.8834,-2.9447,-3.0026,-3.0099,-3.0243,-3.1029,-3.1235,-3.1648,-3.3309,-3.438,-3.4935,-3.4935,-3.4817,-3.4698,-3.4698,-3.4698,-3.4698,-3.4698,-3.4698,-3.4698,-3.4698,-3.4549,-3.4481,-3.4414,-3.4414,-3.4414,-3.4414,-3.4414,-3.4414,-3.4414,-3.4414,-3.4414,-3.4414,-3.4414,-3.4414,-3.4414,-3.4414,-3.4414,-3.4414,-3.4414,-3.4414,-3.4414,-3.4414,-3.4704,0.0,0.0,0.0,0.0,0.0,0.0,0.0,0.0,0.0,0.0,0.0,0.0,0.0,0.0,0.0,0.0,0.0,0.0,0.0,0.0,0.0,0.0,0.0,0.0,0.0,0.0,0.0,0.0,0.0,-1.1498,-1.1622,-1.1809,-1.2528,-1.3777,-1.3965,-1.4638,-1.5914,-1.5961,-1.6272,-1.6839,-1.7667,-1.8513,-1.9421,-2.0091,-2.1083,-2.2356,-2.2626,-2.3327,-2.442,-2.4838,-2.5499,-2.6245,-2.6658,-2.6807,-2.6739,-2.6739,-2.6739,-2.6739,-2.6739,-2.6739,-2.679,-2.7107,-2.7208,-2.724,-2.7784,-2.7948,-2.8062,-2.8571,-2.8857,-2.9266,-2.9781,-2.9934,-2.9998,-3.0304,-3.0633,-3.1106,-3.1974,-3.2777,-3.3437,-3.3865,-3.3879,-3.4031,-3.4481,-3.4549,-3.4549,-3.4549,-3.4549,-3.4549,-3.4549,-3.4481,-3.4414,-3.4414,-3.4414,-3.4414,-3.4414,-3.4414,-3.4414,-3.4414,-3.4414,-3.4414,-3.4414,-3.4414,-3.4414,-3.4414,-3.4414,-3.4414,-3.4414,-3.4414,-3.4414,-3.4428,-3.4777,-3.5096,0.0,0.0,0.0,0.0,0.0,0.0,0.0,0.0,0.0,0.0,0.0,0.0,0.0,0.0,0.0,0.0,0.0,0.0,0.0,0.0,0.0,0.0,0.0,0.0,0.0,0.0,0.0,0.0,0.0,-1.1199,-1.1247,-1.1615,-1.2405,-1.3537,-1.3906,-1.4638,-1.573,-1.5908,-1.6407,-1.7242,-1.7694,-1.8308,-1.9062,-1.9636,-2.0276,-2.1053,-2.1699,-2.2402,-2.3213,-2.3986,-2.4779,-2.5523,-2.6314,-2.6521,-2.6465,-2.6465,-2.6396,-2.6477,-2.6615,-2.6666,-2.6753,-2.7306,-2.7494,-2.7595,-2.8147,-2.831,-2.8436,-2.8988,-2.9063,-2.9163,-2.9679,-2.9792,-2.9702,-2.9792,-3.0203,-3.0771,-3.1119,-3.1709,-3.229,-3.3073,-3.3213,-3.3451,-3.4264,-3.4414,-3.4414,-3.4414,-3.4414,-3.4414,-3.4414,-3.4414,-3.4414,-3.4414,-3.4414,-3.4414,-3.4414,-3.4414,-3.4414,-3.4414,-3.4414,-3.4414,-3.4414,-3.4414,-3.4414,-3.4414,-3.4414,-3.4414,-3.4414,-3.4414,-3.4414,-3.4428,-3.5067,-3.5444,0.0,0.0,0.0,0.0,0.0,0.0,0.0,0.0,0.0,0.0,0.0,0.0,0.0,0.0,0.0,0.0,0.0,0.0,0.0,0.0,0.0,0.0,0.0,0.0,0.0,0.0,0.0,0.0,0.0,-1.1043,-1.1136,-1.1677,-1.2343,-1.3191,-1.3846,-1.4569,-1.541,-1.6009,-1.6576,-1.7242,-1.7694,-1.8147,-1.8552,-1.9485,-1.9907,-2.005,-2.1049,-2.2014,-2.2809,-2.3745,-2.4492,-2.5087,-2.5898,-2.6339,-2.6465,-2.627,-2.6201,-2.6345,-2.6997,-2.716,-2.7092,-2.7798,-2.8059,-2.816,-2.8712,-2.8888,-2.9001,-2.9578,-2.9561,-2.9471,-2.9702,-2.9599,-2.9509,-2.9702,-2.9869,-3.0292,-3.1723,-3.2074,-3.229,-3.3073,-3.3213,-3.3451,-3.4264,-3.4414,-3.4414,-3.4414,-3.4414,-3.4414,-3.4414,-3.4414,-3.4414,-3.4414,-3.4414,-3.4414,-3.4414,-3.4414,-3.4414,-3.4414,-3.4414,-3.4414,-3.4414,-3.4414,-3.4414,-3.4414,-3.4414,-3.4414,-3.4414,-3.4414,-3.4414,-3.4428,-3.5067,-3.5691,0.0,0.0,0.0,0.0,0.0,0.0,0.0,0.0,0.0,0.0,0.0,0.0,0.0,0.0,0.0,0.0,0.0,0.0,0.0,0.0,0.0,0.0,0.0,0.0,0.0,0.0,0.0,0.0,0.0,0.0,-1.105,-1.1346,-1.175,-1.2389,-1.3061,-1.4159,-1.566,-1.6146,-1.6719,-1.7352,-1.7777,-1.8063,-1.8241,-1.912,-1.9588,-1.9773,-2.0747,-2.1645,-2.2574,-2.3379,-2.412,-2.4862,-2.5688,-2.605,-2.6119,-2.605,-2.6202,-2.6535,-2.6791,-2.7075,-2.7385,-2.8002,-2.8263,-2.8362,-2.883,-2.8991,-2.904,-2.9316,-2.9287,-2.9197,-2.93,-2.9287,-2.9197,-2.93,-2.9378,-2.9521,-3.0024,-3.0745,-3.1563,-3.2362,-3.2506,-3.2875,-3.4196,-3.4414,-3.4414,-3.4414,-3.4414,-3.4414,-3.4414,-3.4414,-3.4414,-3.4414,-3.4414,-3.4414,-3.4414,-3.4414,-3.4414,-3.4414,-3.4414,-3.4264,-3.4059,-3.4264,-3.4264,-3.3991,-3.3991,-3.4128,-3.4414,-3.4414,-3.4617,-3.5038,-3.5677,-3.6315,0.0,0.0,0.0,0.0,0.0,0.0,0.0,0.0,0.0,0.0,0.0,0.0,0.0,0.0,0.0,0.0,0.0,0.0,0.0,0.0,0.0,0.0,0.0,0.0,0.0,0.0,0.0,0.0,0.0,0.0,-1.0955,-1.1262,-1.1768,-1.2632,-1.3244,-1.4241,-1.5699,-1.6335,-1.6831,-1.7185,-1.761,-1.7803,-1.7832,-1.8682,-1.9204,-1.9326,-2.0205,-2.1031,-2.1993,-2.2798,-2.3379,-2.3891,-2.5016,-2.5465,-2.5548,-2.5966,-2.6318,-2.6686,-2.7054,-2.7409,-2.7802,-2.8341,-2.8602,-2.8664,-2.902,-2.9131,-2.9131,-2.9131,-2.9052,-2.9052,-2.9052,-2.9131,-2.9131,-2.9131,-2.9131,-2.9131,-2.9131,-2.9716,-3.0607,-3.1576,-3.1796,-3.2304,-3.377,-3.4059,-3.4059,-3.4059,-3.4059,-3.4059,-3.4059,-3.4059,-3.4059,-3.4059,-3.4059,-3.4059,-3.4059,-3.4059,-3.4059,-3.4059,-3.4059,-3.3908,-3.3632,-3.3908,-3.3908,-3.3632,-3.3845,-3.4098,-3.4307,-3.416,-3.4445,-3.5233,-3.5869,-3.6562,0.0,0.0,0.0,0.0,0.0,0.0,0.0,0.0,0.0,0.0,0.0,0.0,0.0,0.0,0.0,0.0,0.0,0.0,0.0,0.0,0.0,0.0,0.0,0.0,0.0,0.0,0.0,0.0,0.0,-1.0895,-1.083,-1.1416,-1.241,-1.3832,-1.4336,-1.4916,-1.5614,-1.6429,-1.6779,-1.6864,-1.7271,-1.747,-1.7499,-1.8313,-1.8682,-1.873,-1.9572,-2.0264,-2.0984,-2.1993,-2.2199,-2.2178,-2.3745,-2.4492,-2.4861,-2.5985,-2.642,-2.6603,-2.7875,-2.8166,-2.811,-2.888,-2.9052,-2.9052,-2.9052,-2.9052,-2.9052,-2.9052,-2.8961,-2.8803,-2.9052,-2.9052,-2.9052,-2.9052,-2.9131,-2.9131,-2.9131,-2.9131,-2.9509,-3.0921,-3.122,-3.1663,-3.3058,-3.3269,-3.3269,-3.3269,-3.3269,-3.3269,-3.3269,-3.3269,-3.3269,-3.3269,-3.3269,-3.3269,-3.3269,-3.3269,-3.3269,-3.3269,-3.3269,-3.3269,-3.3297,-3.3297,-3.3312,-3.3326,-3.3944,-3.4195,-3.4195,-3.3635,-3.3861,-3.4839,-3.5511,-3.6453,-0.7766,0.0,0.0,0.0,0.0,0.0,-0.243,-0.2275,0.0,0.0,0.0,0.0,0.0,0.0,0.0,0.0,0.0,0.0,0.0,0.0,0.0,0.0,0.0,0.0,0.0,0.0,0.0,0.0,-1.0638,-1.0742,-1.0907,-1.1051,-1.1777,-1.3425,-1.3623,-1.4541,-1.629,-1.6524,-1.6853,-1.73,-1.7413,-1.747,-1.7499,-1.8313,-1.8682,-1.873,-1.9572,-2.0029,-2.0264,-2.1308,-2.1756,-2.1983,-2.3021,-2.3971,-2.4904,-2.5203,-2.6202,-2.7396,-2.7775,-2.8047,-2.8385,-2.8621,-2.8669,-2.8669,-2.8669,-2.8669,-2.8669,-2.8669,-2.8669,-2.859,-2.8669,-2.8669,-2.8669,-2.8669,-2.8973,-2.9341,-2.9341,-2.9651,-3.0177,-3.1071,-3.1529,-3.2187,-3.3129,-3.3269,-3.3269,-3.3269,-3.3269,-3.3269,-3.3269,-3.3269,-3.3269,-3.3269,-3.3269,-3.3269,-3.3269,-3.3269,-3.3269,-3.3269,-3.3269,-3.3395,-3.347,-3.3814,-3.4038,-3.4178,-3.4358,-3.4455,-3.4455,-3.457,-3.4955,-3.5709,-3.6344,-3.6824,0.0,0.0,0.0,0.0,0.0,0.0,-0.3365,-0.2741,-0.2353,0.0,0.0,0.0,0.0,0.0,0.0,0.0,0.0,0.0,0.0,0.0,0.0,0.0,0.0,0.0,0.0,0.0,0.0,-1.0373,-1.0273,-1.0375,-1.0748,-1.0848,-1.1527,-1.3044,-1.3248,-1.4226,-1.6218,-1.6256,-1.6601,-1.7263,-1.7047,-1.7116,-1.7292,-1.8106,-1.848,-1.8517,-1.9263,-1.9706,-1.9784,-2.0479,-2.0857,-2.1078,-2.1897,-2.2929,-2.406,-2.4653,-2.5958,-2.7508,-2.7746,-2.8021,-2.8283,-2.8431,-2.8351,-2.8271,-2.8431,-2.851,-2.851,-2.851,-2.851,-2.851,-2.851,-2.851,-2.851,-2.851,-2.8736,-2.9118,-2.9341,-2.9871,-3.0469,-3.1071,-3.1455,-3.1969,-3.2717,-3.286,-3.286,-3.286,-3.286,-3.286,-3.286,-3.286,-3.286,-3.286,-3.286,-3.286,-3.286,-3.3096,-3.3248,-3.3248,-3.3412,-3.3629,-3.3676,-3.3941,-3.412,-3.4238,-3.4498,-3.4744,-3.4991,-3.4713,-3.501,-3.5774,-3.662,-3.6915,0.0,0.0,0.0,0.0,0.0,0.0,-0.4611,-0.36,-0.2744,0.0,0.0,0.0,0.0,0.0,0.0,0.0,0.0,0.0,0.0,0.0,0.0,0.0,0.0,0.0,0.0,-0.9322,-0.9744,-1.0105,-0.9969,-1.0067,-1.0519,-1.0815,-1.1475,-1.2749,-1.3101,-1.3932,-1.5521,-1.5661,-1.6044,-1.6691,-1.6412,-1.6412,-1.6797,-1.7679,-1.8044,-1.809,-1.8962,-1.939,-1.9557,-1.9557,-1.9715,-1.9942,-2.0692,-2.1757,-2.3044,-2.4235,-2.5701,-2.7144,-2.7636,-2.78,-2.7881,-2.8271,-2.8111,-2.7881,-2.8271,-2.8351,-2.8351,-2.8431,-2.8431,-2.8431,-2.851,-2.851,-2.851,-2.851,-2.859,-2.8736,-2.9341,-2.9947,-3.0545,-3.1158,-3.1307,-3.1468,-3.2096,-3.2182,-3.2182,-3.2182,-3.2182,-3.2182,-3.2182,-3.2182,-3.2182,-3.2182,-3.2236,-3.2277,-3.2277,-3.282,-3.3159,-3.3159,-3.3661,-3.3896,-3.3964,-3.3964,-3.4005,-3.4072,-3.4665,-3.5181,-3.571,-3.4651,-3.4562,-3.5562,-3.6415,-3.6679,0.0,0.0,0.0,0.0,0.0,0.0,-0.4533,-0.3832,-0.3287,0.0,0.0,0.0,0.0,0.0,0.0,0.0,0.0,0.0,0.0,0.0,0.0,0.0,0.0,0.0,0.0,-0.9055,-0.9431,-0.9734,-0.9821,-1.0067,-1.0519,-1.0542,-1.1249,-1.2629,-1.2701,-1.3273,-1.434,-1.4854,-1.5117,-1.533,-1.5692,-1.5903,-1.607,-1.7131,-1.7644,-1.7689,-1.8788,-1.9301,-1.9381,-1.9381,-1.9548,-1.9942,-2.0089,-2.148,-2.3488,-2.3732,-2.5267,-2.7221,-2.7313,-2.736,-2.736,-2.7441,-2.7429,-2.736,-2.7429,-2.7429,-2.7522,-2.7869,-2.8042,-2.8122,-2.8431,-2.851,-2.851,-2.851,-2.8882,-2.9419,-3.0012,-3.062,-3.1233,-3.1863,-3.2009,-3.2023,-3.2182,-3.2182,-3.2182,-3.2182,-3.2182,-3.2182,-3.2182,-3.2182,-3.2182,-3.2182,-3.2603,-3.2888,-3.2888,-3.343,-3.377,-3.377,-3.3801,-3.4086,-3.4638,-3.4651,-3.4882,-3.5357,-3.5479,-3.5601,-3.571,-3.5479,-3.5425,-3.5707,-3.5896,-3.5884,0.0,0.0,0.0,-0.9513,0.0,0.0,0.0,-0.5372,-0.4368,-0.3986,0.0,0.0,0.0,0.0,0.0,0.0,0.0,0.0,0.0,0.0,0.0,0.0,0.0,0.0,0.0,-0.905,-0.9166,-0.9184,-0.9453,-0.9695,-0.9916,-1.0293,-1.0956,-1.199,-1.2211,-1.2792,-1.373,-1.4178,-1.4545,-1.4903,-1.5338,-1.5621,-1.5859,-1.6772,-1.7203,-1.7247,-1.825,-1.8665,-1.8665,-1.8913,-1.9082,-1.932,-1.9548,-2.0994,-2.3132,-2.3132,-2.4686,-2.6857,-2.6857,-2.6857,-2.6857,-2.7092,-2.7021,-2.6857,-2.7103,-2.7185,-2.7267,-2.7452,-2.7534,-2.7615,-2.7765,-2.7846,-2.7938,-2.8111,-2.8657,-2.9341,-3.0088,-3.0771,-3.1381,-3.2096,-3.1936,-3.1776,-3.2169,-3.2182,-3.2182,-3.2182,-3.2182,-3.2182,-3.2182,-3.2182,-3.2291,-3.2589,-3.2888,-3.3186,-3.3485,-3.4041,-3.4316,-3.4316,-3.4665,-3.4963,-3.5262,-3.5276,-3.5411,-3.571,-3.571,-3.571,-3.571,-3.571,-3.571,-3.571,-3.571,-3.571,0.0,0.0,0.0,0.0,0.0,-0.8959,0.0,0.0,0.0,-0.5607,0.0,0.0,0.0,0.0,0.0,0.0,0.0,0.0,0.0,0.0,0.0,0.0,0.0,0.0,0.0,-0.92,-0.8978,-0.8722,-0.9052,-0.9291,-0.9327,-0.9916,-1.0513,-1.1111,-1.1409,-1.1996,-1.2799,-1.331,-1.3818,-1.4386,-1.4832,-1.5309,-1.5686,-1.6444,-1.6801,-1.6911,-1.7661,-1.804,-1.804,-1.8451,-1.854,-1.8612,-1.9073,-2.0675,-2.2584,-2.2584,-2.4217,-2.6362,-2.6362,-2.6362,-2.6445,-2.6857,-2.6693,-2.6456,-2.6857,-2.694,-2.694,-2.7021,-2.7103,-2.7103,-2.7185,-2.7185,-2.7278,-2.7708,-2.8259,-2.9028,-2.9935,-3.0696,-3.132,-3.2023,-3.1629,-3.1381,-3.2096,-3.2096,-3.2023,-3.2182,-3.2277,-3.2345,-3.2345,-3.2453,-3.2698,-3.3186,-3.3335,-3.3593,-3.4005,-3.4665,-3.5004,-3.5004,-3.5452,-3.571,-3.571,-3.571,-3.571,-3.571,-3.571,-3.571,-3.571,-3.571,-3.571,-3.571,-3.571,-3.571,0.0,0.0,0.0,0.0,-1.187,0.0,0.0,0.0,-0.7969,-0.69,0.0,0.0,0.0,0.0,0.0,0.0,0.0,0.0,0.0,0.0,0.0,0.0,0.0,0.0,0.0,0.0,-0.9129,-0.8732,-0.8878,-0.914,-0.9256,-0.9397,-0.962,-1.0067,-1.0143,-1.0218,-1.0288,-1.1755,-1.2492,-1.2638,-1.397,-1.488,-1.5282,-1.6029,-1.6544,-1.6963,-1.7692,-1.804,-1.804,-1.804,-1.804,-1.8201,-1.8984,-2.0675,-2.2584,-2.2584,-2.4063,-2.5979,-2.5979,-2.5979,-2.5979,-2.6063,-2.5979,-2.5979,-2.6063,-2.6063,-2.6135,-2.6445,-2.661,-2.6693,-2.7103,-2.7185,-2.7185,-2.7267,-2.7903,-2.8688,-2.9369,-3.033,-3.1211,-3.1817,-3.1556,-3.1381,-3.2096,-3.1703,-3.1542,-3.2096,-3.263,-3.2969,-3.2969,-3.3417,-3.3693,-3.3761,-3.4326,-3.4665,-3.4719,-3.5276,-3.5615,-3.5615,-3.5683,-3.571,-3.571,-3.571,-3.571,-3.571,-3.571,-3.571,-3.571,-3.571,-3.571,-3.571,-3.571,-3.571,0.0,0.0,0.0,0.0,0.0,0.0,-1.1624,0.0,-1.006,0.0,0.0,0.0,0.0,0.0,0.0,0.0,0.0,0.0,0.0,0.0,0.0,0.0,0.0,0.0,0.0,0.0,0.0,0.0,-0.8985,-0.9008,-0.8946,-0.917,-0.9397,-0.9549,-0.9771,-0.9922,-0.9922,-1.0956,-1.1687,-1.2345,-1.3302,-1.4306,-1.5197,-1.5751,-1.6175,-1.6539,-1.7065,-1.7221,-1.7302,-1.7554,-1.7635,-1.7716,-1.8273,-1.995,-2.1991,-2.1991,-2.3556,-2.5738,-2.5738,-2.5822,-2.5895,-2.5895,-2.5895,-2.5895,-2.5895,-2.5895,-2.5895,-2.6135,-2.6135,-2.6218,-2.6385,-2.6467,-2.6622,-2.7336,-2.8119,-2.89,-2.9947,-3.0748,-3.1286,-3.1035,-3.0739,-3.0791,-3.1659,-3.1721,-3.208,-3.307,-3.3417,-3.358,-3.358,-3.3797,-3.4005,-3.4343,-3.4679,-3.4963,-3.5316,-3.5574,-3.571,-3.571,-3.571,-3.571,-3.571,-3.571,-3.571,-3.571,-3.571,-3.571,-3.571,-3.571,-3.571,-3.571,-3.571,-3.571,-1.8633,0.0,0.0,0.0,0.0,0.0,0.0,0.0,0.0,0.0,0.0,0.0,0.0,0.0,0.0,0.0,0.0,0.0,0.0,0.0,0.0,0.0,0.0,0.0,0.0,0.0,0.0,-0.9217,-0.9149,-0.8987,-0.8718,-0.9013,-0.917,-0.917,-0.9387,-0.9539,-0.9539,-1.0288,-1.1025,-1.1909,-1.2875,-1.3918,-1.5106,-1.5589,-1.6015,-1.6365,-1.6619,-1.673,-1.6738,-1.7066,-1.7229,-1.7229,-1.7546,-1.9126,-2.131,-2.1559,-2.3286,-2.5464,-2.5464,-2.5644,-2.5822,-2.5895,-2.5895,-2.5895,-2.5895,-2.5895,-2.5895,-2.5895,-2.5895,-2.5895,-2.5895,-2.5895,-2.6135,-2.7092,-2.7787,-2.8585,-2.9496,-3.0266,-3.0685,-3.0214,-3.0086,-3.0528,-3.1626,-3.1798,-3.215,-3.3234,-3.3772,-3.388,-3.3619,-3.4014,-3.4441,-3.4873,-3.4993,-3.5169,-3.5602,-3.5629,-3.571,-3.571,-3.571,-3.571,-3.571,-3.571,-3.571,-3.571,-3.571,-3.571,-3.571,-3.571,-3.571,-3.571,-3.571,-3.571,0.0,0.0,0.0,-1.8419,0.0,0.0,0.0,0.0,-1.5192,0.0,0.0,0.0,0.0,0.0,0.0,0.0,0.0,0.0,0.0,0.0,0.0,0.0,0.0,0.0,0.0,0.0,0.0,-0.9044,-0.92,-0.9133,-0.8722,-0.8703,-0.8703,-0.8703,-0.8699,-0.8703,-0.8703,-0.9744,-1.0421,-1.0887,-1.2798,-1.4099,-1.4824,-1.5787,-1.6381,-1.6714,-1.673,-1.673,-1.673,-1.673,-1.673,-1.673,-1.673,-1.8377,-2.0708,-2.1393,-2.3119,-2.52,-2.52,-2.538,-2.5644,-2.5812,-2.5895,-2.5895,-2.5895,-2.5895,-2.5895,-2.5895,-2.5895,-2.5895,-2.5895,-2.5895,-2.5895,-2.5979,-2.6622,-2.7255,-2.7255,-2.8108,-2.8955,-2.9423,-2.9856,-3.0766,-3.2421,-3.177,-3.1336,-3.2143,-3.3383,-3.3845,-3.2967,-3.4307,-3.5264,-3.5127,-3.5453,-3.5615,-3.5399,-3.5562,-3.571,-3.571,-3.571,-3.571,-3.571,-3.571,-3.571,-3.571,-3.571,-3.571,-3.571,-3.571,-3.571,-3.571,-3.571,-3.571,0.0,0.0,-1.9704,-1.953,0.0,0.0,0.0,0.0,0.0,0.0,0.0,0.0,0.0,0.0,0.0,0.0,0.0,0.0,0.0,0.0,0.0,0.0,0.0,0.0,0.0,0.0,0.0,-0.9666,-0.9828,-0.9683,-0.894,-0.8916,-0.885,-0.8708,-0.8703,-0.8703,-0.8703,-0.8998,-0.9677,-1.0605,-1.1295,-1.2655,-1.4576,-1.4765,-1.5567,-1.6648,-1.6566,-1.6566,-1.673,-1.673,-1.673,-1.673,-1.673,-1.8294,-2.0624,-2.0875,-2.269,-2.5031,-2.5115,-2.5285,-2.538,-2.538,-2.5549,-2.5728,-2.5728,-2.5812,-2.5895,-2.5895,-2.5895,-2.5895,-2.5895,-2.5895,-2.6063,-2.6622,-2.7021,-2.7336,-2.7879,-2.8554,-2.8934,-2.8563,-2.9547,-3.0796,-3.1586,-3.154,-3.1834,-3.3014,-3.413,-3.4439,-3.356,-3.4419,-3.5154,-3.5086,-3.5318,-3.548,-3.5399,-3.548,-3.548,-3.548,-3.5399,-3.5399,-3.548,-3.548,-3.5562,-3.571,-3.571,-3.571,-3.571,-3.571,-3.571,-3.571,-3.571,-3.571,-2.1262,-2.0944,0.0,-2.0677,-2.0237,0.0,-1.9156,0.0,0.0,0.0,0.0,0.0,0.0,0.0,0.0,0.0,0.0,0.0,0.0,-1.306,0.0,0.0,0.0,0.0,0.0,0.0,-1.091,-1.0696,-1.0315,-0.9824,0.0,0.0,-0.8959,-0.8822,-0.8741,-0.8703,-0.8703,-0.8779,-0.9266,-1.0183,-1.0586,-1.1784,-1.3587,-1.4104,-1.501,-1.6139,-1.6312,-1.6476,-1.673,-1.673,-1.673,-1.673,-1.673,-1.8054,-2.0129,-2.0457,-2.2344,-2.4786,-2.5031,-2.5115,-2.5115,-2.52,-2.5295,-2.5464,-2.5464,-2.5549,-2.5633,-2.5728,-2.5812,-2.5812,-2.5895,-2.5895,-2.6063,-2.6622,-2.6704,-2.6914,-2.7638,-2.8033,-2.8298,-2.8413,-2.9765,-3.1039,-3.1736,-3.1969,-3.2364,-3.2955,-3.3759,-3.3959,-3.2789,-3.3991,-3.4746,-3.4097,-3.4775,-3.5318,-3.5318,-3.5318,-3.5318,-3.5318,-3.5154,-3.5154,-3.5318,-3.5318,-3.5318,-3.548,-3.5562,-3.5562,-3.5562,-3.5629,-3.571,-3.571,-3.571,-3.571]}]]